SondeTracker

Meteorological Radiosondes Database

Operations
Statistics for the Launch Site: Linz (AT)

1904

91

30253.00 m / 22799.94 m / 23150.00 m

5.39 m/s / 5.45 m/s

10.39 m/s / 9.31 m/s

767

91

47

Radiosondes Table with Launch Site: Linz (AT) (1904)
Number Type Last Frame [UTC] φ λ Course Speed Altitude Climbing Frequency Nearest City Distance from QTH Status
T4830265 RS41 2022-09-26 04:23:14 48.2984 15.246 116 ° 9 km/h 515 m -4.5 m/s 403.40 MHz Pöggstall (AT) 0.00 km UNKNOWN
T4830297 RS41 2022-09-25 04:24:04 48.6103 15.6672 204 ° 6 km/h 409 m -3.3 m/s 403.40 MHz Gars am Kamp (AT) 0.00 km FOUND
T4751216 RS41 2022-09-24 03:53:04 48.2186 15.2944 228 ° 4 km/h 318 m -12.1 m/s 403.40 MHz Melk (AT) 0.00 km FOUND
T4830261 RS41 2022-09-23 03:31:34 47.5734 14.1461 126 ° 24 km/h 2009 m -6.9 m/s 403.40 MHz Stainach (AT) 0.00 km UNKNOWN
T4751218 RS41 2022-09-22 03:42:20 47.4783 14.5181 205 ° 19 km/h 2323 m -7.4 m/s 403.40 MHz 0.00 km UNKNOWN
T4751215 RS41 2022-09-21 03:49:00 47.5271 14.6223 237 ° 13 km/h 2023 m -8.2 m/s 403.40 MHz Trieben (AT) 0.00 km UNKNOWN
T4830259 RS41 2022-09-20 03:41:27 47.6677 15.1753 132 ° 13 km/h 1481 m -8.9 m/s 403.40 MHz Mariazell (AT) 0.00 km UNKNOWN
T4830262 RS41 2022-09-19 03:49:20 47.9311 15.7298 92 ° 31 km/h 851 m -10.0 m/s 403.40 MHz Hainfeld (AT) 0.00 km UNKNOWN
T4840249 RS41 2022-09-18 04:00:44 47.8419 15.5878 82 ° 13 km/h 690 m -5.7 m/s 403.40 MHz Lilienfeld (AT) 0.00 km UNKNOWN
T4830286 RS41 2022-09-17 03:52:51 48.6993 16.1492 102 ° 33 km/h 376 m -7.5 m/s 403.40 MHz Wullersdorf (AT) 0.00 km UNKNOWN
T4830287 RS41 2022-09-16 03:54:38 48.2603 15.862 117 ° 31 km/h 1033 m -9.3 m/s 403.40 MHz Asperhofen (AT) 0.00 km FOUND
T4830285 RS41 2022-09-15 03:55:35 48.3437 15.8073 54 ° 17 km/h 242 m -4.2 m/s 403.40 MHz Traismauer (AT) 0.00 km FOUND
T2420664 RS41 2022-09-14 03:52:34 47.9589 15.6121 133 ° 7 km/h 1094 m -4.7 m/s 403.40 MHz Lilienfeld (AT) 0.00 km UNKNOWN
T2420274 RS41 2022-09-13 04:03:30 47.5584 14.9946 104 ° 39 km/h 1899 m -5.4 m/s 403.40 MHz Eisenerz (AT) 0.00 km UNKNOWN
T2420287 RS41 2022-09-12 03:44:55 47.6231 14.7585 191 ° 2 km/h 758 m -6.4 m/s 403.40 MHz Landl (AT) 0.00 km UNKNOWN
T2430789 RS41 2022-09-11 04:18:04 47.9445 15.3363 154 ° 15 km/h 859 m -6.5 m/s 403.40 MHz Kirchberg an der Pielach (AT) 0.00 km UNKNOWN
T2430140 RS41 2022-09-10 04:11:12 48.4582 15.4593 108 ° 33 km/h 702 m -6.7 m/s 403.40 MHz Gföhl (AT) 0.00 km UNKNOWN
T2420275 RS41 2022-09-09 04:28:17 48.5526 15.8368 208 ° 6 km/h 385 m -4.0 m/s 403.40 MHz Ziersdorf (AT) 0.00 km UNKNOWN
T4840206 RS41 2022-09-08 04:01:06 48.4063 15.1527 308 ° 17 km/h 926 m -2.8 m/s 403.40 MHz Pöggstall (AT) 0.00 km UNKNOWN
T4840207 RS41 2022-09-07 03:41:00 48.096 15.0919 280 ° 15 km/h 379 m -10.6 m/s 403.40 MHz Steinakirchen am Forst (AT) 0.00 km UNKNOWN
T4820726 RS41 2022-09-06 04:15:16 47.9254 15.4561 183 ° 6 km/h 661 m -2.9 m/s 403.40 MHz Kirchberg an der Pielach (AT) 0.00 km UNKNOWN
T4840251 RS41 2022-09-05 03:51:59 48.0263 14.9133 15 ° 2 km/h 700 m -4.2 m/s 403.40 MHz Neuhofen an der Ybbs (AT) 0.00 km UNKNOWN
T4840133 RS41 2022-09-04 04:15:04 48.2231 15.1554 7 ° 7 km/h 432 m -3.3 m/s 403.40 MHz Pöchlarn (AT) 0.00 km FOUND
T4840248 RS41 2022-09-03 03:49:28 48.2317 14.9469 275 ° 9 km/h 508 m -6.4 m/s 403.40 MHz Waldhausen im Strudengau (AT) 0.00 km UNKNOWN
T4840209 RS41 2022-09-02 04:01:22 48.1959 14.6455 247 ° 13 km/h 296 m -5.4 m/s 403.40 MHz Naarn im Machland (AT) 0.00 km UNKNOWN
T4840250 RS41 2022-09-01 03:55:06 48.1204 15.0661 35 ° 6 km/h 388 m -10.9 m/s 403.40 MHz Ybbs an der Donau (AT) 0.00 km UNKNOWN
T4840208 RS41 2022-08-31 04:04:35 48.2904 14.8718 265 ° 17 km/h 647 m -5.1 m/s 403.40 MHz Waldhausen im Strudengau (AT) 0.00 km UNKNOWN
T2420666 RS41 2022-08-30 04:02:34 48.2023 14.7318 284 ° 6 km/h 297 m -4.6 m/s 403.40 MHz Ardagger Markt (AT) 0.00 km UNKNOWN
T2420654 RS41 2022-08-29 08:15:41 48.2452 14.5022 327 ° 6 km/h 324 m -9.3 m/s 403.40 MHz Mauthausen (AT) 0.00 km UNKNOWN
T2420281 RS41 2022-08-28 02:31:05 48.2281 14.2235 184 ° 22 km/h 299 m -11.3 m/s 403.40 MHz Traun (AT) 0.00 km FOUND
T2420282 RS41-SG 2022-08-27 03:45:49 48.3476 14.3391 239 ° 7 km/h 413 m -2.7 m/s 403.40 MHz Altenberg bei Linz (AT) 0.00 km FOUND
T2420279 RS41 2022-08-26 03:44:38 48.3192 14.1457 252 ° 2 km/h 345 m -9.4 m/s 403.40 MHz Ottensheim (AT) 0.00 km FOUND
T2430142 RS41 2022-08-25 04:08:49 48.296 13.843 240 ° 17 km/h 500 m -4.3 m/s 405.10 MHz Waizenkirchen (AT) 0.00 km FOUND
T2420284 RS41 2022-08-24 03:51:37 48.1509 14.0569 336 ° 4 km/h 452 m -10.4 m/s 403.40 MHz Thalheim bei Wels (AT) 0.00 km FOUND
T2420283 RS41 2022-08-23 04:03:01 48.0966 14.0188 37 ° 15 km/h 474 m -8.8 m/s 403.40 MHz Steinhaus (AT) 0.00 km FOUND
T2420288 RS41 2022-08-22 03:46:48 48.1909 13.9871 128 ° 9 km/h 432 m -6.2 m/s 403.40 MHz Krenglbach (AT) 0.00 km FOUND
T2430141 RS41 2022-08-21 06:43:08 48.1241 14.2513 90 ° 15 km/h 418 m -8.7 m/s 405.10 MHz Neuhofen an der Krems (AT) 0.00 km FOUND
T2420276 RS41 2022-08-20 03:47:03 48.5907 14.0615 48 ° 7 km/h 954 m -8.9 m/s 403.40 MHz Haslach an der Mühl (AT) 0.00 km UNKNOWN
T2420286 RS41 2022-08-19 03:18:13 48.6201 14.3872 327 ° 15 km/h 790 m -4.8 m/s 403.40 MHz Rainbach im Mühlkreis (AT) 0.00 km UNKNOWN
T2440933 RS41 2022-08-18 03:59:10 48.6574 14.7311 359 ° 19 km/h 1054 m -3.2 m/s 403.40 MHz Weitra (AT) 0.00 km UNKNOWN
T2440923 RS41 2022-08-17 03:49:13 48.2931 14.5988 278 ° 4 km/h 419 m -6.3 m/s 403.40 MHz Schwertberg (AT) 0.00 km UNKNOWN
T2440903 RS41 2022-08-16 04:20:41 48.3377 14.5227 90 ° 11 km/h 463 m -3.2 m/s 405.10 MHz Wartberg ob der Aist (AT) 0.00 km UNKNOWN
T2440924 RS41 2022-08-15 04:11:13 48.2143 14.6157 111 ° 4 km/h 318 m -8.3 m/s 403.40 MHz Naarn im Machland (AT) 0.00 km UNKNOWN
T2420273 RS41 2022-08-14 04:00:22 48.0645 14.1627 63 ° 9 km/h 462 m -7.6 m/s 403.40 MHz Kremsmünster (AT) 0.00 km NEED ATTENTION
T2420271 RS41 2022-08-13 03:57:38 48.3115 13.5109 284 ° 13 km/h 561 m -11.0 m/s 403.40 MHz Taiskirchen im Innkreis (AT) 0.00 km UNKNOWN
T2420269 RS41 2022-08-12 10:52:20 48.1316 13.8683 240 ° 13 km/h 518 m -8.2 m/s 403.40 MHz Lambach (AT) 0.00 km FOUND
T2420285 RS41 2022-08-11 03:46:40 47.9587 13.7991 273 ° 6 km/h 618 m -6.7 m/s 403.40 MHz Ohlsdorf (AT) 0.00 km UNKNOWN
T2430136 RS41 2022-08-10 03:47:29 48.0662 14.33 294 ° 11 km/h 473 m -6.5 m/s 403.40 MHz Sierning (AT) 0.00 km NEED ATTENTION
T2440739 RS41 2022-08-09 04:17:53 47.9312 14.459 305 ° 13 km/h 809 m -3.0 m/s 405.10 MHz Ternberg (AT) 0.00 km UNKNOWN
T2440931 RS41 2022-08-08 04:00:54 48.3916 14.6815 229 ° 17 km/h 745 m -6.8 m/s 403.40 MHz Gutau (AT) 0.00 km UNKNOWN
T2420291 RS41 2022-08-07 03:47:41 48.3811 14.7481 236 ° 7 km/h 740 m -7.6 m/s 403.40 MHz Unterweissenbach (AT) 0.00 km UNKNOWN
T2420290 RS41 2022-08-06 03:52:30 48.5167 14.879 147 ° 15 km/h 1042 m -5.6 m/s 405.10 MHz Grossgerungs (AT) 0.00 km FOUND
T2420277 RS41 2022-08-05 04:08:17 48.4389 14.7379 15 ° 2 km/h 840 m -5.5 m/s 403.40 MHz Unterweissenbach (AT) 0.00 km UNKNOWN
T2430143 RS41 2022-08-04 04:05:55 48.0868 14.4316 332 ° 6 km/h 428 m -5.8 m/s 403.40 MHz Dietach (AT) 0.00 km UNKNOWN
T2440743 RS41 2022-08-03 04:07:30 47.683 14.1732 21 ° 4 km/h 1341 m -1.9 m/s 403.40 MHz Windischgarsten (AT) 0.00 km UNKNOWN
T2440907 RS41 2022-08-02 03:57:59 48.1102 14.7538 218 ° 13 km/h 462 m -9.8 m/s 403.40 MHz Aschbach Markt (AT) 0.00 km FOUND
T2430133 RS41 2022-08-01 04:04:35 47.9109 15.1872 43 ° 6 km/h 833 m -7.1 m/s 403.40 MHz Gaming (AT) 0.00 km UNKNOWN
T2420272 RS41 2022-07-31 03:56:53 47.5497 15.1029 24 ° 7 km/h 1453 m -3.2 m/s 405.10 MHz Thörl (AT) 0.00 km UNKNOWN
T2430684 RS41-SG 2022-07-30 04:19:02 48.5756 14.8652 85 ° 22 km/h 949 m -6.0 m/s 403.40 MHz Grossgerungs (AT) 0.00 km UNKNOWN
T2430676 RS41-SG 2022-07-29 03:39:07 48.4404 14.836 308 ° 4 km/h 915 m -7.5 m/s 403.40 MHz Königswiesen (AT) 0.00 km UNKNOWN
T2430804 RS41 2022-07-28 04:12:41 48.1986 15.0941 234 ° 15 km/h 356 m -4.5 m/s 403.40 MHz Ybbs an der Donau (AT) 0.00 km UNKNOWN
T2440945 RS41 2022-07-27 04:12:19 48.4109 15.3951 129 ° 19 km/h 988 m -12.0 m/s 405.10 MHz Gföhl (AT) 0.00 km UNKNOWN
T2420295 RS41 2022-07-26 03:50:25 48.4813 15.0817 69 ° 28 km/h 986 m -5.9 m/s 403.40 MHz Grossgerungs (AT) 0.00 km UNKNOWN
T2430688 RS41-SG 2022-07-25 03:49:32 47.8991 14.8848 308 ° 4 km/h 1006 m -8.7 m/s 403.40 MHz Ybbsitz (AT) 0.00 km UNKNOWN
T2440942 RS41 2022-07-24 04:00:39 48.1046 14.971 91 ° 6 km/h 375 m -6.3 m/s 403.40 MHz Blindenmarkt (AT) 0.00 km UNKNOWN
T2440938 RS41 2022-07-23 03:52:54 48.4752 14.8733 68 ° 13 km/h 1031 m -6.4 m/s 403.40 MHz Königswiesen (AT) 0.00 km UNKNOWN
T2420589 RS41 2022-07-22 04:02:58 48.0933 14.7957 36 ° 4 km/h 366 m -8.0 m/s 403.40 MHz Aschbach Markt (AT) 0.00 km UNKNOWN
T2440947 RS41-SG 2022-07-21 04:02:55 48.2795 14.3708 98 ° 13 km/h 316 m -7.7 m/s 403.40 MHz Steyregg (AT) 0.00 km UNKNOWN
T2430701 RS41 2022-07-20 04:40:30 47.996 14.1331 249 ° 6 km/h 544 m -1.9 m/s 403.40 MHz Wartberg an der Krems (AT) 0.00 km UNKNOWN
T2440940 RS41 2022-07-19 03:56:31 47.6345 14.1503 147 ° 4 km/h 1899 m -5.4 m/s 403.40 MHz Liezen (AT) 0.00 km UNKNOWN
T2430674 RS41 2022-07-18 03:52:58 47.828 14.7046 337 ° 4 km/h 1048 m -8.8 m/s 403.40 MHz Weyer Markt (AT) 0.00 km UNKNOWN
T2430802 RS41 2022-07-17 03:43:14 47.7681 15.0225 115 ° 2 km/h 1311 m -10.1 m/s 403.40 MHz Gaming (AT) 0.00 km UNKNOWN
T2440937 RS41 2022-07-16 04:00:25 47.8879 15.4833 137 ° 2 km/h 900 m -4.1 m/s 403.40 MHz Kirchberg an der Pielach (AT) 0.00 km UNKNOWN
T2440901 RS41 2022-07-15 04:14:04 48.0156 15.8785 110 ° 24 km/h 693 m -8.5 m/s 403.40 MHz Hainfeld (AT) 0.00 km FOUND
T2420894 RS41 2022-07-14 03:57:10 48.0366 15.2333 62 ° 7 km/h 506 m -4.9 m/s 403.40 MHz Oberndorf an der Melk (AT) 0.00 km UNKNOWN
T2430698 RS41 2022-07-13 03:49:50 47.3507 14.1472 166 ° 48 km/h 2707 m -7.4 m/s 403.40 MHz Irdning (AT) 0.00 km UNKNOWN
T2440943 RS41 2022-07-12 04:01:02 47.5445 14.7223 96 ° 2 km/h 1503 m -9.1 m/s 403.40 MHz Landl (AT) 0.00 km UNKNOWN
T2440906 RS41 2022-07-11 03:52:43 47.6025 14.8413 136 ° 9 km/h 1398 m -5.8 m/s 403.40 MHz Eisenerz (AT) 0.00 km UNKNOWN
T2440952 RS41 2022-07-10 03:47:12 47.4748 14.7922 159 ° 44 km/h 1992 m -9.2 m/s 403.40 MHz Eisenerz (AT) 0.00 km UNKNOWN
T2440953 RS41 2022-07-09 03:53:09 47.5253 14.5302 148 ° 43 km/h 1856 m -10.1 m/s 403.40 MHz Trieben (AT) 0.00 km UNKNOWN
T2440939 RS41 2022-07-08 04:18:53 47.049 14.1461 144 ° 41 km/h 1951 m -7.1 m/s 403.40 MHz Murau (AT) 0.00 km UNKNOWN
T2420594 RS41 2022-07-07 03:48:40 48.0992 14.9678 74 ° 24 km/h 407 m -8.1 m/s 403.40 MHz Euratsfeld (AT) 0.00 km UNKNOWN
T2430801 RS41 2022-07-06 04:10:39 48.3961 15.4683 52 ° 11 km/h 626 m -5.8 m/s 403.40 MHz Krems an der Donau (AT) 0.00 km UNKNOWN
T2440954 RS41 2022-07-05 04:02:52 48.545 14.9452 107 ° 17 km/h 915 m -3.9 m/s 403.40 MHz Grossgerungs (AT) 0.00 km UNKNOWN
T2430673 RS41 2022-07-04 04:18:30 48.3951 15.2921 120 ° 6 km/h 842 m -6.7 m/s 403.40 MHz Pöggstall (AT) 0.00 km UNKNOWN
T2440941 RS41 2022-07-03 04:07:12 48.5848 14.663 319 ° 13 km/h 1112 m -6.6 m/s 403.40 MHz Sankt Oswald bei Freistadt (AT) 0.00 km UNKNOWN
T2430690 RS41 2022-07-02 03:57:01 48.2406 14.9181 72 ° 9 km/h 581 m -8.9 m/s 403.40 MHz Waldhausen im Strudengau (AT) 0.00 km UNKNOWN
T2420885 RS41 2022-07-01 04:16:31 48.7095 14.6718 55 ° 26 km/h 1076 m -6.7 m/s 405.10 MHz Kaplice (CZ) 0.00 km UNKNOWN
T2420586 RS41 2022-06-30 04:13:24 48.6067 14.3232 191 ° 2 km/h 787 m -8.5 m/s 403.40 MHz Vorderweissenbach (AT) 0.00 km UNKNOWN
T2420886 RS41 2022-06-29 03:55:07 48.7258 14.3876 283 ° 7 km/h 889 m -5.9 m/s 403.40 MHz Kaplice (CZ) 0.00 km UNKNOWN
T2440944 RS41 2022-06-28 04:14:57 48.4379 14.9445 78 ° 22 km/h 944 m -3.6 m/s 403.40 MHz Königswiesen (AT) 0.00 km UNKNOWN
T2440904 RS41 2022-06-27 03:52:09 48.3477 14.6391 257 ° 15 km/h 595 m -6.5 m/s 405.10 MHz Tragwein (AT) 0.00 km UNKNOWN
T2440902 RS41 2022-06-26 03:57:52 48.323 14.755 223 ° 2 km/h 689 m -8.0 m/s 403.40 MHz Tragwein (AT) 0.00 km UNKNOWN
T2440905 RS41 2022-06-25 04:00:46 48.2586 14.5186 75 ° 19 km/h 408 m -4.6 m/s 403.40 MHz Mauthausen (AT) 0.00 km FOUND
T2430803 RS41-SG 2022-06-24 04:14:10 48.1833 14.8323 331 ° 17 km/h 351 m -3.8 m/s 403.40 MHz Ardagger Markt (AT) 0.00 km UNKNOWN
S4430805 RS41 2022-06-23 04:31:52 47.7831 15.2013 96 ° 17 km/h 1181 m -3.9 m/s 403.40 MHz Mariazell (AT) 0.00 km UNKNOWN
S4430833 RS41 2022-06-22 04:13:02 47.9418 15.4872 99 ° 15 km/h 1248 m -2.1 m/s 403.40 MHz Kirchberg an der Pielach (AT) 0.00 km UNKNOWN
S4430813 RS41 2022-06-21 03:57:30 47.9886 15.8012 160 ° 24 km/h 926 m -5.4 m/s 403.40 MHz Hainfeld (AT) 0.00 km UNKNOWN
S4430814 RS41 2022-06-20 04:22:07 48.39 14.8907 29 ° 4 km/h 895 m -9.0 m/s 403.40 MHz Königswiesen (AT) 0.00 km UNKNOWN
S4430812 RS41 2022-06-19 04:39:39 48.2545 14.579 293 ° 15 km/h 314 m -3.4 m/s 403.40 MHz Schwertberg (AT) 0.00 km FOUND
S4350134 RS41 2022-06-18 04:01:07 47.5612 14.219 85 ° 17 km/h 1423 m -6.5 m/s 403.40 MHz Liezen (AT) 0.00 km UNKNOWN
S4610215 RS41 2022-06-17 03:56:25 47.6473 14.8957 111 ° 9 km/h 1255 m -7.3 m/s 403.40 MHz Eisenerz (AT) 0.00 km UNKNOWN
S4430807 RS41 2022-06-16 03:49:22 47.9278 14.6634 357 ° 7 km/h 911 m -11.2 m/s 403.40 MHz Weyer Markt (AT) 0.00 km UNKNOWN
T2420592 RS41 2022-06-15 03:52:39 47.9735 14.7041 295 ° 7 km/h 733 m -9.1 m/s 403.40 MHz Sonntagberg (AT) 0.00 km UNKNOWN
T2420590 RS41 2022-06-14 03:55:10 47.7939 14.8554 160 ° 4 km/h 1423 m -6.6 m/s 403.40 MHz Weyer Markt (AT) 0.00 km UNKNOWN
T2440948 RS41 2022-06-13 04:04:33 48.2324 15.0382 155 ° 17 km/h 549 m -11.2 m/s 403.40 MHz Ybbs an der Donau (AT) 0.00 km UNKNOWN
T2440946 RS41-SG 2022-06-12 04:07:59 47.7997 14.3485 130 ° 7 km/h 1503 m -6.0 m/s 403.40 MHz Windischgarsten (AT) 0.00 km UNKNOWN
S4610213 RS41 2022-06-11 04:05:19 47.7438 14.1482 141 ° 13 km/h 1205 m -5.1 m/s 403.40 MHz Windischgarsten (AT) 0.00 km UNKNOWN
S4610218 RS41-SG 2022-06-10 04:03:25 48.0723 14.1364 82 ° 37 km/h 502 m -8.6 m/s 403.40 MHz Kremsmünster (AT) 0.00 km UNKNOWN
S4610256 RS41-SG 2022-06-09 03:58:04 48.3797 14.2493 272 ° 9 km/h 861 m -2.0 m/s 403.40 MHz Lichtenhag (AT) 0.00 km UNKNOWN
S4430334 RS41 2022-06-08 04:10:32 48.4413 14.5245 244 ° 2 km/h 576 m -3.1 m/s 403.40 MHz Neumarkt im Mühlkreis (AT) 0.00 km UNKNOWN
S4610258 RS41 2022-06-07 04:01:36 48.4139 14.8574 354 ° 9 km/h 852 m -6.2 m/s 403.40 MHz Königswiesen (AT) 0.00 km UNKNOWN
S4610214 RS41 2022-06-06 03:57:10 48.2416 14.7222 106 ° 15 km/h 438 m -8.6 m/s 403.40 MHz Perg (AT) 0.00 km FOUND
S4430331 RS41 2022-06-05 03:58:54 48.05 15.0654 268 ° 24 km/h 517 m -8.2 m/s 403.40 MHz Steinakirchen am Forst (AT) 0.00 km UNKNOWN
S4430503 RS41 2022-06-04 04:10:32 48.0214 15.2589 50 ° 15 km/h 762 m -7.5 m/s 403.40 MHz Oberndorf an der Melk (AT) 0.00 km UNKNOWN
S4430332 RS41 2022-06-03 03:56:10 48.1482 15.2477 276 ° 9 km/h 340 m -8.7 m/s 403.40 MHz Ruprechtshofen (AT) 0.00 km FOUND
S4430335 RS41 2022-06-02 03:53:05 48.2552 15.6956 58 ° 11 km/h 288 m -4.8 m/s 403.40 MHz Herzogenburg (AT) 0.00 km FOUND
S4230378 RS41 2022-06-01 03:55:30 48.223 15.683 47 ° 26 km/h 322 m -7.0 m/s 405.10 MHz Sankt Pölten (AT) 0.00 km FOUND
S4430504 RS41 2022-05-31 03:42:17 48.443 15.1203 6 ° 4 km/h 938 m -7.3 m/s 403.40 MHz Pöggstall (AT) 0.00 km UNKNOWN
S4440916 RS41 2022-05-30 04:01:43 48.5749 15.8043 121 ° 20 km/h 523 m -5.8 m/s 403.40 MHz Eggenburg (AT) 0.00 km UNKNOWN
S4430582 RS41 2022-05-29 04:23:40 48.5648 15.6017 254 ° 15 km/h 577 m -3.9 m/s 405.10 MHz Gars am Kamp (AT) 0.00 km UNKNOWN
S4430830 RS41 2022-05-28 03:53:58 48.113 15.8599 86 ° 26 km/h 643 m -11.9 m/s 403.40 MHz Altlengbach (AT) 0.00 km FOUND
S4430692 RS41 2022-05-27 03:57:36 48.1359 15.2021 29 ° 6 km/h 211 m -6.4 m/s 403.40 MHz Wieselburg (AT) 0.00 km UNKNOWN
S4430499 RS41 2022-05-26 03:57:36 48.0217 14.9855 53 ° 20 km/h 694 m -7.0 m/s 403.40 MHz Steinakirchen am Forst (AT) 0.00 km UNKNOWN
S4310010 RS41 2022-05-25 03:51:22 48.5433 14.8384 193 ° 15 km/h 1000 m -7.3 m/s 403.40 MHz Grossgerungs (AT) 0.00 km NEED ATTENTION
S4320012 RS41 2022-05-24 03:53:55 48.2946 15.0603 98 ° 9 km/h 613 m -2.6 m/s 403.40 MHz Waldhausen im Strudengau (AT) 0.00 km UNKNOWN
S4430347 RS41 2022-05-23 04:12:32 47.5832 15.3194 22 ° 19 km/h 1503 m -2.6 m/s 403.40 MHz Thörl (AT) 0.00 km UNKNOWN
S4350255 RS41 2022-05-22 03:55:33 47.7936 15.3109 155 ° 4 km/h 1051 m -6.8 m/s 403.40 MHz Mariazell (AT) 0.00 km UNKNOWN
S4430650 RS41 2022-05-21 03:59:59 48.1158 15.3977 70 ° 28 km/h 383 m -7.6 m/s 403.40 MHz Kilb (AT) 0.00 km FOUND
S4430523 RS41 2022-05-20 03:49:07 48.081 14.7877 222 ° 4 km/h 396 m -4.8 m/s 403.40 MHz Aschbach Markt (AT) 0.00 km FOUND
S4350257 RS41 2022-05-19 04:02:19 47.7211 14.2015 51 ° 7 km/h 1292 m -5.1 m/s 403.40 MHz Windischgarsten (AT) 0.00 km UNKNOWN
S4430495 RS41 2022-05-18 04:04:24 47.3786 14.8025 144 ° 17 km/h 1451 m -7.3 m/s 403.40 MHz Trofaiach (AT) 0.00 km UNKNOWN
S4310011 RS41 2022-05-17 03:57:29 48.0159 14.8695 90 ° 28 km/h 573 m -4.0 m/s 403.40 MHz Neuhofen an der Ybbs (AT) 0.00 km UNKNOWN
S4430346 RS41 2022-05-16 03:53:02 47.9033 14.7482 85 ° 7 km/h 1046 m -10.2 m/s 403.40 MHz Waidhofen an der Ybbs (AT) 0.00 km UNKNOWN
S4610253 RS41 2022-05-15 03:53:01 47.9495 14.7914 48 ° 15 km/h 722 m -6.5 m/s 403.40 MHz Waidhofen an der Ybbs (AT) 0.00 km UNKNOWN
S4430654 RS41 2022-05-14 04:04:35 48.129 14.9778 124 ° 7 km/h 357 m -11.1 m/s 403.40 MHz Blindenmarkt (AT) 0.00 km UNKNOWN
S4610211 RS41 2022-05-13 04:24:50 48.253 15.8925 78 ° 28 km/h 300 m -4.7 m/s 403.40 MHz Asperhofen (AT) 0.00 km FOUND
S4430333 RS41 2022-05-12 03:52:59 48.3157 15.175 96 ° 24 km/h 628 m -7.7 m/s 403.40 MHz Pöggstall (AT) 0.00 km UNKNOWN
S4430500 RS41 2022-05-11 03:48:12 47.89 14.3624 70 ° 13 km/h 1125 m -8.2 m/s 403.40 MHz Ternberg (AT) 0.00 km UNKNOWN
S4230377 RS41 2022-05-10 04:03:23 47.7764 14.0382 166 ° 2 km/h 1527 m -3.7 m/s 403.40 MHz Micheldorf in Oberösterreich (AT) 0.00 km UNKNOWN
S4430487 RS41 2022-05-09 03:57:22 48.1029 14.2138 315 ° 2 km/h 408 m -5.1 m/s 405.10 MHz Kematen an der Krems (AT) 0.00 km UNKNOWN
S4430336 RS41 2022-05-08 03:56:46 48.2428 14.2294 204 ° 9 km/h 329 m -10.5 m/s 403.40 MHz Traun (AT) 0.00 km NEED ATTENTION
S4610257 RS41 2022-05-07 04:08:44 48.3193 14.4621 100 ° 7 km/h 368 m -3.4 m/s 403.40 MHz Katsdorf (AT) 0.00 km UNKNOWN
S4610217 RS41 2022-05-06 03:29:39 48.3194 14.563 187 ° 7 km/h 435 m -8.8 m/s 403.40 MHz Tragwein (AT) 0.00 km UNKNOWN
S4610219 RS41 2022-05-05 03:57:56 48.3333 14.603 253 ° 6 km/h 475 m -7.0 m/s 403.40 MHz Tragwein (AT) 0.00 km UNKNOWN
S4610222 RS41 2022-05-04 03:50:43 48.2618 14.372 155 ° 6 km/h 325 m -10.2 m/s 403.40 MHz Steyregg (AT) 0.00 km FOUND
S4610295 RS41 2022-05-03 03:51:35 48.2263 14.2654 249 ° 17 km/h 303 m -2.5 m/s 403.40 MHz Traun (AT) 0.00 km FOUND
S4430815 RS41 2022-05-02 04:15:41 48.3516 14.2332 243 ° 7 km/h 629 m -4.2 m/s 403.40 MHz Lichtenhag (AT) 0.00 km UNKNOWN
S4430816 RS41 2022-05-01 04:27:52 48.5033 14.53 34 ° 9 km/h 776 m -3.2 m/s 405.10 MHz Freistadt (AT) 0.00 km FOUND
S4430823 RS41 2022-04-30 04:01:15 48.2261 14.582 319 ° 13 km/h 301 m -3.3 m/s 403.40 MHz Naarn im Machland (AT) 0.00 km LOST
S4610254 RS41 2022-04-29 03:48:04 47.866 14.3843 272 ° 6 km/h 1076 m -6.6 m/s 403.40 MHz Ternberg (AT) 0.00 km UNKNOWN
S4430825 RS41 2022-04-28 04:00:41 47.856 14.3108 140 ° 7 km/h 1028 m -5.4 m/s 403.40 MHz Molln (AT) 0.00 km LOST
S4430811 RS41 2022-04-27 04:00:23 48.3303 14.5904 275 ° 2 km/h 440 m -8.5 m/s 403.40 MHz Tragwein (AT) 0.00 km FOUND
S4430808 RS41 2022-04-26 04:11:40 48.3381 14.8775 254 ° 13 km/h 740 m -2.4 m/s 403.40 MHz Königswiesen (AT) 0.00 km UNKNOWN
S4430834 RS41 2022-04-25 03:50:43 48.2051 14.8736 114 ° 24 km/h 542 m -2.4 m/s 403.40 MHz Grein (AT) 0.00 km UNKNOWN
S4430831 RS41 2022-04-24 03:36:27 48.6025 14.795 290 ° 24 km/h 1063 m -8.3 m/s 403.40 MHz Grossgerungs (AT) 0.00 km UNKNOWN
S4430810 RS41 2022-04-23 04:25:38 48.3145 14.7334 268 ° 20 km/h 644 m -3.5 m/s 403.40 MHz Tragwein (AT) 0.00 km UNKNOWN
S4430809 RS41 2022-04-22 04:01:06 48.6285 14.3785 210 ° 17 km/h 792 m -8.5 m/s 403.40 MHz Rainbach im Mühlkreis (AT) 0.00 km UNKNOWN
S4310007 RS41 2022-04-21 04:04:25 48.2771 14.1986 289 ° 9 km/h 407 m -7.9 m/s 405.10 MHz Pasching (AT) 0.00 km FOUND
S4350253 RS41 2022-04-20 03:57:05 47.9045 14.0369 306 ° 11 km/h 873 m -3.6 m/s 403.40 MHz Kirchdorf (AT) 0.00 km UNKNOWN
S4440011 RS41 2022-04-19 03:56:05 47.3815 14.3534 137 ° 54 km/h 2253 m -6.9 m/s 403.40 MHz Trieben (AT) 0.00 km UNKNOWN
S4430490 RS41-SG 2022-04-18 04:09:33 47.3406 13.6041 167 ° 17 km/h 2125 m -3.8 m/s 403.40 MHz Schladming (AT) 0.00 km UNKNOWN
S4430468 RS41 2022-04-17 03:33:44 47.6903 13.7353 238 ° 6 km/h 1854 m -9.7 m/s 405.10 MHz Bad Ischl (AT) 0.00 km UNKNOWN
S4430691 RS41 2022-04-16 04:14:06 47.4896 14.882 154 ° 61 km/h 1986 m -4.5 m/s 403.40 MHz Eisenerz (AT) 0.00 km UNKNOWN
S4430479 RS41-SG 2022-04-15 04:24:20 48.0079 15.1572 108 ° 22 km/h 662 m -2.8 m/s 403.40 MHz Scheibbs (AT) 0.00 km UNKNOWN
S4610291 RS41-SG 2022-04-14 04:01:00 48.1953 14.4271 346 ° 6 km/h 347 m -4.4 m/s 403.40 MHz Asten (AT) 0.00 km FOUND
S4430494 RS41 2022-04-13 04:21:33 47.8759 14.7653 360 ° 4 km/h 1095 m -5.6 m/s 403.40 MHz Weyer Markt (AT) 0.00 km UNKNOWN
S4430493 RS41 2022-04-12 04:29:14 47.3978 15.6659 147 ° 17 km/h 922 m -3.6 m/s 403.40 MHz Birkfeld (AT) 0.00 km UNKNOWN
S4430488 RS41 2022-04-11 04:17:47 47.1365 16.0241 184 ° 13 km/h 410 m -3.8 m/s 403.40 MHz Fürstenfeld (AT) 0.00 km FOUND
S4430478 RS41 2022-04-10 03:35:17 48.0425 15.1025 97 ° 22 km/h 500 m -3.4 m/s 403.40 MHz Steinakirchen am Forst (AT) 0.00 km UNKNOWN
S4430477 RS41 2022-04-09 03:45:44 48.4004 16.208 336 ° 9 km/h 278 m -5.5 m/s 403.40 MHz Stockerau (AT) 0.00 km FOUND
S4430578 RS41 2022-04-08 03:32:25 47.961 16.2904 108 ° 37 km/h 300 m -7.8 m/s 403.40 MHz Oberwaltersdorf (AT) 0.00 km FOUND
S4430476 RS41-SG 2022-04-07 03:52:19 48.2338 15.399 67 ° 15 km/h 427 m -8.0 m/s 403.40 MHz Loosdorf (AT) 0.00 km NEED ATTENTION
S4430480 RS41 2022-04-06 03:36:25 48.1219 15.325 65 ° 20 km/h 361 m -4.7 m/s 403.40 MHz Mank (AT) 0.00 km FOUND
S4610220 RS41 2022-04-05 04:26:58 47.6341 15.7684 65 ° 22 km/h 1373 m -6.1 m/s 405.10 MHz Mürzzuschlag (AT) 0.00 km UNKNOWN
S4430475 RS41-SG 2022-04-04 03:37:39 47.9113 15.1523 98 ° 15 km/h 963 m -3.5 m/s 403.40 MHz Gaming (AT) 0.00 km UNKNOWN
S4430496 RS41 2022-04-03 03:56:16 47.9701 14.6964 99 ° 20 km/h 602 m -3.0 m/s 403.40 MHz Biberbach (AT) 0.00 km UNKNOWN
S4430464 RS41-SG 2022-04-02 03:50:24 48.3811 14.7174 206 ° 9 km/h 692 m -1.9 m/s 403.40 MHz Unterweissenbach (AT) 0.00 km UNKNOWN
S4430455 RS41 2022-04-01 03:59:08 48.7186 15.5975 181 ° 19 km/h 611 m -5.6 m/s 403.40 MHz Horn (AT) 0.00 km LOST
S4610212 RS41 2022-03-31 03:42:05 48.4146 15.8186 198 ° 11 km/h 254 m -8.8 m/s 403.40 MHz Fels am Wagram (AT) 0.00 km FOUND
S4430565 RS41 2022-03-30 04:24:18 48.0454 16.5597 170 ° 11 km/h 219 m -3.3 m/s 403.40 MHz Schwadorf (AT) 0.00 km FOUND
S4430491 RS41 2022-03-29 05:06:35 47.8502 15.773 75 ° 26 km/h 936 m -2.7 m/s 403.40 MHz Puchberg am Schneeberg (AT) 0.00 km UNKNOWN
S4430579 RS41 2022-03-28 05:26:47 47.9416 14.8847 269 ° 4 km/h 649 m -2.7 m/s 403.40 MHz Ybbsitz (AT) 0.00 km UNKNOWN
S4430570 RS41 2022-03-27 05:11:59 47.7739 14.7622 291 ° 2 km/h 692 m -5.2 m/s 403.40 MHz Weyer Markt (AT) 0.00 km UNKNOWN
S4430563 RS41 2022-03-26 05:08:40 47.9099 14.5237 261 ° 11 km/h 912 m -4.2 m/s 403.40 MHz Grossraming (AT) 0.00 km UNKNOWN
S4440918 RS41 2022-03-25 05:23:32 48.007 14.7617 324 ° 7 km/h 482 m -3.5 m/s 403.40 MHz Sonntagberg (AT) 0.00 km FOUND
S4430451 RS41 2022-03-24 04:52:08 48.1273 14.5722 352 ° 11 km/h 412 m -10.1 m/s 403.40 MHz Haag (AT) 0.00 km FOUND
S4430577 RS41-SG 2022-03-23 04:50:35 48.3528 13.9973 27 ° 2 km/h 362 m -8.4 m/s 403.40 MHz Hartkirchen (AT) 0.00 km FOUND
S4430841 RS41 2022-03-22 04:39:31 48.4018 13.5441 299 ° 24 km/h 474 m -4.4 m/s 403.40 MHz Taufkirchen an der Pram (AT) 0.00 km FOUND
S4430842 RS41 2022-03-21 05:04:15 48.2724 13.7239 275 ° 24 km/h 489 m -3.7 m/s 403.40 MHz Kallham (AT) 0.00 km UNKNOWN
S4430780 RS41 2022-03-20 04:55:11 48.2812 13.8126 276 ° 48 km/h 532 m -8.4 m/s 403.40 MHz Grieskirchen (AT) 0.00 km UNKNOWN
S4430845 RS41-SG 2022-03-19 04:59:09 48.0517 14.144 267 ° 11 km/h 457 m -2.5 m/s 403.40 MHz Kremsmünster (AT) 0.00 km FOUND
S4430652 RS41 2022-03-18 05:04:21 47.9704 14.4111 317 ° 4 km/h 679 m -4.2 m/s 403.40 MHz Ternberg (AT) 0.00 km UNKNOWN
S4430790 RS41 2022-03-17 05:00:24 47.6714 14.4937 348 ° 17 km/h 1648 m -3.3 m/s 403.40 MHz Admont (AT) 0.00 km UNKNOWN
S4430693 RS41 2022-03-16 05:05:30 47.2823 15.5474 100 ° 17 km/h 1111 m -10.7 m/s 403.40 MHz Passail (AT) 0.00 km FOUND
S4430587 RS41 2022-03-15 05:06:55 47.8905 15.5733 284 ° 11 km/h 1012 m -4.9 m/s 403.40 MHz Lilienfeld (AT) 0.00 km UNKNOWN
S4430783 RS41 2022-03-14 04:55:46 48.3828 14.5371 212 ° 6 km/h 555 m -7.6 m/s 403.40 MHz Hagenberg im Mühlkreis (AT) 0.00 km FOUND
S4430793 RS41 2022-03-13 05:07:33 48.159 14.0753 268 ° 9 km/h 385 m -5.2 m/s 403.40 MHz Thalheim bei Wels (AT) 0.00 km FOUND
S4430789 RS41 2022-03-12 05:11:31 47.8279 14.5042 339 ° 33 km/h 1145 m -4.4 m/s 403.40 MHz Grossraming (AT) 0.00 km UNKNOWN
S4430791 RS41 2022-03-11 05:33:07 47.7002 14.5655 278 ° 13 km/h 1049 m -2.9 m/s 403.40 MHz Landl (AT) 0.00 km UNKNOWN
S4430785 RS41 2022-03-10 05:06:49 47.6322 14.3266 165 ° 30 km/h 1916 m -2.8 m/s 403.40 MHz Spital am Pyhrn (AT) 0.00 km UNKNOWN
S4430787 RS41-SG 2022-03-09 04:53:00 47.8236 14.0614 259 ° 2 km/h 1368 m -5.1 m/s 403.40 MHz Micheldorf in Oberösterreich (AT) 0.00 km FOUND
S4430786 RS41-SG 2022-03-08 05:18:04 47.4729 13.8454 132 ° 2 km/h 1537 m -4.7 m/s 403.40 MHz Gröbming (AT) 0.00 km UNKNOWN
S4430788 RS41 2022-03-07 05:09:13 47.7187 13.829 137 ° 11 km/h 1926 m -3.3 m/s 403.40 MHz Ebensee (AT) 0.00 km UNKNOWN
S4430829 RS41 2022-03-06 05:04:32 47.9566 13.6008 253 ° 20 km/h 663 m -5.2 m/s 403.40 MHz Lenzing (AT) 0.00 km FOUND
S4430779 RS41 2022-03-05 04:46:45 47.7371 13.9607 278 ° 15 km/h 1826 m -6.9 m/s 403.40 MHz Ebensee (AT) 0.00 km FOUND
S4430781 RS41 2022-03-04 04:52:45 47.7191 14.1121 61 ° 9 km/h 1568 m -12.4 m/s 403.40 MHz Windischgarsten (AT) 0.00 km UNKNOWN
S4430782 RS41-SG 2022-03-03 05:32:04 47.552 14.3603 138 ° 20 km/h 2046 m -2.5 m/s 403.40 MHz Rottenmann (AT) 0.00 km UNKNOWN
S4430778 RS41 2022-03-02 04:52:42 47.5475 14.1738 54 ° 19 km/h 1381 m -9.4 m/s 403.40 MHz Aigen im Ennstal (AT) 0.00 km UNKNOWN
S4430784 RS41 2022-03-01 04:50:52 47.7179 13.5971 317 ° 28 km/h 1953 m -13.4 m/s 403.40 MHz Bad Ischl (AT) 0.00 km UNKNOWN
S4430694 RS41-SG 2022-02-28 05:05:21 47.425 13.4477 189 ° 35 km/h 2388 m -3.6 m/s 403.40 MHz Eben im Pongau (AT) 0.00 km UNKNOWN
S4430775 RS41-SG 2022-02-27 04:52:26 47.779 13.3925 268 ° 17 km/h 1309 m -10.5 m/s 403.40 MHz Sankt Gilgen (AT) 0.00 km UNKNOWN
S4430777 RS41 2022-02-26 05:07:12 47.7173 14.8337 221 ° 4 km/h 662 m -8.5 m/s 403.40 MHz Landl (AT) 0.00 km UNKNOWN
S4430776 RS41-SG 2022-02-25 04:48:38 48.3767 15.8911 63 ° 20 km/h 287 m -7.8 m/s 403.40 MHz Kirchberg am Wagram (AT) 0.00 km FOUND
S4430584 RS41 2022-02-24 04:55:10 48.0411 15.3457 8 ° 6 km/h 619 m -10.6 m/s 403.40 MHz Kirchberg an der Pielach (AT) 0.00 km LOST
S4430585 RS41 2022-02-23 05:07:34 47.2986 15.6356 48 ° 6 km/h 1174 m -4.5 m/s 403.40 MHz Anger (AT) 0.00 km FOUND
S4430586 RS41 2022-02-22 04:45:12 47.2748 14.8225 143 ° 39 km/h 2116 m -9.4 m/s 403.40 MHz Sankt Margarethen bei Knittelfeld (AT) 0.00 km UNKNOWN
S4430826 RS41 2022-02-21 05:13:36 48.339 16.4652 28 ° 26 km/h 244 m -3.6 m/s 403.400 MHz Großebersdorf (AT) 0.00 km FOUND
T2440922 RS41 2022-02-20 04:39:11 47.9875 15.9593 90 ° 6 km/h 785 m -4.5 m/s 403.40 MHz Pernitz (AT) 0.00 km UNKNOWN
T2440734 RS41 2022-02-19 04:58:00 48.4938 16.9217 81 ° 24 km/h 234 m -5.0 m/s 403.40 MHz Dürnkrut (AT) 0.00 km UNKNOWN
T2440737 RS41 2022-02-18 04:58:20 47.2223 16.1368 46 ° 11 km/h 699 m -9.6 m/s 403.40 MHz Stegersbach (AT) 0.00 km FOUND
T2440056 RS41 2022-02-17 04:51:22 47.4756 15.6985 174 ° 7 km/h 930 m -10.4 m/s 403.40 MHz Langenwang (AT) 0.00 km NEED ATTENTION
T2440735 RS41 2022-02-16 05:05:22 47.6554 14.9479 108 ° 9 km/h 1153 m -2.3 m/s 403.40 MHz Eisenerz (AT) 0.00 km UNKNOWN
T2440740 RS41-SG 2022-02-15 05:12:53 48.4618 15.3673 63 ° 9 km/h 743 m -2.9 m/s 403.40 MHz Gföhl (AT) 0.00 km UNKNOWN
T2440920 RS41 2022-02-14 05:02:20 48.1345 14.7645 267 ° 11 km/h 391 m -5.6 m/s 403.40 MHz Ardagger Markt (AT) 0.00 km UNKNOWN
T2440932 RS41 2022-02-13 05:12:38 48.1416 15.1248 261 ° 9 km/h 367 m -3.5 m/s 403.40 MHz Wieselburg (AT) 0.00 km FOUND
T2440744 RS41 2022-02-12 04:51:14 47.9609 15.1646 123 ° 9 km/h 674 m -11.2 m/s 403.40 MHz Scheibbs (AT) 0.00 km FOUND
T2440055 RS41 2022-02-11 04:59:02 48.555 16.7318 103 ° 35 km/h 365 m -7.9 m/s 403.40 MHz Zistersdorf (AT) 0.00 km UNKNOWN
T2440908 RS41-SG 2022-02-10 04:52:45 48.1557 15.764 130 ° 2 km/h 473 m -8.5 m/s 403.40 MHz Böheimkirchen (AT) 0.00 km NEED ATTENTION
T2440742 RS41 2022-02-09 05:06:43 47.369 15.2928 144 ° 15 km/h 1213 m -3.5 m/s 403.40 MHz Pernegg an der Mur (AT) 0.00 km FOUND
T2440934 RS41 2022-02-08 04:54:33 46.8265 14.6377 145 ° 37 km/h 1722 m -9.9 m/s 403.40 MHz Brückl (AT) 0.00 km UNKNOWN
T2440736 RS41 2022-02-07 04:50:16 47.7691 16.2363 123 ° 37 km/h 343 m -2.4 m/s 403.40 MHz Lanzenkirchen (AT) 0.00 km FOUND
T2440979 RS41-SG 2022-02-06 04:50:55 47.844 15.7059 119 ° 6 km/h 728 m -8.7 m/s 403.40 MHz Puchberg am Schneeberg (AT) 0.00 km UNKNOWN
T2440911 RS41 2022-02-05 05:12:06 47.9562 16.4854 109 ° 41 km/h 257 m -4.5 m/s 403.40 MHz Mitterndorf an der Fischa (AT) 0.00 km FOUND
T2440916 RS41 2022-02-04 04:48:29 47.5222 15.4589 57 ° 19 km/h 1033 m -8.3 m/s 403.40 MHz Kindberg (AT) 0.00 km FOUND
T2440929 RS41 2022-02-03 04:59:18 46.744 15.3933 280 ° 11 km/h 536 m -6.3 m/s 403.40 MHz Gleinstätten (AT) 0.00 km NEED ATTENTION
T2440921 RS41 2022-02-02 05:06:30 46.1693 15.795 160 ° 4 km/h 344 m -3.3 m/s 403.40 MHz Pregrada (HR) 0.00 km FOUND
T2440935 RS41 2022-02-01 05:01:34 46.5551 15.0101 98 ° 26 km/h 942 m -4.0 m/s 403.40 MHz Ravne na Koroškem (SI) 0.00 km UNKNOWN
T2440733 RS41 2022-01-31 05:15:51 47.579 16.6564 24 ° 4 km/h 333 m -4.8 m/s 403.40 MHz Deutschkreutz (AT) 0.00 km FOUND
T2440910 RS41 2022-01-30 05:14:42 46.6942 16.4571 43 ° 17 km/h 287 m -7.4 m/s 403.40 MHz Kobilje (SI) 0.00 km FOUND
T2430145 RS41-SG 2022-01-29 04:52:27 46.9036 14.2575 147 ° 13 km/h 1718 m -6.3 m/s 403.40 MHz Friesach (AT) 0.00 km UNKNOWN
T2440966 RS41 2022-01-28 05:00:30 47.6632 15.9362 119 ° 54 km/h 914 m -4.6 m/s 403.40 MHz Gloggnitz (AT) 0.00 km FOUND
T2440913 RS41 2022-01-27 04:44:40 47.4689 14.4152 71 ° 31 km/h 2062 m -8.3 m/s 403.40 MHz Trieben (AT) 0.00 km UNKNOWN
T2440964 RS41 2022-01-26 04:40:44 47.5425 14.9642 133 ° 39 km/h 1863 m -4.2 m/s 403.40 MHz Eisenerz (AT) 0.00 km UNKNOWN
T2430685 RS41 2022-01-25 05:06:16 47.25 13.9697 185 ° 65 km/h 2906 m -4.2 m/s 403.40 MHz Tamsweg (AT) 0.00 km UNKNOWN
T2440965 RS41-SG 2022-01-24 04:46:37 47.3238 13.8248 131 ° 24 km/h 2604 m -8.9 m/s 403.40 MHz Schladming (AT) 0.00 km UNKNOWN
T2430810 RS41 2022-01-23 04:47:33 47.3544 14.4097 153 ° 70 km/h 2391 m -11.4 m/s 403.40 MHz Trieben (AT) 0.00 km UNKNOWN
T2430817 RS41 2022-01-22 05:16:27 46.1759 14.9792 96 ° 50 km/h 1160 m -4.4 m/s 403.40 MHz Zagorje (SI) 0.00 km UNKNOWN
T2430683 RS41 2022-01-21 04:38:31 47.0617 15.1364 113 ° 17 km/h 793 m -7.9 m/s 403.40 MHz Voitsberg (AT) 0.00 km FOUND
T2430793 RS41 2022-01-20 05:08:31 48.1605 16.3577 71 ° 22 km/h 277 m -3.5 m/s 403.40 MHz Vösendorf (AT) 0.00 km FOUND
T2440971 RS41 2022-01-19 04:44:21 47.6887 14.5246 40 ° 7 km/h 1233 m -7.4 m/s 403.40 MHz Admont (AT) 0.00 km UNKNOWN
T2430686 RS41 2022-01-18 05:20:42 46.8226 15.119 268 ° 4 km/h 1002 m -6.3 m/s 403.40 MHz Deutschlandsberg (AT) 0.00 km FOUND
T2430687 RS41 2022-01-17 05:17:30 47.098 15.1772 105 ° 13 km/h 662 m -4.2 m/s 403.40 MHz Voitsberg (AT) 0.00 km FOUND
T2440912 RS41 2022-01-16 05:21:02 47.8277 15.6731 312 ° 6 km/h 970 m -3.9 m/s 403.40 MHz Puchberg am Schneeberg (AT) 0.00 km NEED ATTENTION
T2430689 RS41 2022-01-15 05:13:00 47.1122 15.1723 314 ° 11 km/h 694 m -2.5 m/s 403.40 MHz Voitsberg (AT) 0.00 km FOUND
T2430680 RS41 2022-01-14 04:56:03 47.4675 14.4865 157 ° 59 km/h 2321 m -5.5 m/s 403.40 MHz Trieben (AT) 0.00 km UNKNOWN
T2440741 RS41 2022-01-13 04:57:11 47.2608 12.996 213 ° 48 km/h 2974 m -2.9 m/s 403.40 MHz Rauris (AT) 0.00 km UNKNOWN
T2440936 RS41 2022-01-12 05:02:07 47.4328 13.5622 233 ° 26 km/h 2662 m -4.3 m/s 403.40 MHz Radstadt (AT) 0.00 km UNKNOWN
S4810281 RS41 2022-01-11 04:27:48 47.7807 13.7374 203 ° 13 km/h 1323 m -7.5 m/s 403.40 MHz Ebensee (AT) 0.00 km FOUND
S4810282 RS41 2022-01-10 04:57:38 48.186 14.2675 119 ° 13 km/h 378 m -2.6 m/s 403.40 MHz Ansfelden (AT) 0.00 km FOUND
S4810355 RS41 2022-01-09 04:45:02 48.3151 15.2228 85 ° 7 km/h 543 m -7.4 m/s 403.40 MHz Pöggstall (AT) 0.00 km FOUND
S4810277 RS41 2022-01-08 05:23:50 48.8233 15.7324 28 ° 15 km/h 567 m -3.8 m/s 403.40 MHz Retz (AT) 0.00 km FOUND
S4740239 RS41 2022-01-07 04:48:28 47.9149 14.6586 352 ° 19 km/h 1146 m -10.4 m/s 403.40 MHz Weyer Markt (AT) 0.00 km UNKNOWN
S4760545 RS41 2022-01-06 04:50:12 48.2369 15.8144 69 ° 48 km/h 386 m -8.7 m/s 403.40 MHz Böheimkirchen (AT) 0.00 km FOUND
S4740327 RS41 2022-01-05 05:28:27 49.0067 17.7137 123 ° 15 km/h 645 m -4.2 m/s 403.40 MHz Uherský Brod (CZ) 0.00 km FOUND
S4760505 RS41 2022-01-04 05:27:58 47.4852 17.3844 15 ° 26 km/h 180 m -3.8 m/s 403.40 MHz Tét (HU) 0.00 km FOUND
S4740360 RS41 2022-01-03 04:57:12 47.9673 16.9895 99 ° 20 km/h 226 m -9.2 m/s 403.40 MHz Zurndorf (AT) 0.00 km FOUND
S4740330 RS41 2022-01-02 04:48:51 47.9231 15.356 339 ° 4 km/h 881 m -7.1 m/s 403.40 MHz Kirchberg an der Pielach (AT) 0.00 km FOUND
S4760508 RS41 2022-01-01 05:00:10 47.1287 15.344 204 ° 2 km/h 471 m -7.4 m/s 403.40 MHz Gratkorn (AT) 0.00 km FOUND
S4760510 RS41 2021-12-31 05:26:00 47.1722 15.7404 94 ° 6 km/h 573 m -3.8 m/s 403.40 MHz Pischelsdorf in Steiermark (AT) 0.00 km FOUND
S4810318 RS41 2021-12-30 04:49:05 46.9371 15.082 110 ° 17 km/h 1498 m -7.9 m/s 403.40 MHz Ligist (AT) 0.00 km FOUND
S4810317 RS41 2021-12-29 04:49:10 47.458 15.5837 94 ° 28 km/h 1450 m -8.0 m/s 403.40 MHz Krieglach (AT) 0.00 km NEED ATTENTION
S4810316 RS41 2021-12-28 05:00:00 48.1705 15.4464 327 ° 6 km/h 343 m -4.2 m/s 403.40 MHz Loosdorf (AT) 0.00 km FOUND
S4810309 RS41 2021-12-27 04:55:15 47.928 15.3525 330 ° 6 km/h 945 m -5.1 m/s 403.40 MHz Kirchberg an der Pielach (AT) 0.00 km UNKNOWN
S4760535 RS41 2021-12-26 04:59:25 48.0643 15.7609 326 ° 6 km/h 675 m -6.4 m/s 403.40 MHz Hainfeld (AT) 0.00 km FOUND
S4760540 RS41 2021-12-25 05:27:49 48.1026 16.5944 82 ° 17 km/h 234 m -4.4 m/s 405.10 MHz Fischamend (AT) 0.00 km FOUND
S4810280 RS41 2021-12-24 04:50:13 47.6738 16.2037 94 ° 26 km/h 651 m -6.5 m/s 403.40 MHz Pitten (AT) 0.00 km FOUND
S4810357 RS41 2021-12-23 04:19:46 47.594 14.8872 109 ° 13 km/h 1789 m -3.3 m/s 403.40 MHz Eisenerz (AT) 0.00 km UNKNOWN
S4810426 RS41 2021-12-22 04:35:42 47.4279 14.9888 114 ° 11 km/h 1777 m -10.9 m/s 403.40 MHz Trofaiach (AT) 0.00 km UNKNOWN
S4810288 RS41 2021-12-21 05:17:28 47.0044 15.3659 335 ° 6 km/h 490 m -2.6 m/s 403.40 MHz Pirka (AT) 0.00 km FOUND
S4810312 RS41 2021-12-20 04:57:33 47.0893 15.6825 140 ° 37 km/h 603 m -7.0 m/s 403.40 MHz Gleisdorf (AT) 0.00 km FOUND
S4760467 RS41 2021-12-19 05:05:53 47.4702 14.4341 144 ° 56 km/h 2244 m -2.0 m/s 403.40 MHz Trieben (AT) 0.00 km UNKNOWN
S4810313 RS41 2021-12-18 04:54:34 47.2946 13.5506 200 ° 59 km/h 3036 m -4.5 m/s 403.40 MHz Radstadt (AT) 0.00 km UNKNOWN
S4760539 RS41 2021-12-17 04:38:46 47.4308 13.8997 110 ° 22 km/h 1882 m -9.2 m/s 403.40 MHz Gröbming (AT) 0.00 km UNKNOWN
S4740357 RS41 2021-12-16 05:04:02 47.49 14.3745 143 ° 41 km/h 2359 m -4.3 m/s 403.40 MHz Rottenmann (AT) 0.00 km UNKNOWN
S4760536 RS41 2021-12-15 05:06:14 47.2513 13.6692 169 ° 48 km/h 2783 m -4.2 m/s 403.40 MHz Mariapfarr (AT) 0.00 km UNKNOWN
S4760537 RS41 2021-12-14 05:10:47 47.427 14.6706 141 ° 26 km/h 1996 m -5.1 m/s 403.40 MHz Trieben (AT) 0.00 km UNKNOWN
S4760538 RS41 2021-12-13 05:01:57 47.2865 14.3957 163 ° 67 km/h 2424 m -3.3 m/s 403.40 MHz Oberwölz Stadt (AT) 0.00 km UNKNOWN
S4740237 RS41 2021-12-12 04:54:11 47.3375 14.0197 178 ° 57 km/h 2840 m -5.7 m/s 403.40 MHz Gröbming (AT) 0.00 km UNKNOWN
S4760507 RS41 2021-12-11 04:49:25 48.2332 14.6481 62 ° 4 km/h 344 m -10.3 m/s 403.40 MHz Perg (AT) 0.00 km FOUND
S4740235 RS41 2021-12-10 04:53:30 48.4179 14.7178 85 ° 17 km/h 836 m -4.3 m/s 403.40 MHz Unterweissenbach (AT) 0.00 km FOUND
S4760546 RS41 2021-12-09 04:48:42 49.0879 14.2665 171 ° 9 km/h 873 m -4.5 m/s 403.40 MHz Vodňany (CZ) 0.00 km FOUND
S4810314 RS41 2021-12-08 04:45:27 48.1689 15.003 118 ° 17 km/h 482 m -4.4 m/s 403.40 MHz Blindenmarkt (AT) 0.00 km FOUND
S4810307 RS41 2021-12-07 04:52:07 47.93 14.8377 50 ° 9 km/h 756 m -4.1 m/s 403.40 MHz Ybbsitz (AT) 0.00 km UNKNOWN
S4810315 RS41 2021-12-06 05:04:55 48.2105 14.6453 89 ° 20 km/h 310 m -7.0 m/s 403.40 MHz Naarn im Machland (AT) 0.00 km FOUND
S4810308 RS41 2021-12-05 04:30:54 48.6105 15.2374 104 ° 15 km/h 642 m -5.7 m/s 403.40 MHz Zwettl (AT) 0.00 km FOUND
S4810311 RS41 2021-12-04 04:32:25 47.8241 15.505 104 ° 7 km/h 997 m -7.9 m/s 403.40 MHz Mariazell (AT) 0.00 km UNKNOWN
T2420792 RS41 2021-12-03 05:12:39 48.0637 15.7177 112 ° 13 km/h 632 m -2.3 m/s 403.40 MHz Hainfeld (AT) 0.00 km UNKNOWN
T2421071 RS41 2021-12-02 04:46:54 48.6882 16.0936 60 ° 44 km/h 333 m -4.5 m/s 403.40 MHz Wullersdorf (AT) 0.00 km UNKNOWN
T2420898 RS41 2021-12-01 05:22:00 47.3839 16.0597 108 ° 7 km/h 582 m -3.0 m/s 403.40 MHz Pinkafeld (AT) 0.00 km FOUND
T2420852 RS41 2021-11-30 04:59:04 47.2706 15.0676 125 ° 57 km/h 1703 m -5.6 m/s 403.40 MHz Sankt Michael in Obersteiermark (AT) 0.00 km UNKNOWN
T2420889 RS41 2021-11-29 04:43:47 48.3772 14.8677 119 ° 11 km/h 852 m -4.8 m/s 403.40 MHz Königswiesen (AT) 0.00 km UNKNOWN
T2420831 RS41 2021-11-28 05:27:08 49.2546 15.8029 159 ° 11 km/h 694 m -2.9 m/s 403.40 MHz Třebíč (CZ) 0.00 km UNKNOWN
T2420890 RS41 2021-11-27 04:57:39 48.6845 15.7105 42 ° 7 km/h 476 m -7.1 m/s 403.40 MHz Horn (AT) 0.00 km FOUND
T2421069 RS41 2021-11-26 05:02:56 48.8479 15.5851 90 ° 6 km/h 593 m -5.6 m/s 403.40 MHz Raabs an der Thaya (AT) 0.00 km FOUND
T2420790 RS41 2021-11-25 05:04:53 48.4182 15.1989 272 ° 7 km/h 925 m -5.1 m/s 403.40 MHz Pöggstall (AT) 0.00 km FOUND
T2420893 RS41 2021-11-24 05:04:35 48.0399 14.4298 279 ° 4 km/h 437 m -3.7 m/s 403.40 MHz Steyr (AT) 0.00 km UNKNOWN
T2420900 RS41 2021-11-23 04:38:37 47.94 13.963 255 ° 15 km/h 793 m -3.3 m/s 403.40 MHz Scharnstein (AT) 0.00 km FOUND
T2420883 RS41 2021-11-22 05:17:33 48.5809 15.2849 116 ° 13 km/h 659 m -3.7 m/s 403.40 MHz Zwettl (AT) 0.00 km FOUND
T2421073 RS41 2021-11-21 05:16:52 48.3743 15.5401 74 ° 17 km/h 427 m -3.5 m/s 403.40 MHz Paudorf (AT) 0.00 km FOUND
T2420829 RS41 2021-11-20 04:55:50 47.7269 14.7099 104 ° 52 km/h 1633 m -9.9 m/s 403.40 MHz Landl (AT) 0.00 km UNKNOWN
T2420851 RS41 2021-11-19 04:54:37 47.3271 14.1429 134 ° 61 km/h 2575 m -5.3 m/s 403.40 MHz Oberwölz Stadt (AT) 0.00 km UNKNOWN
T2420832 RS41 2021-11-18 05:17:24 47.7919 14.7634 341 ° 6 km/h 964 m -3.6 m/s 403.40 MHz Weyer Markt (AT) 0.00 km UNKNOWN
T2420895 RS41 2021-11-17 05:12:11 48.4117 14.5859 84 ° 13 km/h 707 m -5.4 m/s 403.40 MHz Gutau (AT) 0.00 km FOUND
T2420856 RS41 2021-11-16 05:02:49 48.5462 14.1942 303 ° 11 km/h 765 m -4.5 m/s 403.40 MHz Vorderweissenbach (AT) 0.00 km FOUND
T2420830 RS41 2021-11-15 05:05:32 48.4577 13.8037 267 ° 28 km/h 648 m -6.6 m/s 403.40 MHz Natternbach (AT) 0.00 km LOST
T2420789 RS41 2021-11-14 04:36:46 48.5018 14.1766 253 ° 20 km/h 855 m -8.3 m/s 403.40 MHz Oberneukirchen (AT) 0.00 km FOUND
T2421016 RS41 2021-11-13 05:05:33 48.4133 14.4318 32 ° 4 km/h 681 m -5.3 m/s 403.40 MHz Alberndorf in der Riedmark (AT) 0.00 km FOUND
T2420858 RS41 2021-11-12 05:30:08 48.4377 14.5736 312 ° 4 km/h 708 m -2.9 m/s 403.40 MHz Gutau (AT) 0.00 km FOUND
T2421019 RS41 2021-11-11 05:06:33 48.4772 14.6473 286 ° 4 km/h 868 m -7.3 m/s 403.40 MHz Sankt Oswald bei Freistadt (AT) 0.00 km LOST
T2420899 RS41 2021-11-10 05:00:08 48.4623 14.5849 304 ° 20 km/h 816 m -5.9 m/s 403.40 MHz Lasberg (AT) 0.00 km LOST
T2430883 RS41 2021-11-09 05:27:48 47.5522 14.0274 204 ° 6 km/h 1904 m -2.5 m/s 403.40 MHz Stainach (AT) 0.00 km FOUND
T2420891 RS41 2021-11-08 05:03:48 48.3791 16.0075 91 ° 19 km/h 242 m -4.2 m/s 403.40 MHz Tulln (AT) 0.00 km FOUND
T2420850 RS41 2021-11-07 05:04:37 48.1032 15.0067 76 ° 7 km/h 374 m -7.8 m/s 403.40 MHz Blindenmarkt (AT) 0.00 km FOUND
T2420892 RS41 2021-11-06 05:17:53 48.3909 14.7885 49 ° 6 km/h 767 m -3.9 m/s 403.40 MHz Königswiesen (AT) 0.00 km NEED ATTENTION
T2421072 RS41 2021-11-05 05:07:14 49.2181 15.5983 88 ° 24 km/h 759 m -2.6 m/s 403.40 MHz Telč (CZ) 0.00 km UNKNOWN
T2421017 RS41 2021-11-04 05:18:52 49.7707 15.3978 340 ° 56 km/h 814 m -3.9 m/s 403.40 MHz Světlá nad Sázavou (CZ) 0.00 km UNKNOWN
T2420848 RS41 2021-11-03 05:03:39 48.6312 15.7449 294 ° 17 km/h 502 m -4.8 m/s 403.40 MHz Eggenburg (AT) 0.00 km FOUND
T2420897 RS41 2021-11-02 04:02:40 48.9467 14.7719 77 ° 20 km/h 604 m -4.8 m/s 403.40 MHz Třeboň (CZ) 0.00 km LOST
T2420896 RS41 2021-11-01 04:18:09 48.4011 14.8186 267 ° 6 km/h 772 m -5.0 m/s 403.40 MHz Königswiesen (AT) 0.00 km FOUND
T2420849 RS41 2021-10-31 03:56:54 48.5364 14.8972 355 ° 7 km/h 962 m -4.2 m/s 403.40 MHz Grossgerungs (AT) 0.00 km UNKNOWN
T2420847 RS41 2021-10-30 04:27:01 49.2197 14.9538 290 ° 41 km/h 686 m -2.9 m/s 403.40 MHz Jindřichŭv Hradec (CZ) 0.00 km UNKNOWN
T2421074 RS41 2021-10-29 03:57:13 48.9517 14.4133 338 ° 15 km/h 912 m -8.2 m/s 403.40 MHz České Budějovice (CZ) 0.00 km UNKNOWN
T2420791 RS41 2021-10-28 03:49:53 48.4196 13.8673 320 ° 9 km/h 574 m -5.0 m/s 403.40 MHz Natternbach (AT) 0.00 km UNKNOWN
T2420788 RS41 2021-10-27 03:55:33 47.8544 13.8981 103 ° 11 km/h 1344 m -5.5 m/s 403.40 MHz Scharnstein (AT) 0.00 km UNKNOWN
T2421018 RS41 2021-10-26 03:52:21 48.6841 15.1502 112 ° 7 km/h 679 m -8.9 m/s 403.40 MHz Vitis (AT) 0.00 km FOUND
T2421070 RS41 2021-10-25 03:51:46 48.4993 14.5748 260 ° 6 km/h 675 m -8.1 m/s 403.40 MHz Sankt Oswald bei Freistadt (AT) 0.00 km UNKNOWN
S4440891 RS41 2021-10-24 03:49:08 47.7683 14.4892 16 ° 13 km/h 1241 m -8.9 m/s 403.40 MHz Windischgarsten (AT) 0.00 km UNKNOWN
S4430522 RS41 2021-10-23 04:25:46 47.9631 16.3317 144 ° 17 km/h 268 m -2.0 m/s 403.40 MHz Oberwaltersdorf (AT) 0.00 km FOUND
S4430651 RS41 2021-10-22 03:48:25 48.5271 16.2427 88 ° 19 km/h 357 m -7.1 m/s 403.40 MHz Ernstbrunn (AT) 0.00 km LOST
S4430518 RS41 2021-10-21 04:16:16 48.7834 16.2065 313 ° 15 km/h 296 m -5.6 m/s 403.40 MHz Znojmo (CZ) 0.00 km UNKNOWN
S4430519 RS41 2021-10-20 04:20:17 47.6688 15.2764 258 ° 4 km/h 1181 m -4.2 m/s 403.40 MHz Mariazell (AT) 0.00 km UNKNOWN
S4440791 RS41 2021-10-19 04:05:01 47.2434 14.7772 82 ° 20 km/h 1477 m -7.5 m/s 403.40 MHz Spielberg bei Knittelfeld (AT) 0.00 km UNKNOWN
S4430649 RS41 2021-10-18 04:14:03 47.869 15.3769 91 ° 6 km/h 1173 m -4.0 m/s 403.40 MHz Mariazell (AT) 0.00 km UNKNOWN
S4440889 RS41 2021-10-17 04:12:57 47.8515 14.566 28 ° 2 km/h 1056 m -4.7 m/s 403.40 MHz Grossraming (AT) 0.00 km UNKNOWN
S4440871 RS41 2021-10-16 04:17:16 48.0152 14.7203 127 ° 6 km/h 557 m -5.2 m/s 403.40 MHz Biberbach (AT) 0.00 km UNKNOWN
S4430531 RS41 2021-10-15 04:07:01 47.8233 14.5929 20 ° 6 km/h 1264 m -10.6 m/s 403.40 MHz Weyer Markt (AT) 0.00 km UNKNOWN
S4440789 RS41 2021-10-14 03:49:20 47.4162 14.098 141 ° 33 km/h 2478 m -13.0 m/s 403.40 MHz Irdning (AT) 0.00 km UNKNOWN
S4430541 RS41 2021-10-13 03:34:17 47.783 14.7746 124 ° 26 km/h 1173 m -4.4 m/s 403.40 MHz Weyer Markt (AT) 0.00 km UNKNOWN
S4430533 RS41 2021-10-12 04:03:40 47.6322 15.189 293 ° 19 km/h 1664 m -7.1 m/s 403.40 MHz Thörl (AT) 0.00 km UNKNOWN
S4430521 RS41 2021-10-11 04:19:16 47.8709 14.3493 120 ° 20 km/h 1166 m -3.5 m/s 403.40 MHz Molln (AT) 0.00 km UNKNOWN
S4430529 RS41 2021-10-10 03:59:07 47.6449 13.5034 244 ° 15 km/h 1950 m -5.5 m/s 403.40 MHz Strobl (AT) 0.00 km UNKNOWN
S4430653 RS41 2021-10-09 03:55:24 47.6655 13.5771 296 ° 20 km/h 1642 m -8.8 m/s 403.40 MHz Bad Goisern (AT) 0.00 km FOUND
S4440893 RS41 2021-10-08 04:16:04 47.9176 13.7091 146 ° 2 km/h 901 m -6.3 m/s 403.40 MHz Pinsdorf (AT) 0.00 km UNKNOWN
S4440787 RS41 2021-10-07 04:46:34 48.3635 14.0133 139 ° 13 km/h 360 m -3.2 m/s 403.40 MHz Aschach an der Donau (AT) 0.00 km UNKNOWN
S4440790 RS41 2021-10-06 04:42:44 48.82 15.146 72 ° 15 km/h 655 m -3.4 m/s 403.40 MHz Heidenreichstein (AT) 0.00 km FOUND
S4430520 RS41 2021-10-05 04:07:59 48.8353 14.7537 303 ° 31 km/h 594 m -5.9 m/s 403.40 MHz Trhové Sviny (CZ) 0.00 km LOST
S4440788 RS41 2021-10-04 03:52:44 48.5847 14.7466 74 ° 13 km/h 1020 m -7.8 m/s 403.40 MHz Sankt Oswald bei Freistadt (AT) 0.00 km UNKNOWN
S4430517 RS41 2021-10-03 04:41:57 48.0295 14.9544 351 ° 11 km/h 710 m -2.2 m/s 403.40 MHz Euratsfeld (AT) 0.00 km UNKNOWN
S4440855 RS41 2021-10-02 04:16:38 48.5169 15.0494 23 ° 4 km/h 838 m -4.4 m/s 403.40 MHz Grossgerungs (AT) 0.00 km UNKNOWN
S4440894 RS41 2021-10-01 04:02:56 47.8893 14.9134 106 ° 13 km/h 1144 m -5.1 m/s 403.40 MHz Ybbsitz (AT) 0.00 km UNKNOWN
S4440917 RS41 2021-09-30 04:04:37 48.445 15.3171 92 ° 20 km/h 860 m -4.8 m/s 403.40 MHz Gföhl (AT) 0.00 km NEED ATTENTION
S4430862 RS41 2021-09-29 03:45:19 48.5122 14.7488 290 ° 35 km/h 1037 m -9.8 m/s 403.40 MHz Unterweissenbach (AT) 0.00 km UNKNOWN
S4430861 RS41 2021-09-28 04:33:51 47.7609 15.1361 136 ° 19 km/h 1331 m -3.1 m/s 403.40 MHz Mariazell (AT) 0.00 km UNKNOWN
S4430502 RS41 2021-09-27 05:09:43 48.4951 14.5252 86 ° 15 km/h 839 m -8.0 m/s 403.40 MHz Freistadt (AT) 0.00 km LOST
S4430864 RS41 2021-09-26 04:11:53 48.4038 14.8735 293 ° 2 km/h 854 m -8.2 m/s 403.40 MHz Königswiesen (AT) 0.00 km UNKNOWN
S4440858 RS41 2021-09-25 04:02:04 47.9205 14.9909 112 ° 2 km/h 825 m -5.5 m/s 403.40 MHz Gaming (AT) 0.00 km UNKNOWN
S4440854 RS41 2021-09-24 03:56:14 47.545 15.0911 133 ° 46 km/h 1603 m -13.1 m/s 403.40 MHz Thörl (AT) 0.00 km UNKNOWN
S4430501 RS41 2021-09-23 04:29:14 47.126 14.7998 131 ° 9 km/h 1777 m -3.6 m/s 403.40 MHz Weißkirchen in Steiermark (AT) 0.00 km UNKNOWN
S4440856 RS41 2021-09-22 03:50:00 47.2941 14.533 151 ° 54 km/h 2450 m -12.2 m/s 403.40 MHz Pöls (AT) 0.00 km UNKNOWN
S4440857 RS41 2021-09-21 03:45:18 48.0157 14.2765 267 ° 11 km/h 552 m -8.3 m/s 403.40 MHz Waldneukirchen (AT) 0.00 km UNKNOWN
S4430860 RS41 2021-09-20 03:39:17 48.1423 14.3125 236 ° 13 km/h 423 m -9.6 m/s 403.40 MHz Sankt Marien (AT) 0.00 km UNKNOWN
S4440853 RS41 2021-09-19 04:06:44 47.9763 14.6903 272 ° 6 km/h 590 m -5.3 m/s 403.40 MHz Biberbach (AT) 0.00 km UNKNOWN
S4430392 RS41 2021-09-18 03:49:38 47.7481 15.2158 86 ° 6 km/h 1386 m -6.7 m/s 403.40 MHz Mariazell (AT) 0.00 km UNKNOWN
S4440943 RS41 2021-09-17 04:20:46 48.1966 15.1814 73 ° 19 km/h 298 m -3.5 m/s 403.40 MHz Pöchlarn (AT) 0.00 km FOUND
T2420560 RS41 2021-09-16 04:15:56 48.2758 15.2671 56 ° 11 km/h 558 m -5.2 m/s 403.40 MHz Pöggstall (AT) 0.00 km UNKNOWN
T2430962 RS41 2021-09-15 04:21:27 47.8009 15.0234 14 ° 9 km/h 1486 m -3.4 m/s 403.40 MHz Gaming (AT) 0.00 km UNKNOWN
T2430959 RS41 2021-09-14 04:08:00 47.9247 14.8591 263 ° 7 km/h 788 m -3.4 m/s 403.40 MHz Ybbsitz (AT) 0.00 km UNKNOWN
S4440915 RS41 2021-09-13 04:47:19 47.8464 14.9829 82 ° 9 km/h 909 m -2.6 m/s 403.40 MHz Gaming (AT) 0.00 km UNKNOWN
T2430966 RS41 2021-09-12 03:58:35 47.9574 14.58 38 ° 4 km/h 802 m -7.8 m/s 403.40 MHz Grossraming (AT) 0.00 km UNKNOWN
S4430859 RS41 2021-09-11 04:22:01 48.0952 14.6521 93 ° 20 km/h 435 m -2.9 m/s 403.40 MHz Sankt Peter in der Au Markt (AT) 0.00 km UNKNOWN
T2420564 RS41 2021-09-10 04:05:37 48.3368 14.1741 258 ° 7 km/h 428 m -4.0 m/s 403.40 MHz Ottensheim (AT) 0.00 km FOUND
T2430965 RS41 2021-09-09 04:19:11 48.3409 13.6301 288 ° 30 km/h 521 m -3.2 m/s 405.10 MHz Raab (AT) 0.00 km UNKNOWN
T2420563 RS41 2021-09-08 04:15:48 47.9437 13.1486 285 ° 6 km/h 812 m -4.3 m/s 403.40 MHz Köstendorf (AT) 0.00 km FOUND
T2420559 RS41 2021-09-07 04:25:56 47.7054 14.3767 141 ° 6 km/h 1483 m -6.2 m/s 403.40 MHz Windischgarsten (AT) 0.00 km UNKNOWN
T2430807 RS41 2021-09-06 04:18:15 47.7962 14.3844 80 ° 7 km/h 1200 m -2.7 m/s 403.40 MHz Windischgarsten (AT) 0.00 km UNKNOWN
T2430818 RS41 2021-09-05 04:19:18 47.9681 14.7787 297 ° 9 km/h 640 m -4.4 m/s 403.40 MHz Waidhofen an der Ybbs (AT) 0.00 km UNKNOWN
T2520395 RS41 2021-09-04 04:39:09 48.093 14.4551 106 ° 2 km/h 404 m -3.2 m/s 403.40 MHz Haidershofen (AT) 0.00 km UNKNOWN
T2520393 RS41 2021-09-03 04:21:23 48.0127 14.6194 282 ° 19 km/h 591 m -4.5 m/s 403.40 MHz Seitenstetten Markt (AT) 0.00 km UNKNOWN
T2430806 RS41 2021-09-02 04:29:51 47.7226 14.6305 184 ° 13 km/h 1656 m -2.4 m/s 403.40 MHz Landl (AT) 0.00 km UNKNOWN
T2430805 RS41 2021-09-01 03:42:28 47.7046 14.249 127 ° 30 km/h 1449 m -6.6 m/s 403.40 MHz Windischgarsten (AT) 0.00 km UNKNOWN
T2520392 RS41 2021-08-31 04:15:55 47.9876 14.7738 49 ° 13 km/h 594 m -3.4 m/s 403.40 MHz Sonntagberg (AT) 0.00 km UNKNOWN
T2420833 RS41 2021-08-30 04:28:49 48.0189 14.5683 131 ° 7 km/h 596 m -2.7 m/s 403.40 MHz Weistrach (AT) 0.00 km UNKNOWN
T2430808 RS41 2021-08-29 04:02:57 48.2279 14.3668 88 ° 19 km/h 373 m -8.4 m/s 403.40 MHz Markt Sankt Florian (AT) 0.00 km UNKNOWN
T2430809 RS41 2021-08-28 04:09:36 48.3263 15.1694 122 ° 4 km/h 682 m -9.0 m/s 405.10 MHz Pöggstall (AT) 0.00 km FOUND
T2440914 RS41 2021-08-27 04:08:11 48.0474 15.2275 116 ° 20 km/h 503 m -4.9 m/s 403.40 MHz Oberndorf an der Melk (AT) 0.00 km UNKNOWN
T2440909 RS41 2021-08-26 04:13:37 47.8735 14.8571 44 ° 20 km/h 970 m -1.7 m/s 403.40 MHz Ybbsitz (AT) 0.00 km UNKNOWN
T2420569 RS41 2021-08-25 04:03:55 48.0694 14.1682 248 ° 11 km/h 420 m -7.4 m/s 403.40 MHz Kremsmünster (AT) 0.00 km UNKNOWN
T2420561 RS41 2021-08-24 04:15:37 47.9559 14.901 104 ° 11 km/h 777 m -10.0 m/s 403.40 MHz Ybbsitz (AT) 0.00 km FOUND
T2420602 RS41 2021-08-23 04:18:58 48.545 15.5467 111 ° 26 km/h 666 m -2.9 m/s 403.40 MHz Gföhl (AT) 0.00 km FOUND
T2431080 RS41 2021-08-22 04:26:09 48.2544 14.9585 281 ° 7 km/h 657 m -8.7 m/s 405.10 MHz Waldhausen im Strudengau (AT) 0.00 km UNKNOWN
T2420568 RS41 2021-08-22 02:33:33 48.2237 14.2825 135 ° 13 km/h 357 m -13.9 m/s 403.40 MHz Ansfelden (AT) 0.00 km FOUND
T2430819 RS41 2021-08-21 04:14:09 48.0547 15.0722 28 ° 7 km/h 467 m -3.9 m/s 403.40 MHz Steinakirchen am Forst (AT) 0.00 km UNKNOWN
T2420570 RS41 2021-08-20 04:24:26 48.3667 15.2701 58 ° 6 km/h 799 m -3.0 m/s 403.40 MHz Pöggstall (AT) 0.00 km FOUND
T2420562 RS41 2021-08-19 03:55:25 48.2313 14.9853 115 ° 9 km/h 596 m -3.8 m/s 403.40 MHz Waldhausen im Strudengau (AT) 0.00 km UNKNOWN
T2420566 RS41 2021-08-18 04:25:34 47.9001 15.7007 86 ° 13 km/h 857 m -2.7 m/s 405.10 MHz Lilienfeld (AT) 0.00 km FOUND
T2430800 RS41 2021-08-17 04:17:33 48.6899 15.7446 98 ° 20 km/h 506 m -5.1 m/s 403.40 MHz Horn (AT) 0.00 km FOUND
T2421054 RS41 2021-08-16 04:18:15 48.2788 15.6412 35 ° 19 km/h 346 m -5.5 m/s 403.40 MHz Herzogenburg (AT) 0.00 km FOUND
T2420567 RS41 2021-08-15 03:57:14 48.0936 15.0972 336 ° 6 km/h 362 m -7.8 m/s 403.40 MHz Steinakirchen am Forst (AT) 0.00 km UNKNOWN
T2430799 RS41 2021-08-14 04:05:37 47.8822 15.0399 54 ° 7 km/h 1020 m -8.2 m/s 405.10 MHz Gaming (AT) 0.00 km UNKNOWN
T2420565 RS41 2021-08-13 04:56:56 48.0209 15.6672 155 ° 7 km/h 770 m -3.2 m/s 403.40 MHz Sankt Veit an der Gölsen (AT) 0.00 km UNKNOWN
T2430961 RS41 2021-08-12 03:55:13 47.8731 15.1439 55 ° 9 km/h 1105 m -8.4 m/s 403.40 MHz Gaming (AT) 0.00 km UNKNOWN
T2430821 RS41 2021-08-11 03:37:56 48.1001 15.4938 17 ° 6 km/h 440 m -5.5 m/s 403.40 MHz Kilb (AT) 0.00 km LOST
T2520396 RS41 2021-08-10 04:25:50 48.2255 15.9755 32 ° 13 km/h 340 m -3.2 m/s 403.40 MHz Sieghartskirchen (AT) 0.00 km FOUND
T2430820 RS41 2021-08-09 03:59:21 48.5007 15.4632 29 ° 4 km/h 620 m -7.6 m/s 403.40 MHz Gföhl (AT) 0.00 km FOUND
S2540543 RS41 2021-08-08 04:31:22 49.1243 15.7025 78 ° 22 km/h 670 m -3.9 m/s 403.40 MHz Moravské Budějovice (CZ) 0.00 km UNKNOWN
S2420237 RS41 2021-08-07 03:54:04 48.1388 15.4753 273 ° 6 km/h 343 m -11.1 m/s 403.40 MHz Obergrafendorf (AT) 0.00 km FOUND
T2420834 RS41 2021-08-06 04:18:54 48.1035 15.2339 87 ° 26 km/h 358 m -7.0 m/s 403.40 MHz Oberndorf an der Melk (AT) 0.00 km FOUND
T2520394 RS41 2021-08-05 04:13:42 48.6359 14.8427 199 ° 24 km/h 920 m -6.1 m/s 403.40 MHz Weitra (AT) 0.00 km UNKNOWN
S2430030 RS41 2021-08-04 04:26:16 48.4776 15.8674 73 ° 11 km/h 345 m -4.3 m/s 403.40 MHz Fels am Wagram (AT) 0.00 km FOUND
S2540513 RS41 2021-08-03 04:17:14 48.4827 15.2631 102 ° 24 km/h 858 m -4.3 m/s 403.40 MHz Zwettl (AT) 0.00 km FOUND
S2430553 RS41 2021-08-02 03:59:00 48.5693 15.2956 80 ° 35 km/h 739 m -9.8 m/s 403.40 MHz Zwettl (AT) 0.00 km FOUND
S2430018 RS41 2021-08-01 04:03:37 49.0356 15.1617 322 ° 22 km/h 760 m -9.5 m/s 403.40 MHz Litschau (AT) 0.00 km UNKNOWN
S2430028 RS41 2021-07-31 04:42:56 48.5932 15.5156 95 ° 30 km/h 640 m -2.0 m/s 405.10 MHz Gföhl (AT) 0.00 km FOUND
S2430022 RS41 2021-07-30 04:13:07 48.4043 15.3575 310 ° 4 km/h 748 m -6.9 m/s 403.40 MHz Pöggstall (AT) 0.00 km FOUND
S2421514 RS41 2021-07-29 04:15:55 48.3334 15.1937 76 ° 4 km/h 767 m -7.3 m/s 405.10 MHz Pöggstall (AT) 0.00 km FOUND
S2420238 RS41 2021-07-28 04:01:04 48.5893 14.9597 146 ° 20 km/h 870 m -6.7 m/s 403.40 MHz Grossgerungs (AT) 0.00 km UNKNOWN
S2420229 RS41 2021-07-27 04:05:59 48.6355 14.9806 79 ° 15 km/h 741 m -8.9 m/s 403.40 MHz Grossgerungs (AT) 0.00 km UNKNOWN
S2430555 RS41 2021-07-26 03:56:31 48.4391 14.6954 128 ° 13 km/h 860 m -8.8 m/s 403.40 MHz Unterweissenbach (AT) 0.00 km UNKNOWN
S2421541 RS41 2021-07-25 04:54:05 48.5598 15.0592 149 ° 11 km/h 893 m -2.8 m/s 403.40 MHz Grossgerungs (AT) 0.00 km FOUND
S2430021 RS41 2021-07-24 03:56:53 47.9512 14.788 20 ° 13 km/h 774 m -11.6 m/s 403.40 MHz Waidhofen an der Ybbs (AT) 0.00 km UNKNOWN
S2420239 RS41 2021-07-23 04:18:27 48.2658 14.597 299 ° 4 km/h 380 m -8.4 m/s 403.40 MHz Schwertberg (AT) 0.00 km FOUND
S2430554 RS41 2021-07-22 04:03:44 48.1418 14.499 269 ° 15 km/h 423 m -8.4 m/s 403.40 MHz Ernsthofen (AT) 0.00 km UNKNOWN
S2430020 RS41 2021-07-21 04:06:32 47.7864 14.9599 135 ° 11 km/h 1604 m -6.1 m/s 403.40 MHz Ybbsitz (AT) 0.00 km UNKNOWN
S2421555 RS41 2021-07-20 06:09:35 48.3235 15.3958 245 ° 6 km/h 449 m -9.5 m/s 403.40 MHz Melk (AT) 0.00 km UNKNOWN
S2420148 RS41 2021-07-20 05:51:17 48.3372 15.13 170 ° 19 km/h 977 m -10.0 m/s 405.10 MHz Pöggstall (AT) 0.00 km UNKNOWN
S2540421 RS41 2021-07-19 04:19:06 48.0175 14.4596 71 ° 22 km/h 566 m -10.5 m/s 403.40 MHz Sankt Ulrich bei Steyr (AT) 0.00 km FOUND
S2421557 RS41 2021-07-18 04:26:08 47.944 13.7497 275 ° 2 km/h 598 m -4.6 m/s 405.10 MHz Pinsdorf (AT) 0.00 km UNKNOWN
S2421569 RS41 2021-07-17 04:36:22 48.0267 13.4292 159 ° 31 km/h 878 m -3.4 m/s 405.10 MHz Frankenmarkt (AT) 0.00 km FOUND
S2540524 RS41 2021-07-16 03:27:06 48.5598 14.2677 256 ° 15 km/h 1204 m -6.3 m/s 403.40 MHz Vorderweissenbach (AT) 0.00 km FOUND
S2430790 RS41 2021-07-15 04:12:16 48.6489 14.1782 63 ° 15 km/h 957 m -3.7 m/s 405.10 MHz Vorderweissenbach (AT) 0.00 km UNKNOWN
S2430792 RS41 2021-07-14 05:22:13 49.7477 13.7284 63 ° 20 km/h 705 m -3.8 m/s 403.40 MHz Rokycany (CZ) 0.00 km FOUND
S2420236 RS41 2021-07-14 04:27:06 49.0111 13.8698 327 ° 15 km/h 1351 m -8.5 m/s 405.10 MHz Vimperk (CZ) 0.00 km FOUND
S2420235 RS41 2021-07-13 04:03:35 48.5766 14.5449 245 ° 9 km/h 893 m -6.9 m/s 403.40 MHz Rainbach im Mühlkreis (AT) 0.00 km UNKNOWN
S2430788 RS41 2021-07-12 04:27:46 48.12 15.4298 123 ° 2 km/h 361 m -5.1 m/s 403.40 MHz Kilb (AT) 0.00 km UNKNOWN
S2421556 RS41 2021-07-11 04:06:37 48.5491 14.1931 105 ° 22 km/h 892 m -9.6 m/s 403.40 MHz Vorderweissenbach (AT) 0.00 km FOUND
S2430787 RS41 2021-07-10 04:28:48 48.3682 15.0096 100 ° 28 km/h 1015 m -3.5 m/s 403.40 MHz Waldhausen im Strudengau (AT) 0.00 km UNKNOWN
S2430763 RS41 2021-07-09 13:58:53 48.7132 14.8087 72 ° 28 km/h 831 m -5.9 m/s 403.40 MHz Weitra (AT) 0.00 km UNKNOWN
S2430024 RS41 2021-07-08 04:26:35 48.8996 14.5924 271 ° 9 km/h 701 m -4.0 m/s 403.40 MHz Trhové Sviny (CZ) 0.00 km UNKNOWN
S2420091 RS41 2021-07-07 04:03:45 48.7141 14.8931 102 ° 22 km/h 628 m -10.6 m/s 403.40 MHz Weitra (AT) 0.00 km UNKNOWN
S2421542 RS41 2021-07-06 03:53:22 48.2086 14.9208 276 ° 19 km/h 571 m -13.9 m/s 403.40 MHz Grein (AT) 0.00 km FOUND
S2430791 RS41 2021-07-05 04:08:18 48.3308 14.6123 69 ° 19 km/h 505 m -13.0 m/s 405.10 MHz Tragwein (AT) 0.00 km FOUND
S2420233 RS41 2021-07-04 04:31:07 48.2911 14.7856 67 ° 11 km/h 597 m -6.3 m/s 403.40 MHz Grein (AT) 0.00 km UNKNOWN
S2420234 RS41 2021-07-03 04:16:42 47.7433 14.6794 121 ° 22 km/h 1439 m -13.1 m/s 405.10 MHz Landl (AT) 0.00 km UNKNOWN
S2421538 RS41 2021-07-02 04:00:40 47.9594 14.5715 95 ° 20 km/h 814 m -9.4 m/s 403.40 MHz Grossraming (AT) 0.00 km UNKNOWN
S2430789 RS41 2021-07-01 03:52:35 48.4469 14.819 60 ° 28 km/h 1021 m -9.2 m/s 405.10 MHz Unterweissenbach (AT) 0.00 km UNKNOWN
S2420231 RS41 2021-06-30 04:14:03 48.743 14.9057 302 ° 4 km/h 543 m -8.1 m/s 403.40 MHz Weitra (AT) 0.00 km FOUND
S2420232 RS41 2021-06-29 04:20:43 48.5926 14.9491 144 ° 13 km/h 778 m -6.1 m/s 403.40 MHz Grossgerungs (AT) 0.00 km FOUND
S2430767 RS41 2021-06-28 04:12:54 48.2036 14.7974 179 ° 4 km/h 367 m -8.8 m/s 403.40 MHz Ardagger Markt (AT) 0.00 km FOUND
S2421539 RS41 2021-06-27 04:25:11 48.0877 14.8911 284 ° 9 km/h 383 m -7.2 m/s 403.40 MHz Euratsfeld (AT) 0.00 km UNKNOWN
S2430019 RS41 2021-06-26 04:35:25 48.1591 14.7318 122 ° 11 km/h 338 m -3.7 m/s 403.40 MHz Ardagger Markt (AT) 0.00 km FOUND
S2430764 RS41 2021-06-25 04:20:26 48.8801 14.7529 65 ° 31 km/h 722 m -4.1 m/s 403.40 MHz Trhové Sviny (CZ) 0.00 km LOST
S2430023 RS41 2021-06-24 04:23:03 48.9274 14.8093 71 ° 9 km/h 605 m -3.7 m/s 403.40 MHz Třeboň (CZ) 0.00 km UNKNOWN
S2421537 RS41 2021-06-23 04:02:33 48.7382 14.6963 107 ° 2 km/h 1013 m -12.0 m/s 405.10 MHz Trhové Sviny (CZ) 0.00 km UNKNOWN
S2430768 RS41 2021-06-22 03:59:25 48.5297 14.7469 81 ° 19 km/h 1004 m -11.4 m/s 405.10 MHz Unterweissenbach (AT) 0.00 km UNKNOWN
S2420230 RS41 2021-06-20 04:24:31 47.9086 14.635 74 ° 11 km/h 1026 m -3.4 m/s 405.10 MHz Weyer Markt (AT) 0.00 km UNKNOWN
S2540489 RS41 2021-06-19 04:46:17 47.9109 14.3406 73 ° 6 km/h 865 m -3.7 m/s 403.40 MHz Ternberg (AT) 0.00 km UNKNOWN
S2430027 RS41 2021-06-18 04:38:59 48.3198 13.2607 298 ° 9 km/h 406 m -3.8 m/s 403.40 MHz Altheim (AT) 0.00 km FOUND
S2430011 RS41 2021-06-17 04:04:19 48.1969 13.5382 294 ° 22 km/h 553 m -8.7 m/s 403.40 MHz Hohenzell (AT) 0.00 km UNKNOWN
S2430029 RS41 2021-06-16 04:22:33 47.503 13.7839 251 ° 6 km/h 2236 m -8.0 m/s 403.40 MHz Gröbming (AT) 0.00 km UNKNOWN
S2421568 RS41 2021-06-15 04:02:03 47.6992 14.0181 136 ° 20 km/h 2200 m -10.2 m/s 403.40 MHz Stainach (AT) 0.00 km UNKNOWN
S2430010 RS41 2021-06-14 03:56:47 47.3795 14.2931 137 ° 44 km/h 2170 m -8.5 m/s 403.40 MHz Rottenmann (AT) 0.00 km UNKNOWN
S2540408 RS41 2021-06-13 04:37:45 47.0091 15.239 312 ° 13 km/h 526 m -3.3 m/s 403.40 MHz Krottendorf bei Ligist (AT) 0.00 km FOUND
S2421516 RS41 2021-06-12 04:08:36 47.546 14.1163 45 ° 11 km/h 1025 m -8.9 m/s 403.40 MHz Stainach (AT) 0.00 km UNKNOWN
S2530233 RS41 2021-06-11 04:04:01 47.7717 14.2018 106 ° 20 km/h 1548 m -5.7 m/s 403.40 MHz Windischgarsten (AT) 0.00 km UNKNOWN
S2540542 RS41 2021-06-10 03:51:13 47.7827 14.2964 156 ° 15 km/h 1741 m -7.3 m/s 403.40 MHz Windischgarsten (AT) 0.00 km UNKNOWN
S2540516 RS41 2021-06-09 04:27:26 47.9431 14.2571 290 ° 9 km/h 626 m -3.9 m/s 403.40 MHz Gründberg (AT) 0.00 km UNKNOWN
S2540544 RS41 2021-06-08 04:23:09 48.1304 14.1732 44 ° 7 km/h 433 m -3.9 m/s 403.40 MHz Kematen an der Krems (AT) 0.00 km LOST
S2540422 RS41 2021-06-07 04:26:52 48.1996 14.0025 81 ° 2 km/h 422 m -4.0 m/s 403.40 MHz Buchkirchen (AT) 0.00 km UNKNOWN
S2540514 RS41 2021-06-06 04:17:23 48.2184 14.2966 84 ° 15 km/h 327 m -3.5 m/s 403.40 MHz Ansfelden (AT) 0.00 km FOUND
S2540490 RS41 2021-06-05 04:05:52 48.0777 14.4216 88 ° 6 km/h 487 m -5.2 m/s 403.40 MHz Dietach (AT) 0.00 km UNKNOWN
S2530234 RS41 2021-06-04 03:59:00 47.9752 14.4787 285 ° 7 km/h 887 m -7.3 m/s 403.40 MHz Sankt Ulrich bei Steyr (AT) 0.00 km UNKNOWN
S2540491 RS41 2021-06-03 03:42:16 47.7741 14.5314 360 ° 6 km/h 1102 m -7.0 m/s 403.40 MHz Grossraming (AT) 0.00 km UNKNOWN
S2540541 RS41 2021-06-01 04:13:57 47.6157 14.1179 197 ° 19 km/h 2231 m -5.1 m/s 405.10 MHz Stainach (AT) 0.00 km UNKNOWN
S2540523 RS41 2021-05-31 04:29:06 47.6053 13.8687 169 ° 11 km/h 2291 m -3.4 m/s 403.40 MHz Bad Aussee (AT) 0.00 km UNKNOWN
S2421513 RS41 2021-05-30 04:05:13 47.5243 14.0753 132 ° 43 km/h 2374 m -7.2 m/s 403.40 MHz Stainach (AT) 0.00 km UNKNOWN
S2540487 RS41 2021-05-29 04:02:30 47.8463 15.8973 165 ° 20 km/h 1079 m -4.8 m/s 403.40 MHz Puchberg am Schneeberg (AT) 0.00 km UNKNOWN
S2530587 RS41 2021-05-28 04:03:02 47.6728 14.8837 131 ° 35 km/h 1913 m -4.1 m/s 403.40 MHz Landl (AT) 0.00 km UNKNOWN
S2540488 RS41 2021-05-27 03:50:46 48.4569 15.2264 89 ° 24 km/h 893 m -7.6 m/s 403.40 MHz Pöggstall (AT) 0.00 km LOST
S2421515 RS41 2021-05-25 03:54:20 48.9137 15.2683 101 ° 24 km/h 584 m -7.8 m/s 403.40 MHz Waidhofen an der Thaya (AT) 0.00 km FOUND
S2540423 RS41 2021-05-24 03:58:00 48.4986 15.5846 277 ° 11 km/h 547 m -6.4 m/s 403.40 MHz Gföhl (AT) 0.00 km FOUND
S2530586 RS41 2021-05-23 03:53:17 48.5553 15.861 42 ° 31 km/h 494 m -8.2 m/s 403.40 MHz Ziersdorf (AT) 0.00 km FOUND
S2530585 RS41 2021-05-22 03:50:39 48.5292 15.4373 95 ° 33 km/h 764 m -8.3 m/s 403.40 MHz Gföhl (AT) 0.00 km FOUND
S2530290 RS41 2021-05-21 03:46:31 47.8159 15.2825 82 ° 31 km/h 1845 m -8.3 m/s 403.40 MHz Mariazell (AT) 0.00 km UNKNOWN
S2540545 RS41 2021-05-20 03:45:22 48.0913 14.4926 94 ° 20 km/h 451 m -7.6 m/s 403.40 MHz Haidershofen (AT) 0.00 km UNKNOWN
S2530244 RS41 2021-05-19 04:04:17 48.4087 15.0095 342 ° 17 km/h 1009 m -3.4 m/s 403.40 MHz Königswiesen (AT) 0.00 km LOST
R2450901 RS41 2021-05-18 04:08:24 48.1193 15.1867 86 ° 46 km/h 466 m -6.2 m/s 403.40 MHz Wieselburg (AT) 0.00 km FOUND
R2450903 RS41 2021-05-17 03:29:33 48.4533 14.9961 80 ° 33 km/h 1024 m -4.8 m/s 403.40 MHz Königswiesen (AT) 0.00 km UNKNOWN
R2510148 RS41 2021-05-16 04:02:49 48.2762 15.262 85 ° 35 km/h 585 m -8.8 m/s 403.40 MHz Pöggstall (AT) 0.00 km FOUND
R2510144 RS41 2021-05-15 03:58:15 48.4701 14.5216 356 ° 11 km/h 682 m -11.5 m/s 403.40 MHz Lasberg (AT) 0.00 km FOUND
R2450911 RS41 2021-05-14 04:29:28 48.2958 14.3923 86 ° 30 km/h 417 m -5.6 m/s 403.40 MHz Steyregg (AT) 0.00 km FOUND
R2510150 RS41 2021-05-13 04:06:07 48.4506 13.7747 105 ° 33 km/h 702 m -7.7 m/s 403.40 MHz Natternbach (AT) 0.00 km UNKNOWN
R2450912 RS41 2021-05-12 05:26:55 49.422 13.484 77 ° 28 km/h 673 m -2.3 m/s 403.40 MHz Klatovy (CZ) 0.00 km UNKNOWN
S2420137 RS41 2021-05-11 03:52:18 48.7131 14.4376 1 ° 31 km/h 871 m -11.3 m/s 403.40 MHz Kaplice (CZ) 0.00 km UNKNOWN
S2420119 RS41 2021-05-10 03:55:46 48.5579 14.6405 28 ° 13 km/h 1077 m -8.4 m/s 403.40 MHz Sankt Oswald bei Freistadt (AT) 0.00 km UNKNOWN
S2420898 RS41 2021-05-09 04:17:25 47.8417 15.3617 13 ° 15 km/h 1334 m -3.2 m/s 405.10 MHz Mariazell (AT) 0.00 km UNKNOWN
S2420972 RS41 2021-05-08 04:05:52 47.7312 16.0396 128 ° 4 km/h 504 m -10.1 m/s 403.40 MHz Ternitz (AT) 0.00 km FOUND
S2421117 RS41 2021-05-07 04:20:23 48.5047 16.9141 36 ° 22 km/h 224 m -3.3 m/s 403.40 MHz Dürnkrut (AT) 0.00 km LOST
R2510140 RS41 2021-05-06 04:13:02 48.3174 16.5515 104 ° 20 km/h 242 m -12.0 m/s 403.40 MHz Deutsch-Wagram (AT) 0.00 km FOUND
S2420896 RS41 2021-05-05 04:03:52 48.5381 15.7223 32 ° 9 km/h 488 m -4.2 m/s 403.40 MHz Gars am Kamp (AT) 0.00 km FOUND
S2420161 RS41 2021-05-04 03:42:14 48.1449 15.3714 95 ° 2 km/h 388 m -8.9 m/s 403.40 MHz Mank (AT) 0.00 km FOUND
S2421053 RS41 2021-05-03 03:55:54 48.4236 15.68 83 ° 11 km/h 280 m -9.5 m/s 403.40 MHz Gedersdorf (AT) 0.00 km FOUND
S2420971 RS41 2021-05-02 03:49:43 48.7362 15.2855 89 ° 39 km/h 648 m -7.7 m/s 403.40 MHz Vitis (AT) 0.00 km FOUND
S2420899 RS41 2021-05-01 03:22:47 48.4752 15.2568 123 ° 24 km/h 871 m -8.0 m/s 403.40 MHz Zwettl (AT) 0.00 km FOUND
S2420900 RS41 2021-04-30 03:49:30 48.4957 15.5182 82 ° 15 km/h 611 m -5.8 m/s 403.40 MHz Gföhl (AT) 0.00 km FOUND
R2450893 RS41 2021-04-29 03:43:09 48.4895 15.1301 278 ° 13 km/h 855 m -3.4 m/s 403.40 MHz Zwettl (AT) 0.00 km FOUND
R2450891 RS41 2021-04-28 04:15:59 48.2345 15.6714 236 ° 15 km/h 315 m -2.7 m/s 403.40 MHz Sankt Pölten (AT) 0.00 km FOUND
S2420895 RS41 2021-04-27 03:57:12 48.0666 15.8755 272 ° 22 km/h 714 m -6.8 m/s 403.40 MHz Hainfeld (AT) 0.00 km FOUND
R2450894 RS41 2021-04-26 04:06:30 47.7451 16.2277 353 ° 15 km/h 355 m -3.5 m/s 403.40 MHz Lanzenkirchen (AT) 0.00 km FOUND
R2450896 RS41 2021-04-25 04:33:11 47.7061 16.3585 167 ° 13 km/h 457 m -2.3 m/s 403.40 MHz Wiesen (AT) 0.00 km UNKNOWN
S2420162 RS41 2021-04-24 04:16:17 47.6582 15.3221 17 ° 4 km/h 1518 m -3.2 m/s 403.40 MHz Mariazell (AT) 0.00 km UNKNOWN
S2421121 RS41 2021-04-23 04:35:19 47.3325 15.135 110 ° 30 km/h 1424 m -2.4 m/s 403.40 MHz Leoben (AT) 0.00 km UNKNOWN
S2421054 RS41 2021-04-22 04:39:59 48.0037 15.384 67 ° 22 km/h 667 m -3.1 m/s 403.40 MHz Kirchberg an der Pielach (AT) 0.00 km FOUND
S2421051 RS41 2021-04-21 03:45:12 48.0454 14.5068 305 ° 6 km/h 475 m -8.2 m/s 403.40 MHz Behamberg (AT) 0.00 km FOUND
S2421119 RS41 2021-04-20 04:04:08 48.016 14.0079 72 ° 20 km/h 543 m -12.4 m/s 403.40 MHz Eberstallzell (AT) 0.00 km FOUND
S2420897 RS41 2021-04-19 03:47:46 48.1667 14.0857 62 ° 9 km/h 363 m -7.9 m/s 403.40 MHz Weisskirchen an der Traun (AT) 0.00 km FOUND
S2420082 RS41 2021-04-18 04:20:01 48.4045 14.3282 135 ° 2 km/h 796 m -2.8 m/s 403.40 MHz Hellmonsödt (AT) 0.00 km NEED ATTENTION
S2420079 RS41 2021-04-17 04:16:13 48.3121 14.3787 78 ° 6 km/h 479 m -2.9 m/s 403.40 MHz Steyregg (AT) 0.00 km FOUND
S2411342 RS41 2021-04-16 04:38:42 48.1612 14.2745 111 ° 13 km/h 408 m -3.9 m/s 403.40 MHz Sankt Marien (AT) 0.00 km FOUND
S2411341 RS41 2021-04-15 04:22:52 48.2055 14.5499 358 ° 4 km/h 319 m -2.2 m/s 403.40 MHz Sankt Pantaleon (AT) 0.00 km FOUND
S2421118 RS41 2021-04-14 04:00:25 48.2462 14.5671 84 ° 13 km/h 300 m -8.8 m/s 403.40 MHz Schwertberg (AT) 0.00 km FOUND
S2420031 RS41 2021-04-13 04:27:23 48.869 14.934 132 ° 15 km/h 534 m -3.2 m/s 403.40 MHz Litschau (AT) 0.00 km FOUND
S2420081 RS41 2021-04-12 04:08:07 48.7694 15.2696 117 ° 6 km/h 636 m -10.7 m/s 403.40 MHz Waidhofen an der Thaya (AT) 0.00 km FOUND
S2421052 RS41 2021-04-11 04:05:58 48.541 15.4076 218 ° 6 km/h 665 m -4.1 m/s 403.40 MHz Gföhl (AT) 0.00 km FOUND
S2420907 RS41 2021-04-10 04:05:12 48.135 15.4939 98 ° 6 km/h 339 m -3.1 m/s 403.40 MHz Obergrafendorf (AT) 0.00 km FOUND
S2420083 RS41 2021-04-09 03:53:18 47.7567 15.3701 306 ° 9 km/h 1174 m -4.6 m/s 403.40 MHz Mariazell (AT) 0.00 km UNKNOWN
S2411340 RS41 2021-04-08 04:03:02 47.5499 15.751 148 ° 19 km/h 1559 m -3.4 m/s 403.40 MHz Mürzzuschlag (AT) 0.00 km FOUND
S2421056 RS41 2021-04-07 03:47:05 48.1522 15.586 92 ° 15 km/h 344 m -9.3 m/s 403.40 MHz Obergrafendorf (AT) 0.00 km FOUND
S2420005 RS41 2021-04-06 05:04:06 48.3722 16.1625 114 ° 26 km/h 241 m -1.6 m/s 403.40 MHz Stockerau (AT) 0.00 km NEED ATTENTION
S2411343 RS41 2021-04-05 05:28:03 47.7204 15.0018 28 ° 19 km/h 1225 m -2.3 m/s 403.40 MHz Eisenerz (AT) 0.00 km UNKNOWN
S2420001 RS41 2021-04-04 04:51:36 47.4115 13.9428 125 ° 33 km/h 1370 m -6.4 m/s 403.40 MHz Gröbming (AT) 0.00 km UNKNOWN
R2450933 RS41 2021-04-03 04:33:20 47.7638 14.9959 122 ° 35 km/h 1699 m -7.5 m/s 403.40 MHz Gaming (AT) 0.00 km UNKNOWN
R2450890 RS41 2021-04-02 05:09:49 47.5242 15.018 112 ° 22 km/h 1701 m -4.5 m/s 403.40 MHz Eisenerz (AT) 0.00 km UNKNOWN
R2450892 RS41 2021-04-01 05:13:23 48.0149 14.6671 325 ° 4 km/h 532 m -3.1 m/s 403.40 MHz Biberbach (AT) 0.00 km FOUND
S2421122 RS41 2021-03-31 05:03:52 48.1366 13.9935 297 ° 6 km/h 399 m -4.5 m/s 403.40 MHz Wels (AT) 0.00 km UNKNOWN
S2420080 RS41 2021-03-30 05:02:08 47.7314 14.1216 135 ° 20 km/h 2017 m -9.3 m/s 403.40 MHz Windischgarsten (AT) 0.00 km UNKNOWN
R2450931 RS41 2021-03-29 04:42:15 47.5488 14.5075 121 ° 26 km/h 2176 m -10.0 m/s 403.40 MHz Admont (AT) 0.00 km UNKNOWN
S2420002 RS41 2021-03-28 04:41:22 47.7842 15.1198 101 ° 24 km/h 1538 m -6.6 m/s 403.40 MHz Mariazell (AT) 0.00 km UNKNOWN
S2411344 RS41 2021-03-27 04:43:31 48.256 15.0136 28 ° 4 km/h 674 m -10.7 m/s 403.40 MHz Waldhausen im Strudengau (AT) 0.00 km FOUND
S2420006 RS41 2021-03-26 05:20:04 48.1211 14.8458 77 ° 11 km/h 390 m -4.1 m/s 403.40 MHz Amstetten (AT) 0.00 km FOUND
S2411339 RS41 2021-03-25 05:04:13 47.725 14.456 127 ° 22 km/h 1456 m -3.1 m/s 403.40 MHz Windischgarsten (AT) 0.00 km UNKNOWN
S2420003 RS41 2021-03-24 04:50:20 47.8357 14.1442 108 ° 4 km/h 898 m -8.4 m/s 403.40 MHz Micheldorf in Oberösterreich (AT) 0.00 km UNKNOWN
R2510440 RS41 2021-03-23 04:45:56 47.7286 14.1197 175 ° 15 km/h 2003 m -8.8 m/s 403.40 MHz Windischgarsten (AT) 0.00 km UNKNOWN
R2510142 RS41 2021-03-22 12:04:58 47.2243 13.6584 161 ° 78 km/h 3290 m -6.8 m/s 403.40 MHz Mariapfarr (AT) 0.00 km UNKNOWN
R2450906 RS41 2021-03-21 04:35:56 47.7256 13.8692 89 ° 20 km/h 1734 m -8.5 m/s 403.40 MHz Ebensee (AT) 0.00 km UNKNOWN
R2510442 RS41 2021-03-20 04:35:00 47.5774 13.7032 154 ° 19 km/h 2002 m -9.7 m/s 403.40 MHz Bad Aussee (AT) 0.00 km UNKNOWN
R2450937 RS41 2021-03-19 05:05:27 47.7528 14.2789 121 ° 15 km/h 1694 m -4.1 m/s 403.40 MHz Windischgarsten (AT) 0.00 km UNKNOWN
R2510154 RS41 2021-03-18 04:40:45 47.8357 14.2068 178 ° 15 km/h 989 m -7.4 m/s 403.40 MHz Molln (AT) 0.00 km UNKNOWN
R2450938 RS41 2021-03-17 05:01:37 47.5432 14.518 157 ° 20 km/h 2111 m -4.7 m/s 403.40 MHz Admont (AT) 0.00 km UNKNOWN
R2510443 RS41 2021-03-16 05:04:31 47.6225 14.7533 129 ° 57 km/h 1519 m -4.9 m/s 403.40 MHz Landl (AT) 0.00 km UNKNOWN
R2450904 RS41 2021-03-15 04:40:25 47.8893 14.7579 89 ° 19 km/h 1000 m -8.2 m/s 403.40 MHz Waidhofen an der Ybbs (AT) 0.00 km UNKNOWN
R2450905 RS41 2021-03-14 04:45:08 48.3583 15.6865 54 ° 20 km/h 456 m -5.0 m/s 403.40 MHz Traismauer (AT) 0.00 km NEED ATTENTION
R2510444 RS41 2021-03-13 04:50:09 47.9232 15.9521 353 ° 15 km/h 886 m -13.7 m/s 403.40 MHz Pernitz (AT) 0.00 km FOUND
R2450934 RS41 2021-03-12 05:27:13 48.134 17.4843 89 ° 33 km/h 193 m -4.0 m/s 403.40 MHz Jelka (SK) 0.00 km NEED ATTENTION
R2520715 RS41 2021-03-11 04:56:36 47.2472 15.2336 91 ° 6 km/h 1183 m -3.9 m/s 403.40 MHz Frohnleiten (AT) 0.00 km FOUND
R2450948 RS41 2021-03-10 05:01:03 47.5948 15.2537 164 ° 9 km/h 1515 m -1.6 m/s 403.40 MHz Thörl (AT) 0.00 km UNKNOWN
R2510204 RS41 2021-03-09 05:05:20 47.9254 15.3703 298 ° 9 km/h 770 m -4.1 m/s 403.40 MHz Kirchberg an der Pielach (AT) 0.00 km UNKNOWN
R2510349 RS41 2021-03-08 05:19:38 47.7424 15.7763 142 ° 28 km/h 885 m -3.7 m/s 403.40 MHz Reichenau (AT) 0.00 km UNKNOWN
R2510352 RS41 2021-03-07 04:52:00 47.8107 15.168 142 ° 6 km/h 1453 m -4.2 m/s 403.40 MHz Mariazell (AT) 0.00 km UNKNOWN
R2510413 RS41 2021-03-06 04:46:07 47.6696 14.7385 245 ° 9 km/h 1663 m -5.9 m/s 403.40 MHz Landl (AT) 0.00 km UNKNOWN
R2510414 RS41 2021-03-05 04:54:20 48.2703 15.7677 91 ° 33 km/h 273 m -8.1 m/s 403.40 MHz Herzogenburg (AT) 0.00 km FOUND
R2530439 RS41 2021-03-04 04:53:42 48.145 15.1062 96 ° 24 km/h 370 m -2.6 m/s 403.40 MHz Wieselburg (AT) 0.00 km LOST
R2510350 RS41 2021-03-03 05:19:56 48.2213 14.7637 81 ° 7 km/h 415 m -2.3 m/s 403.40 MHz Grein (AT) 0.00 km LOST
R2450895 RS41 2021-03-02 05:26:07 48.1459 13.9446 253 ° 17 km/h 425 m -2.9 m/s 403.40 MHz Gunskirchen (AT) 0.00 km UNKNOWN
R2510351 RS41 2021-03-01 05:19:05 47.6644 14.0441 239 ° 26 km/h 2360 m -4.8 m/s 403.40 MHz Stainach (AT) 0.00 km UNKNOWN
R2510409 RS41 2021-02-28 04:47:48 47.8491 14.0874 159 ° 26 km/h 1286 m -10.2 m/s 403.40 MHz Micheldorf in Oberösterreich (AT) 0.00 km UNKNOWN
R2510441 RS41 2021-02-27 05:11:21 47.9248 15.8376 184 ° 15 km/h 1013 m -2.4 m/s 403.40 MHz Pernitz (AT) 0.00 km NEED ATTENTION
R2510439 RS41 2021-02-26 04:06:30 48.3125 14.7391 75 ° 9 km/h 759 m -7.5 m/s 403.40 MHz Tragwein (AT) 0.00 km FOUND
R2520732 RS41 2021-02-25 04:44:54 48.34 14.3339 147 ° 2 km/h 383 m -2.3 m/s 403.40 MHz Altenberg bei Linz (AT) 0.00 km FOUND
R2450922 RS41 2021-02-24 04:59:07 47.7304 14.0698 116 ° 2 km/h 2099 m -3.5 m/s 403.40 MHz Micheldorf in Oberösterreich (AT) 0.00 km UNKNOWN
R2510165 RS41 2021-02-23 05:14:03 48.17 14.9234 57 ° 6 km/h 404 m -2.1 m/s 403.40 MHz Sankt Georgen am Ybbsfelde (AT) 0.00 km FOUND
R2450921 RS41 2021-02-22 04:46:32 48.5759 14.5285 23 ° 11 km/h 893 m -8.3 m/s 403.40 MHz Rainbach im Mühlkreis (AT) 0.00 km UNKNOWN
R2510446 RS41 2021-02-21 04:38:17 48.0079 14.3246 305 ° 7 km/h 520 m -4.9 m/s 403.40 MHz Aschach an der Steyr (AT) 0.00 km LOST
R2450880 RS41 2021-02-20 05:00:54 47.5634 14.8226 131 ° 30 km/h 1877 m -4.1 m/s 403.40 MHz Eisenerz (AT) 0.00 km UNKNOWN
R2510384 RS41 2021-02-19 05:20:22 48.1115 15.7827 100 ° 24 km/h 599 m -2.5 m/s 403.40 MHz Kirchstetten (AT) 0.00 km NEED ATTENTION
R2510164 RS41 2021-02-18 04:38:18 47.6351 15.0106 103 ° 7 km/h 1565 m -8.0 m/s 403.40 MHz Eisenerz (AT) 0.00 km UNKNOWN
R2520741 RS41 2021-02-17 05:28:03 47.8595 16.134 169 ° 4 km/h 521 m -2.1 m/s 403.40 MHz Markt Piesting (AT) 0.00 km FOUND
R2510348 RS41 2021-02-16 04:51:54 47.1396 15.2051 38 ° 7 km/h 1148 m -4.8 m/s 403.40 MHz Eisbach (AT) 0.00 km FOUND
R2520713 RS41 2021-02-15 05:20:44 46.7775 14.5531 261 ° 6 km/h 894 m -2.5 m/s 403.40 MHz Brückl (AT) 0.00 km FOUND
R2520695 RS41 2021-02-14 04:40:09 47.554 14.2679 215 ° 41 km/h 2185 m -8.8 m/s 403.40 MHz Liezen (AT) 0.00 km FOUND
R2450935 RS41 2021-02-13 04:39:59 47.838 15.0583 186 ° 7 km/h 1249 m -6.7 m/s 403.40 MHz Gaming (AT) 0.00 km UNKNOWN
R2450936 RS41 2021-02-12 04:47:44 47.6173 15.694 166 ° 33 km/h 1317 m -9.9 m/s 403.40 MHz Mürzzuschlag (AT) 0.00 km UNKNOWN
R2450871 RS41 2021-02-11 04:54:26 48.248 15.603 116 ° 22 km/h 361 m -3.9 m/s 403.40 MHz Sankt Pölten (AT) 0.00 km FOUND
R2440570 RS41 2021-02-10 05:00:43 48.5153 15.6461 7 ° 17 km/h 463 m -2.6 m/s 403.40 MHz Langenlois (AT) 0.00 km FOUND
R2520736 RS41 2021-02-09 05:07:26 48.6259 16.0954 108 ° 4 km/h 308 m -4.2 m/s 403.40 MHz Wullersdorf (AT) 0.00 km LOST
R2530446 RS41 2021-02-08 04:49:16 48.6693 15.016 85 ° 37 km/h 845 m -5.4 m/s 403.40 MHz Weitra (AT) 0.00 km NEED ATTENTION
R2510945 RS41 2021-02-07 04:49:53 48.6908 15.975 237 ° 33 km/h 338 m -5.6 m/s 403.40 MHz Zellerndorf (AT) 0.00 km FOUND
R2530442 RS41 2021-02-06 04:45:22 48.2337 15.8236 224 ° 7 km/h 397 m -6.3 m/s 403.40 MHz Kirchstetten (AT) 0.00 km FOUND
R2530447 RS41 2021-02-05 05:23:11 48.1417 16.7555 247 ° 17 km/h 204 m -3.0 m/s 403.40 MHz Leopoldsdorf im Marchfelde (AT) 0.00 km FOUND
R2530444 RS41 2021-02-04 05:23:33 47.9052 17.0708 130 ° 35 km/h 203 m -2.8 m/s 405.10 MHz Hegyeshalom (HU) 0.00 km FOUND
R2530455 RS41 2021-02-04 04:42:41 47.974 16.6718 115 ° 30 km/h 386 m -5.5 m/s 403.40 MHz Mannersdorf am Leithagebirge (AT) 0.00 km FOUND
R2530453 RS41 2021-02-03 05:18:35 47.7083 16.5297 195 ° 9 km/h 297 m -3.5 m/s 403.40 MHz Schattendorf (AT) 0.00 km UNKNOWN
R2530441 RS41 2021-02-02 05:07:14 47.6487 15.2319 83 ° 31 km/h 1676 m -2.7 m/s 403.40 MHz Thörl (AT) 0.00 km UNKNOWN
R2530443 RS41 2021-02-01 05:00:03 48.0093 14.9917 272 ° 6 km/h 660 m -2.9 m/s 403.40 MHz Steinakirchen am Forst (AT) 0.00 km FOUND
R2530466 RS41 2021-01-31 05:07:32 48.1086 15.5477 84 ° 4 km/h 404 m -3.0 m/s 403.40 MHz Wilhelmsburg (AT) 0.00 km NEED ATTENTION
R2530462 RS41 2021-01-30 04:58:52 47.2633 15.6983 93 ° 19 km/h 780 m -4.9 m/s 403.40 MHz Anger (AT) 0.00 km FOUND
R2530445 RS41 2021-01-29 05:29:58 47.2273 16.4505 320 ° 7 km/h 317 m -1.6 m/s 403.40 MHz Rechnitz (AT) 0.00 km FOUND
R2530465 RS41 2021-01-28 04:55:30 46.6113 15.1777 68 ° 19 km/h 783 m -8.5 m/s 403.40 MHz Muta (SI) 0.00 km UNKNOWN
R2510355 RS41 2021-01-27 04:57:31 46.949 14.9343 107 ° 13 km/h 1306 m -6.5 m/s 403.40 MHz Bad Sankt Leonhard im Lavanttal (AT) 0.00 km FOUND
R2510357 RS41 2021-01-26 04:57:53 47.7295 15.0135 136 ° 28 km/h 1387 m -5.8 m/s 405.10 MHz Eisenerz (AT) 0.00 km UNKNOWN
R2530449 RS41 2021-01-26 04:54:16 47.6788 15.1555 105 ° 20 km/h 1145 m -2.9 m/s 403.40 MHz Mariazell (AT) 0.00 km UNKNOWN
R2530451 RS41 2021-01-25 05:04:37 48.1208 15.3109 66 ° 19 km/h 375 m -3.8 m/s 403.40 MHz Mank (AT) 0.00 km FOUND
R2510430 RS41 2021-01-24 04:46:18 48.3436 15.4225 321 ° 4 km/h 560 m -6.0 m/s 403.40 MHz Melk (AT) 0.00 km FOUND
R2510166 RS41 2021-01-23 05:33:53 49.1257 14.8455 99 ° 13 km/h 529 m -3.6 m/s 405.10 MHz Jindřichŭv Hradec (CZ) 0.00 km UNKNOWN
R2530450 RS41 2021-01-23 04:36:53 48.7966 14.8533 358 ° 7 km/h 536 m -2.0 m/s 403.40 MHz Weitra (AT) 0.00 km UNKNOWN
R2510163 RS41 2021-01-22 04:54:36 48.7514 15.7491 236 ° 4 km/h 572 m -4.4 m/s 403.40 MHz Horn (AT) 0.00 km FOUND
R2510555 RS41 2021-01-21 05:03:11 48.511 15.356 356 ° 9 km/h 772 m -4.5 m/s 403.40 MHz Gföhl (AT) 0.00 km FOUND
R2510570 RS41 2021-01-20 03:45:51 47.8083 15.8672 63 ° 15 km/h 1084 m -10.0 m/s 403.40 MHz Puchberg am Schneeberg (AT) 0.00 km UNKNOWN
R2510554 RS41 2021-01-19 04:29:05 46.9334 15.9335 64 ° 15 km/h 433 m -1.6 m/s 403.40 MHz Mühldorf bei Feldbach (AT) 0.00 km FOUND
R2450908 RS41 2021-01-18 03:40:10 47.8483 14.8073 79 ° 15 km/h 1067 m -3.1 m/s 403.40 MHz Weyer Markt (AT) 0.00 km UNKNOWN
R2450919 RS41 2021-01-17 04:12:35 47.0215 15.3244 19 ° 6 km/h 474 m -2.0 m/s 403.40 MHz Hitzendorf (AT) 0.00 km FOUND
R2450909 RS41 2021-01-16 03:36:10 47.262 14.5712 149 ° 37 km/h 1646 m -17.9 m/s 403.40 MHz Pöls (AT) 0.00 km UNKNOWN
R2450902 RS41 2021-01-15 04:14:30 47.2076 15.6543 165 ° 15 km/h 567 m -2.7 m/s 403.40 MHz Weiz (AT) 0.00 km FOUND
R2510553 RS41 2021-01-14 04:20:34 46.3118 17.316 64 ° 31 km/h 297 m -3.9 m/s 403.40 MHz Segesd (HU) 0.00 km UNKNOWN
R2451021 RS41 2021-01-13 03:44:19 47.5987 15.6943 63 ° 13 km/h 845 m -5.0 m/s 403.40 MHz Mürzzuschlag (AT) 0.00 km NEED ATTENTION
R2510128 RS41 2021-01-12 04:09:22 47.8671 15.2653 102 ° 28 km/h 1127 m -1.6 m/s 403.40 MHz Mariazell (AT) 0.00 km UNKNOWN
R2510138 RS41 2021-01-11 03:25:21 47.9553 13.9371 330 ° 7 km/h 671 m -4.1 m/s 403.40 MHz Vorchdorf (AT) 0.00 km UNKNOWN
R2450917 RS41 2021-01-10 04:02:23 48.3422 16.0775 134 ° 9 km/h 240 m -2.7 m/s 403.40 MHz Tulln (AT) 0.00 km NEED ATTENTION
R2510133 RS41 2021-01-09 04:02:30 48.1087 16.2659 89 ° 31 km/h 361 m -6.3 m/s 403.40 MHz Perchtoldsdorf (AT) 0.00 km FOUND
R2510137 RS41 2021-01-08 03:40:06 48.4341 15.5358 72 ° 9 km/h 531 m -7.0 m/s 403.40 MHz Krems an der Donau (AT) 0.00 km FOUND
R2510143 RS41 2021-01-07 03:48:42 48.1878 15.0771 102 ° 17 km/h 284 m -5.5 m/s 403.40 MHz Ybbs an der Donau (AT) 0.00 km LOST
R2510139 RS41 2021-01-06 03:55:04 48.6337 14.3719 187 ° 11 km/h 719 m -5.2 m/s 403.40 MHz Rainbach im Mühlkreis (AT) 0.00 km UNKNOWN
R2450914 RS41 2021-01-05 04:20:57 48.7217 14.3582 278 ° 7 km/h 740 m -3.3 m/s 403.40 MHz Kaplice (CZ) 0.00 km UNKNOWN
R2521248 RS41 2021-01-04 04:17:39 48.5695 14.7555 250 ° 15 km/h 1085 m -2.3 m/s 403.40 MHz Sankt Oswald bei Freistadt (AT) 0.00 km FOUND
R2510135 RS41 2021-01-03 04:30:28 48.8149 14.9383 310 ° 26 km/h 536 m -2.2 m/s 403.40 MHz Schrems (AT) 0.00 km UNKNOWN
R2510557 RS41 2021-01-02 04:05:19 48.6062 15.3844 211 ° 6 km/h 623 m -3.4 m/s 403.40 MHz Gföhl (AT) 0.00 km FOUND
R2530555 RS41 2021-01-01 04:07:04 48.35 15.4358 308 ° 2 km/h 616 m -3.5 m/s 403.40 MHz Paudorf (AT) 0.00 km FOUND
R2450918 RS41 2020-12-31 03:42:29 48.4847 15.4905 97 ° 13 km/h 649 m -10.7 m/s 403.40 MHz Gföhl (AT) 0.00 km UNKNOWN
R2450907 RS41 2020-12-30 04:30:16 49.3336 16.4035 257 ° 9 km/h 575 m -2.4 m/s 403.40 MHz Tišnov (CZ) 0.00 km FOUND
R2510473 RS41 2020-12-29 04:04:06 48.9292 16.0292 66 ° 28 km/h 418 m -4.5 m/s 403.40 MHz Znojmo (CZ) 0.00 km UNKNOWN
R2510136 RS41 2020-12-28 03:48:48 48.9391 15.3098 300 ° 37 km/h 675 m -4.6 m/s 403.40 MHz Waidhofen an der Thaya (AT) 0.00 km FOUND
R2530557 RS41 2020-12-27 03:47:16 48.1226 14.6174 269 ° 19 km/h 439 m -4.6 m/s 403.40 MHz Haag (AT) 0.00 km FOUND
R2450940 RS41 2020-12-26 04:03:55 47.6957 15.1678 146 ° 15 km/h 1405 m -4.3 m/s 403.40 MHz Mariazell (AT) 0.00 km UNKNOWN
R2510132 RS41 2020-12-25 03:54:31 48.2633 16.2207 149 ° 19 km/h 520 m -5.0 m/s 403.40 MHz Mauerbach (AT) 0.00 km FOUND
R2510129 RS41 2020-12-24 04:15:05 48.4004 16.7126 19 ° 13 km/h 282 m -3.0 m/s 403.40 MHz Gänserndorf (AT) 0.00 km FOUND
R2510121 RS41 2020-12-23 03:58:30 47.8172 16.2092 68 ° 17 km/h 336 m -4.6 m/s 403.40 MHz Wiener Neustadt (AT) 0.00 km FOUND
R2530556 RS41 2020-12-22 04:04:54 47.6114 15.6796 105 ° 11 km/h 1315 m -5.5 m/s 403.40 MHz Mürzzuschlag (AT) 0.00 km UNKNOWN
R2510127 RS41 2020-12-21 03:48:37 48.4524 15.0107 135 ° 20 km/h 992 m -3.9 m/s 403.40 MHz Königswiesen (AT) 0.00 km UNKNOWN
R2450939 RS41 2020-12-20 03:49:04 48.3258 14.6253 233 ° 15 km/h 532 m -10.0 m/s 403.40 MHz Tragwein (AT) 0.00 km FOUND
R2530531 RS41 2020-12-19 04:01:45 48.3317 14.4189 220 ° 9 km/h 438 m -4.8 m/s 403.40 MHz Engerwitzdorf (AT) 0.00 km FOUND
R2510130 RS41 2020-12-18 03:59:02 48.2097 15.033 124 ° 6 km/h 515 m -5.2 m/s 403.40 MHz Ybbs an der Donau (AT) 0.00 km FOUND
R2510131 RS41 2020-12-17 03:53:33 47.9689 14.8873 268 ° 6 km/h 771 m -9.8 m/s 405.10 MHz Ybbsitz (AT) 0.00 km UNKNOWN
R2510122 RS41 2020-12-16 04:27:56 48.6432 15.0998 228 ° 4 km/h 721 m -3.2 m/s 403.40 MHz Zwettl (AT) 0.00 km FOUND
R2510126 RS41 2020-12-15 04:08:42 48.2517 15.0048 49 ° 2 km/h 583 m -2.7 m/s 403.40 MHz Waldhausen im Strudengau (AT) 0.00 km FOUND
R2450941 RS41 2020-12-14 03:38:55 47.4926 14.7408 204 ° 4 km/h 1682 m -11.0 m/s 403.40 MHz Eisenerz (AT) 0.00 km UNKNOWN
S2420047 RS41 2020-12-13 03:57:12 48.0369 14.5721 60 ° 2 km/h 487 m -5.2 m/s 403.40 MHz Weistrach (AT) 0.00 km FOUND
S2430546 RS41 2020-12-12 04:12:04 48.2066 14.7997 69 ° 4 km/h 342 m -3.2 m/s 403.40 MHz Grein (AT) 0.00 km FOUND
S2420004 RS41 2020-12-11 04:03:27 47.9457 14.568 302 ° 9 km/h 1005 m -3.7 m/s 403.40 MHz Grossraming (AT) 0.00 km UNKNOWN
S2421449 RS41 2020-12-10 03:56:07 48.4465 14.1024 132 ° 9 km/h 650 m -4.3 m/s 403.40 MHz Herzogsdorf (AT) 0.00 km FOUND
S2420109 RS41 2020-12-09 04:10:36 49.0338 14.3099 296 ° 37 km/h 703 m -2.4 m/s 403.40 MHz Hluboká nad Vltavou (CZ) 0.00 km FOUND
S2430536 RS41 2020-12-08 03:36:36 48.6796 14.7062 359 ° 43 km/h 1058 m -4.0 m/s 403.40 MHz Weitra (AT) 0.00 km UNKNOWN
S2420867 RS41 2020-12-07 04:07:01 49.5441 14.049 325 ° 50 km/h 696 m -3.6 m/s 403.40 MHz Příbram (CZ) 0.00 km FOUND
S2420865 RS41 2020-12-06 04:06:19 49.5963 14.7847 335 ° 50 km/h 719 m -5.7 m/s 403.40 MHz Vlašim (CZ) 0.00 km FOUND
S2421459 RS41 2020-12-05 04:22:48 49.5066 15.1642 336 ° 106 km/h 959 m -5.0 m/s 403.40 MHz Pelhřimov (CZ) 0.00 km UNKNOWN
S2430559 RS41 2020-12-05 03:57:54 49.5034 15.1472 344 ° 102 km/h 955 m -5.6 m/s 405.10 MHz Pelhřimov (CZ) 0.00 km UNKNOWN
S2420866 RS41 2020-12-04 04:00:13 48.8481 14.829 284 ° 24 km/h 551 m -3.7 m/s 403.40 MHz Trhové Sviny (CZ) 0.00 km UNKNOWN
S2420118 RS41 2020-12-03 03:51:02 48.9376 14.4896 357 ° 13 km/h 913 m -4.1 m/s 403.40 MHz České Budějovice (CZ) 0.00 km FOUND
S2420869 RS41 2020-12-02 03:48:31 48.4068 13.8887 250 ° 11 km/h 625 m -9.6 m/s 403.40 MHz Waizenkirchen (AT) 0.00 km FOUND
S2420994 RS41 2020-12-01 04:02:06 48.3209 15.0068 314 ° 6 km/h 970 m -15.1 m/s 403.40 MHz Waldhausen im Strudengau (AT) 0.00 km FOUND
S2430520 RS41 2020-11-30 04:01:01 47.5772 14.5302 128 ° 20 km/h 1914 m -4.8 m/s 403.40 MHz Admont (AT) 0.00 km UNKNOWN
S2421452 RS41 2020-11-29 04:00:36 47.7431 14.2932 18 ° 2 km/h 1671 m -4.4 m/s 403.40 MHz Windischgarsten (AT) 0.00 km UNKNOWN
S2430518 RS41 2020-11-28 04:07:15 48.13 14.0439 280 ° 7 km/h 438 m -4.6 m/s 403.40 MHz Steinhaus (AT) 0.00 km FOUND
S2421031 RS41 2020-11-27 04:30:50 48.1893 14.9672 89 ° 11 km/h 471 m -2.8 m/s 403.40 MHz Sankt Georgen am Ybbsfelde (AT) 0.00 km FOUND
S2430535 RS41 2020-11-26 04:11:30 48.5784 14.8792 95 ° 4 km/h 985 m -4.1 m/s 403.40 MHz Grossgerungs (AT) 0.00 km FOUND
S2430519 RS41 2020-11-25 03:20:19 48.319 14.2009 232 ° 15 km/h 461 m -5.8 m/s 405.10 MHz Wilhering (AT) 0.00 km FOUND
S2430521 RS41 2020-11-24 04:28:39 47.5324 14.8517 52 ° 7 km/h 1854 m -2.6 m/s 403.40 MHz Eisenerz (AT) 0.00 km UNKNOWN
S2420868 RS41 2020-11-23 04:09:25 47.9643 15.9212 215 ° 4 km/h 779 m -3.9 m/s 403.40 MHz Pernitz (AT) 0.00 km LOST
S2421463 RS41 2020-11-22 04:04:37 47.6649 14.7165 6 ° 9 km/h 692 m -11.7 m/s 405.10 MHz Landl (AT) 0.00 km UNKNOWN
S2420156 RS41 2020-11-22 04:04:29 47.5318 14.7107 90 ° 2 km/h 1426 m -4.2 m/s 403.40 MHz Eisenerz (AT) 0.00 km UNKNOWN
S2420116 RS41 2020-11-21 03:36:36 47.1866 13.7478 213 ° 74 km/h 3458 m -9.6 m/s 403.40 MHz Mariapfarr (AT) 0.00 km UNKNOWN
S2421451 RS41 2020-11-20 04:08:55 48.2898 15.3836 161 ° 2 km/h 423 m -2.9 m/s 403.40 MHz Melk (AT) 0.00 km FOUND
S2421450 RS41 2020-11-19 03:58:30 48.0731 14.7922 108 ° 6 km/h 388 m -4.3 m/s 403.40 MHz Aschbach Markt (AT) 0.00 km FOUND
S2421030 RS41 2020-11-18 03:44:09 47.4022 14.4 139 ° 20 km/h 2536 m -13.5 m/s 403.40 MHz Trieben (AT) 0.00 km UNKNOWN
S2420918 RS41 2020-11-17 04:35:04 47.2269 14.8251 20 ° 13 km/h 884 m -2.6 m/s 403.40 MHz Knittelfeld (AT) 0.00 km UNKNOWN
S2421447 RS41 2020-11-16 03:41:30 48.2229 14.9824 111 ° 15 km/h 625 m -9.3 m/s 403.40 MHz Waldhausen im Strudengau (AT) 0.00 km FOUND
S2421448 RS41 2020-11-15 03:52:57 48.0157 14.6814 267 ° 15 km/h 604 m -8.5 m/s 403.40 MHz Biberbach (AT) 0.00 km FOUND
S2421461 RS41 2020-11-14 04:19:15 48.1458 15.3439 62 ° 6 km/h 382 m -2.9 m/s 403.40 MHz Mank (AT) 0.00 km FOUND
S2421460 RS41 2020-11-13 04:00:44 47.9309 14.9668 64 ° 9 km/h 868 m -8.5 m/s 403.40 MHz Ybbsitz (AT) 0.00 km UNKNOWN
S2421462 RS41 2020-11-12 04:27:54 48.4385 14.5553 354 ° 11 km/h 686 m -3.0 m/s 403.40 MHz Lasberg (AT) 0.00 km FOUND
S2351637 RS41 2020-11-11 04:03:10 48.3523 14.6555 155 ° 2 km/h 611 m -6.1 m/s 403.40 MHz Tragwein (AT) 0.00 km FOUND
S2430522 RS41 2020-11-10 04:16:46 48.2128 14.7653 270 ° 15 km/h 320 m -4.2 m/s 405.10 MHz Ardagger Markt (AT) 0.00 km FOUND
S2420112 RS41 2020-11-09 04:17:39 48.5133 14.5785 268 ° 13 km/h 824 m -3.4 m/s 403.40 MHz Sankt Oswald bei Freistadt (AT) 0.00 km FOUND
S2420861 RS41 2020-11-08 03:51:56 48.4806 14.599 51 ° 11 km/h 891 m -8.2 m/s 403.40 MHz Sankt Oswald bei Freistadt (AT) 0.00 km FOUND
S2420115 RS41 2020-11-07 03:56:05 48.7322 13.6654 287 ° 35 km/h 1201 m -5.0 m/s 403.40 MHz Ulrichsberg (AT) 0.00 km FOUND
S2430540 RS41 2020-11-06 04:26:33 48.358 13.0709 299 ° 37 km/h 630 m -2.5 m/s 405.10 MHz Braunau am Inn (AT) 0.00 km UNKNOWN
S2430765 RS41 2020-11-05 04:29:12 48.199 14.8549 161 ° 11 km/h 431 m -2.5 m/s 403.40 MHz Grein (AT) 0.00 km FOUND
S2430527 RS41 2020-11-04 04:09:05 48.905 15.1196 119 ° 19 km/h 675 m -5.4 m/s 403.40 MHz Heidenreichstein (AT) 0.00 km FOUND
S2430675 RS41 2020-11-03 03:58:55 48.4398 14.7264 140 ° 13 km/h 764 m -4.1 m/s 403.40 MHz Unterweissenbach (AT) 0.00 km UNKNOWN
S2430618 RS41 2020-11-02 03:47:41 47.5337 14.4673 118 ° 46 km/h 2152 m -8.0 m/s 403.40 MHz Admont (AT) 0.00 km UNKNOWN
S2430526 RS41 2020-11-01 04:08:33 47.7308 15.1571 84 ° 20 km/h 1403 m -4.2 m/s 403.40 MHz Mariazell (AT) 0.00 km UNKNOWN
S2420149 RS41 2020-10-31 04:10:33 47.2449 15.1314 164 ° 44 km/h 1490 m -8.4 m/s 403.40 MHz Sankt Michael in Obersteiermark (AT) 0.00 km FOUND
S2430641 RS41 2020-10-30 03:53:05 47.2852 15.2484 100 ° 9 km/h 1113 m -6.5 m/s 403.40 MHz Frohnleiten (AT) 0.00 km FOUND
S2430525 RS41 2020-10-29 04:18:32 48.5157 15.8912 61 ° 35 km/h 403 m -4.7 m/s 405.10 MHz Ziersdorf (AT) 0.00 km FOUND
S2430616 RS41 2020-10-28 04:17:32 48.6949 14.9288 47 ° 7 km/h 642 m -3.2 m/s 403.40 MHz Weitra (AT) 0.00 km FOUND
S2430642 RS41 2020-10-27 04:01:23 49.1632 15.1101 117 ° 20 km/h 727 m -4.9 m/s 403.40 MHz Jindřichŭv Hradec (CZ) 0.00 km UNKNOWN
S2430625 RS41 2020-10-26 03:49:34 48.6925 15.293 304 ° 26 km/h 688 m -8.7 m/s 403.40 MHz Vitis (AT) 0.00 km FOUND
S2430626 RS41 2020-10-25 04:16:13 48.1008 14.8863 241 ° 4 km/h 346 m -4.4 m/s 403.40 MHz Amstetten (AT) 0.00 km FOUND
S2420150 RS41 2020-10-24 03:49:19 48.632 15.7593 72 ° 22 km/h 504 m -9.5 m/s 403.40 MHz Eggenburg (AT) 0.00 km FOUND
S2430640 RS41 2020-10-23 04:08:38 48.6476 16.301 39 ° 7 km/h 340 m -5.8 m/s 403.40 MHz Laa an der Thaya (AT) 0.00 km UNKNOWN
S2430531 RS41 2020-10-22 04:06:20 48.666 15.8703 214 ° 4 km/h 375 m -9.0 m/s 403.40 MHz Eggenburg (AT) 0.00 km FOUND
S2430524 RS41 2020-10-21 04:33:46 47.9593 15.9602 286 ° 13 km/h 795 m -4.3 m/s 403.40 MHz Pernitz (AT) 0.00 km FOUND
S2430617 RS41 2020-10-20 03:50:26 47.5783 14.8203 308 ° 33 km/h 1293 m -9.1 m/s 403.40 MHz Eisenerz (AT) 0.00 km UNKNOWN
S2420147 RS41 2020-10-19 03:40:37 48.1378 15.032 84 ° 4 km/h 319 m -8.7 m/s 403.40 MHz Blindenmarkt (AT) 0.00 km FOUND
S2430564 RS41 2020-10-18 03:44:53 47.833 14.6948 119 ° 24 km/h 1231 m -9.1 m/s 403.40 MHz Weyer Markt (AT) 0.00 km UNKNOWN
S2430639 RS41 2020-10-17 03:52:23 47.9484 14.5103 149 ° 19 km/h 892 m -7.0 m/s 403.40 MHz Grossraming (AT) 0.00 km UNKNOWN
S2420146 RS41 2020-10-16 03:41:21 48.2398 13.9656 113 ° 20 km/h 444 m -7.6 m/s 403.40 MHz Wallern an der Trattnach (AT) 0.00 km UNKNOWN
S2430533 RS41 2020-10-15 03:54:34 48.4317 14.687 67 ° 13 km/h 793 m -7.6 m/s 403.40 MHz Gutau (AT) 0.00 km FOUND
S2420145 RS41 2020-10-14 04:14:28 48.1642 14.3666 83 ° 22 km/h 392 m -2.1 m/s 403.40 MHz Markt Sankt Florian (AT) 0.00 km UNKNOWN
S2430523 RS41 2020-10-13 03:41:59 48.5129 14.2295 155 ° 19 km/h 879 m -9.2 m/s 405.10 MHz Vorderweissenbach (AT) 0.00 km FOUND
S2430530 RS41 2020-10-12 03:59:22 48.8232 14.6216 93 ° 15 km/h 599 m -3.7 m/s 403.40 MHz Trhové Sviny (CZ) 0.00 km UNKNOWN
S2430614 RS41 2020-10-11 03:41:11 48.6034 15.0739 107 ° 13 km/h 689 m -4.7 m/s 405.10 MHz Zwettl (AT) 0.00 km LOST
S2430613 RS41 2020-10-10 03:45:20 48.4858 15.0737 43 ° 22 km/h 985 m -10.1 m/s 403.40 MHz Grossgerungs (AT) 0.00 km UNKNOWN
S2430638 RS41 2020-10-09 04:09:39 48.0407 15.6327 235 ° 9 km/h 565 m -2.2 m/s 403.40 MHz Traisen (AT) 0.00 km FOUND
S2430569 RS41 2020-10-08 03:59:24 47.1344 15.2394 139 ° 19 km/h 922 m -7.2 m/s 405.10 MHz Eisbach (AT) 0.00 km FOUND
S2430562 RS41 2020-10-07 04:02:39 48.5341 15.3499 81 ° 31 km/h 766 m -3.8 m/s 403.40 MHz Gföhl (AT) 0.00 km FOUND
S0220193 RS41 2020-10-05 04:14:30 49.0725 14.7231 320 ° 26 km/h 513 m -3.9 m/s 403.40 MHz Třeboň (CZ) 0.00 km LOST
S2420154 RS41 2020-10-04 03:53:41 49.2688 14.4069 103 ° 6 km/h 699 m -5.4 m/s 403.40 MHz Týn nad Vltavou (CZ) 0.00 km FOUND
S2430573 RS41 2020-10-03 03:50:09 48.6924 14.629 354 ° 44 km/h 930 m -11.3 m/s 405.10 MHz Kaplice (CZ) 0.00 km UNKNOWN
S2430568 RS41 2020-10-02 04:14:36 48.3639 14.8437 228 ° 22 km/h 868 m -2.8 m/s 403.40 MHz Königswiesen (AT) 0.00 km NEED ATTENTION
S2430570 RS41 2020-10-01 03:49:41 48.0232 14.3562 322 ° 4 km/h 522 m -5.6 m/s 405.10 MHz Aschach an der Steyr (AT) 0.00 km FOUND
S2430563 RS41 2020-09-30 03:49:28 47.8863 14.4883 102 ° 7 km/h 910 m -7.5 m/s 403.40 MHz Grossraming (AT) 0.00 km UNKNOWN
S2430565 RS41 2020-09-29 03:45:55 47.9614 14.3235 74 ° 30 km/h 612 m -12.9 m/s 403.40 MHz Ternberg (AT) 0.00 km UNKNOWN
S2430637 RS41 2020-09-28 04:09:18 48.5449 13.5577 304 ° 37 km/h 755 m -3.3 m/s 403.40 MHz Esternberg (AT) 0.00 km UNKNOWN
S2430566 RS41 2020-09-27 03:49:23 48.4933 14.0112 80 ° 22 km/h 746 m -8.1 m/s 405.10 MHz Altenfelden (AT) 0.00 km UNKNOWN
S2430567 RS41 2020-09-26 04:11:10 49.0195 13.7386 111 ° 41 km/h 1196 m -5.9 m/s 403.40 MHz Vimperk (CZ) 0.00 km UNKNOWN
R5140315 RS41 2020-09-25 04:13:36 49.0714 15.2818 354 ° 17 km/h 768 m -4.5 m/s 403.40 MHz Dačice (CZ) 0.00 km FOUND
R5121161 RS41 2020-09-24 04:12:14 48.2374 15.2357 50 ° 9 km/h 387 m -4.1 m/s 403.40 MHz Pöchlarn (AT) 0.00 km LOST
S0220192 RS41 2020-09-23 03:44:17 48.5067 14.3986 334 ° 15 km/h 885 m -5.2 m/s 405.10 MHz Freistadt (AT) 0.00 km UNKNOWN
R5140571 RS41 2020-09-22 03:47:50 48.4147 14.2363 53 ° 7 km/h 902 m -4.2 m/s 403.40 MHz Gramastetten (AT) 0.00 km LOST
R5140320 RS41 2020-09-21 04:16:13 48.1837 14.0538 313 ° 6 km/h 377 m -3.6 m/s 403.40 MHz Thalheim bei Wels (AT) 0.00 km UNKNOWN
R5140321 RS41 2020-09-20 04:00:04 48.1932 14.4934 264 ° 13 km/h 338 m -5.4 m/s 403.40 MHz Ennsdorf (AT) 0.00 km FOUND
R5121061 RS41 2020-09-19 03:59:23 48.4687 14.041 287 ° 28 km/h 857 m -10.5 m/s 403.40 MHz Altenfelden (AT) 0.00 km UNKNOWN
R5140504 RS41 2020-09-18 03:35:10 48.1173 13.7159 262 ° 24 km/h 601 m -7.2 m/s 403.40 MHz Gaspoltshofen (AT) 0.00 km UNKNOWN
R5140573 RS41 2020-09-17 04:27:16 48.1345 14.5309 19 ° 13 km/h 418 m -5.8 m/s 405.10 MHz Haag (AT) 0.00 km UNKNOWN
S0220184 RS41 2020-09-16 04:07:01 48.4601 13.8693 1 ° 7 km/h 685 m -2.4 m/s 403.40 MHz Altenfelden (AT) 0.00 km FOUND
R5140322 RS41 2020-09-15 04:04:16 48.5057 13.8752 276 ° 15 km/h 764 m -6.6 m/s 405.10 MHz Sarleinsbach (AT) 0.00 km NEED ATTENTION
R5121058 RS41 2020-09-13 03:49:15 47.9715 14.2178 116 ° 4 km/h 615 m -2.3 m/s 403.40 MHz Gründberg (AT) 0.00 km UNKNOWN
R5121159 RS41 2020-09-12 03:59:18 48.3236 14.737 142 ° 2 km/h 773 m -6.5 m/s 403.40 MHz Tragwein (AT) 0.00 km UNKNOWN
R5140323 RS41 2020-09-11 03:50:57 48.3366 14.638 232 ° 22 km/h 606 m -8.8 m/s 403.40 MHz Tragwein (AT) 0.00 km NEED ATTENTION
R5140313 RS41 2020-09-10 04:05:00 48.3496 15.249 105 ° 17 km/h 742 m -9.4 m/s 403.40 MHz Pöggstall (AT) 0.00 km FOUND
R5121060 RS41 2020-09-09 04:01:19 48.292 14.2739 190 ° 6 km/h 393 m -9.2 m/s 405.10 MHz Linz (AT) 0.00 km UNKNOWN
R5121062 RS41 2020-09-08 04:16:55 47.843 14.3703 291 ° 15 km/h 1061 m -2.7 m/s 403.40 MHz Molln (AT) 0.00 km UNKNOWN
R5140576 RS41 2020-09-07 04:04:45 48.6562 15.4932 138 ° 15 km/h 576 m -7.1 m/s 403.40 MHz Horn (AT) 0.00 km FOUND
R5140574 RS41 2020-09-06 03:43:59 48.4419 15.4195 84 ° 6 km/h 745 m -6.2 m/s 403.40 MHz Gföhl (AT) 0.00 km FOUND
R5140506 RS41 2020-09-05 03:53:54 48.1137 15.3536 292 ° 6 km/h 353 m -3.9 m/s 403.40 MHz Mank (AT) 0.00 km FOUND
R5121160 RS41 2020-09-04 04:07:15 47.6026 14.9755 136 ° 30 km/h 1907 m -5.9 m/s 403.40 MHz Eisenerz (AT) 0.00 km UNKNOWN
R5140572 RS41 2020-09-03 03:55:36 48.2533 14.9189 117 ° 7 km/h 607 m -6.3 m/s 403.40 MHz Waldhausen im Strudengau (AT) 0.00 km NEED ATTENTION
R5121163 RS41 2020-09-02 03:56:45 48.3726 14.7887 198 ° 11 km/h 807 m -5.7 m/s 405.10 MHz Königswiesen (AT) 0.00 km UNKNOWN
R5121162 RS41 2020-09-01 04:02:05 48.4252 14.0519 154 ° 22 km/h 653 m -7.8 m/s 403.40 MHz Sankt Martin im Mühlkreis (AT) 0.00 km UNKNOWN
R5140575 RS41 2020-08-31 04:02:38 49.1435 16.1034 56 ° 35 km/h 508 m -4.1 m/s 403.40 MHz Třebíč (CZ) 0.00 km UNKNOWN
R5121164 RS41 2020-08-30 03:49:53 48.9244 14.9844 219 ° 9 km/h 760 m -7.6 m/s 403.40 MHz Litschau (AT) 0.00 km LOST
S0220210 RS41 2020-08-29 04:18:06 48.8692 15.5244 125 ° 24 km/h 623 m -6.3 m/s 403.40 MHz Raabs an der Thaya (AT) 0.00 km FOUND
R5140324 RS41 2020-08-27 03:58:54 47.824 15.896 127 ° 52 km/h 1117 m -3.3 m/s 403.40 MHz Puchberg am Schneeberg (AT) 0.00 km UNKNOWN
R5121057 RS41 2020-08-26 04:10:37 48.0247 16.16 70 ° 17 km/h 636 m -5.0 m/s 403.40 MHz Baden (AT) 0.00 km FOUND
R5121059 RS41 2020-08-25 04:17:29 47.7346 15.489 129 ° 22 km/h 1307 m -3.6 m/s 405.10 MHz Neuberg an der Mürz (AT) 0.00 km UNKNOWN
S0220132 RS41 2020-08-24 04:11:27 48.3268 15.4909 99 ° 9 km/h 560 m -5.9 m/s 403.40 MHz Paudorf (AT) 0.00 km FOUND
R5140516 RS41 2020-08-23 03:56:42 48.2705 15.0416 82 ° 19 km/h 752 m -14.4 m/s 403.40 MHz Waldhausen im Strudengau (AT) 0.00 km UNKNOWN
S0220167 RS41 2020-08-22 04:15:52 48.4026 14.745 237 ° 6 km/h 719 m -3.7 m/s 405.10 MHz Unterweissenbach (AT) 0.00 km UNKNOWN
R5140502 RS41 2020-08-21 04:38:54 48.1184 14.9528 267 ° 19 km/h 307 m -2.0 m/s 403.40 MHz Sankt Georgen am Ybbsfelde (AT) 0.00 km FOUND
S0220165 RS41 2020-08-20 04:11:52 47.5857 14.8698 104 ° 15 km/h 1660 m -7.3 m/s 403.40 MHz Eisenerz (AT) 0.00 km UNKNOWN
S0220189 RS41 2020-08-19 04:00:41 48.1407 14.8823 103 ° 24 km/h 410 m -10.6 m/s 405.10 MHz Amstetten (AT) 0.00 km UNKNOWN
S0220191 RS41 2020-08-18 03:51:58 48.3722 14.6626 114 ° 6 km/h 671 m -7.1 m/s 403.40 MHz Tragwein (AT) 0.00 km UNKNOWN
S0220185 RS41 2020-08-17 03:12:49 48.2757 14.4593 286 ° 6 km/h 388 m -10.0 m/s 403.40 MHz Sankt Georgen an der Gusen (AT) 0.00 km FOUND
S0220194 RS41 2020-08-16 04:42:59 48.0934 14.5035 205 ° 7 km/h 433 m -4.0 m/s 403.40 MHz Haidershofen (AT) 0.00 km FOUND
S0220166 RS41 2020-08-15 03:53:04 48.159 14.4951 94 ° 13 km/h 371 m -7.5 m/s 405.10 MHz Kronstorf (AT) 0.00 km UNKNOWN
R5140394 RS41 2020-08-14 03:57:48 48.2709 14.4518 83 ° 6 km/h 361 m -10.5 m/s 403.40 MHz Sankt Georgen an der Gusen (AT) 0.00 km UNKNOWN
R5140511 RS41 2020-08-13 04:08:06 47.9921 14.6858 59 ° 6 km/h 602 m -7.8 m/s 403.40 MHz Biberbach (AT) 0.00 km UNKNOWN
R5140395 RS41 2020-08-12 03:59:33 47.9409 14.6518 304 ° 6 km/h 980 m -8.8 m/s 403.40 MHz Biberbach (AT) 0.00 km UNKNOWN
R5140500 RS41 2020-08-11 04:13:11 48.0667 14.6297 277 ° 19 km/h 439 m -5.2 m/s 403.40 MHz Sankt Peter in der Au Markt (AT) 0.00 km FOUND
S0220130 RS41 2020-08-10 03:56:13 48.0681 14.2731 308 ° 6 km/h 473 m -9.5 m/s 405.10 MHz Sierning (AT) 0.00 km UNKNOWN
R5140505 RS41 2020-08-09 04:04:51 47.8906 14.1028 295 ° 13 km/h 635 m -7.7 m/s 403.40 MHz Micheldorf in Oberösterreich (AT) 0.00 km UNKNOWN
S0220129 RS41 2020-08-08 03:59:40 47.9892 13.8963 345 ° 2 km/h 525 m -4.2 m/s 403.40 MHz Vorchdorf (AT) 0.00 km UNKNOWN
R5140396 RS41 2020-08-07 04:02:31 47.9825 13.7426 62 ° 2 km/h 552 m -5.3 m/s 405.10 MHz Attnang-Puchheim (AT) 0.00 km UNKNOWN
S0220223 RS41 2020-08-06 03:56:18 48.0129 13.8634 217 ° 4 km/h 532 m -7.4 m/s 403.40 MHz Laakirchen (AT) 0.00 km UNKNOWN
R5140513 RS41 2020-08-05 03:52:54 48.2453 14.1655 104 ° 7 km/h 363 m -4.9 m/s 405.10 MHz Hörsching (AT) 0.00 km FOUND
R5140501 RS41 2020-08-04 03:27:47 48.7204 14.2629 212 ° 61 km/h 1401 m -5.4 m/s 403.40 MHz Český Krumlov (CZ) 0.00 km UNKNOWN
R5121212 RS41 2020-08-03 04:00:58 48.662 14.8447 165 ° 17 km/h 926 m -7.1 m/s 403.40 MHz Weitra (AT) 0.00 km FOUND
R5140512 RS41 2020-08-02 04:08:32 48.1981 14.8782 270 ° 20 km/h 486 m -6.1 m/s 405.10 MHz Grein (AT) 0.00 km NEED ATTENTION
R5121076 RS41 2020-08-01 03:17:42 47.9566 14.5835 357 ° 6 km/h 786 m -7.6 m/s 403.40 MHz Grossraming (AT) 0.00 km UNKNOWN
R5140510 RS41 2020-07-31 03:57:15 47.8843 14.9126 76 ° 7 km/h 1127 m -11.6 m/s 403.40 MHz Ybbsitz (AT) 0.00 km UNKNOWN
R5140514 RS41 2020-07-30 03:57:46 48.1264 15.2484 115 ° 4 km/h 368 m -6.8 m/s 403.40 MHz Ruprechtshofen (AT) 0.00 km FOUND
R5121207 RS41 2020-07-29 04:34:57 48.4218 16.3871 315 ° 7 km/h 286 m -7.3 m/s 403.40 MHz Harmannsdorf (AT) 0.00 km FOUND
S0220128 RS41 2020-07-28 04:00:24 48.113 15.1272 85 ° 7 km/h 378 m -8.0 m/s 403.40 MHz Wieselburg (AT) 0.00 km FOUND
R5121080 RS41 2020-07-27 03:58:54 47.6361 15.3903 149 ° 9 km/h 1521 m -4.1 m/s 403.40 MHz Neuberg an der Mürz (AT) 0.00 km UNKNOWN
R5140515 RS41 2020-07-26 03:57:58 48.1878 14.8631 278 ° 19 km/h 451 m -5.2 m/s 403.40 MHz Ardagger Markt (AT) 0.00 km FOUND
R5121077 RS41 2020-07-25 03:59:50 48.2205 14.6056 233 ° 15 km/h 308 m -3.3 m/s 403.40 MHz Naarn im Machland (AT) 0.00 km FOUND
R5140509 RS41 2020-07-24 03:59:48 48.3856 15.4188 116 ° 2 km/h 668 m -12.4 m/s 403.40 MHz Krems an der Donau (AT) 0.00 km FOUND
R5121226 RS41 2020-07-23 04:02:34 48.1204 15.5756 51 ° 6 km/h 424 m -5.6 m/s 403.40 MHz Wilhelmsburg (AT) 0.00 km FOUND
R5121209 RS41 2020-07-22 04:07:21 48.2488 15.7617 346 ° 2 km/h 302 m -6.9 m/s 405.10 MHz Böheimkirchen (AT) 0.00 km FOUND
R5121078 RS41 2020-07-21 03:56:40 48.1696 15.4354 148 ° 9 km/h 348 m -11.3 m/s 403.40 MHz Loosdorf (AT) 0.00 km FOUND
R5121079 RS41 2020-07-20 04:00:41 48.1151 14.6761 59 ° 11 km/h 511 m -11.9 m/s 405.10 MHz Aschbach Markt (AT) 0.00 km FOUND
R5121208 RS41 2020-07-19 03:47:52 47.9474 13.9528 82 ° 15 km/h 741 m -8.6 m/s 405.10 MHz Pettenbach (AT) 0.00 km LOST
R5121210 RS41 2020-07-18 04:05:15 47.6625 13.7459 182 ° 19 km/h 1330 m -2.5 m/s 403.40 MHz Bad Aussee (AT) 0.00 km UNKNOWN
R5121227 RS41 2020-07-17 04:00:06 47.8987 15.0225 97 ° 6 km/h 1010 m -6.4 m/s 403.40 MHz Gaming (AT) 0.00 km UNKNOWN
R5140499 RS41 2020-07-16 03:52:11 47.9031 14.8696 80 ° 26 km/h 966 m -11.4 m/s 405.10 MHz Ybbsitz (AT) 0.00 km UNKNOWN
S0220225 RS41 2020-07-15 04:13:01 48.3712 14.8095 45 ° 11 km/h 820 m -3.1 m/s 403.40 MHz Königswiesen (AT) 0.00 km UNKNOWN
R5140503 RS41 2020-07-14 03:49:36 48.2865 14.4763 199 ° 6 km/h 350 m -6.4 m/s 405.10 MHz Sankt Georgen an der Gusen (AT) 0.00 km FOUND
S0220209 RS41 2020-07-13 04:03:18 47.8684 15.0258 308 ° 11 km/h 1027 m -3.9 m/s 403.40 MHz Gaming (AT) 0.00 km UNKNOWN
S0220224 RS41 2020-07-12 04:32:00 48.0994 15.6774 85 ° 19 km/h 630 m -2.5 m/s 405.10 MHz Wilhelmsburg (AT) 0.00 km FOUND
S0220216 RS41 2020-07-11 04:24:50 48.7206 15.2497 228 ° 24 km/h 673 m -2.0 m/s 403.40 MHz Vitis (AT) 0.00 km FOUND
R5140508 RS41 2020-07-10 04:26:25 48.3105 15.513 71 ° 11 km/h 519 m -4.6 m/s 403.40 MHz Paudorf (AT) 0.00 km FOUND
S0220226 RS41 2020-07-09 04:07:54 47.9519 15.5263 356 ° 4 km/h 496 m -5.4 m/s 403.40 MHz Lilienfeld (AT) 0.00 km FOUND
R5140352 RS41 2020-07-08 04:08:25 47.9374 15.6902 94 ° 24 km/h 1220 m -5.8 m/s 403.40 MHz Sankt Veit an der Gölsen (AT) 0.00 km FOUND
R5140337 RS41 2020-07-07 04:14:26 47.8058 15.56 111 ° 22 km/h 957 m -5.4 m/s 405.10 MHz Neuberg an der Mürz (AT) 0.00 km UNKNOWN
R5140359 RS41 2020-07-06 04:04:40 48.3547 14.9545 82 ° 17 km/h 919 m -6.0 m/s 403.40 MHz Waldhausen im Strudengau (AT) 0.00 km UNKNOWN
R5140354 RS41 2020-07-05 04:04:16 47.7816 14.3516 117 ° 13 km/h 1429 m -13.0 m/s 403.40 MHz Windischgarsten (AT) 0.00 km UNKNOWN
R5140353 RS41 2020-07-04 04:28:13 48.2473 14.4688 27 ° 7 km/h 308 m -3.2 m/s 403.40 MHz Langenstein (AT) 0.00 km FOUND
R5140349 RS41 2020-07-03 04:27:31 48.6403 15.487 91 ° 30 km/h 621 m -9.4 m/s 403.40 MHz Horn (AT) 0.00 km FOUND
R5140351 RS41 2020-07-02 04:00:30 48.3045 14.9981 80 ° 9 km/h 857 m -9.3 m/s 403.40 MHz Waldhausen im Strudengau (AT) 0.00 km LOST
R5140339 RS41 2020-07-01 04:25:00 48.3955 15.6695 105 ° 9 km/h 279 m -6.9 m/s 403.40 MHz Gedersdorf (AT) 0.00 km FOUND
R5140341 RS41 2020-06-30 04:40:48 48.0751 16.3657 22 ° 13 km/h 229 m -2.6 m/s 403.40 MHz Laxenburg (AT) 0.00 km FOUND
R5140350 RS41 2020-06-29 10:53:34 48.5894 15.4089 83 ° 13 km/h 639 m -7.5 m/s 403.40 MHz Gföhl (AT) 0.00 km FOUND
R5130008 RS41 2020-06-28 04:37:32 48.4348 14.9093 64 ° 9 km/h 875 m -4.6 m/s 405.10 MHz Königswiesen (AT) 0.00 km FOUND
R5130028 RS41 2020-06-27 03:48:36 48.3153 14.8069 127 ° 7 km/h 750 m -12.4 m/s 403.40 MHz Grein (AT) 0.00 km FOUND
R5140358 RS41 2020-06-26 04:21:51 48.1297 14.7521 310 ° 7 km/h 411 m -5.1 m/s 405.10 MHz Ardagger Markt (AT) 0.00 km FOUND
R5130026 RS41 2020-06-25 04:23:43 48.1349 14.31 287 ° 20 km/h 431 m -3.4 m/s 405.10 MHz Sankt Marien (AT) 0.00 km NEED ATTENTION
R5121177 RS41 2020-06-24 04:08:50 47.6113 14.8074 160 ° 17 km/h 1825 m -4.1 m/s 403.40 MHz Landl (AT) 0.00 km UNKNOWN
R5140360 RS41 2020-06-23 04:19:01 47.6371 14.1431 210 ° 20 km/h 1851 m -6.0 m/s 403.40 MHz Liezen (AT) 0.00 km UNKNOWN
R5130010 RS41 2020-06-22 03:27:11 47.9991 14.2922 83 ° 33 km/h 600 m -9.0 m/s 403.40 MHz Waldneukirchen (AT) 0.00 km UNKNOWN
R5111028 RS41 2020-06-21 04:05:43 48.0847 13.9233 78 ° 31 km/h 488 m -7.5 m/s 403.40 MHz Edt bei Lambach (AT) 0.00 km UNKNOWN
R5120995 RS41 2020-06-20 03:55:59 48.1851 14.2365 78 ° 15 km/h 386 m -4.0 m/s 403.40 MHz Pucking (AT) 0.00 km FOUND
R5111027 RS41 2020-06-19 03:44:14 48.3258 14.3856 79 ° 13 km/h 459 m -4.8 m/s 405.10 MHz Engerwitzdorf (AT) 0.00 km FOUND
R5130012 RS41 2020-06-18 04:05:40 48.4008 14.068 97 ° 26 km/h 572 m -6.9 m/s 405.10 MHz Sankt Martin im Mühlkreis (AT) 0.00 km FOUND
R5120996 RS41 2020-06-17 04:13:19 48.4687 13.7474 199 ° 6 km/h 685 m -4.4 m/s 405.10 MHz Natternbach (AT) 0.00 km UNKNOWN
R5130025 RS41 2020-06-16 04:23:19 48.4293 13.7639 85 ° 19 km/h 648 m -4.1 m/s 403.40 MHz Natternbach (AT) 0.00 km UNKNOWN
R5120992 RS41 2020-06-15 04:19:33 48.2205 13.9109 79 ° 28 km/h 475 m -4.8 m/s 403.40 MHz Bad Schallerbach (AT) 0.00 km UNKNOWN
R5121026 RS41 2020-06-14 04:00:31 48.334 13.8774 92 ° 31 km/h 550 m -4.6 m/s 405.10 MHz Waizenkirchen (AT) 0.00 km UNKNOWN
S0220015 RS41 2020-06-13 03:56:46 48.319 13.9746 301 ° 0 km/h 425 m -7.4 m/s 405.10 MHz Eferding (AT) 0.00 km FOUND
R5121025 RS41 2020-06-12 04:09:55 48.6712 13.5751 304 ° 17 km/h 1002 m -11.6 m/s 405.10 MHz Esternberg (AT) 0.00 km FOUND
S0220010 RS41 2020-06-11 03:58:17 48.6546 13.5864 333 ° 9 km/h 866 m -5.6 m/s 405.10 MHz Esternberg (AT) 0.00 km UNKNOWN
R5120993 RS41 2020-06-10 03:58:25 48.6061 13.707 261 ° 13 km/h 888 m -8.4 m/s 405.10 MHz Esternberg (AT) 0.00 km UNKNOWN
S0220003 RS41 2020-06-09 04:36:16 48.801 13.8967 246 ° 20 km/h 1252 m -2.9 m/s 405.10 MHz Ulrichsberg (AT) 0.00 km UNKNOWN
S0220007 RS41 2020-06-08 04:08:34 48.6621 14.5001 162 ° 9 km/h 837 m -7.7 m/s 403.40 MHz Kaplice (CZ) 0.00 km FOUND
S0220011 RS41 2020-06-07 04:43:31 48.7822 14.8281 328 ° 30 km/h 721 m -2.9 m/s 403.40 MHz Weitra (AT) 0.00 km UNKNOWN
S0220016 RS41 2020-06-06 03:31:36 48.4251 15.4238 79 ° 22 km/h 732 m -7.4 m/s 403.40 MHz Gföhl (AT) 0.00 km FOUND
R5121007 RS41 2020-06-05 04:37:40 48.9502 15.0634 91 ° 28 km/h 817 m -2.9 m/s 403.40 MHz Litschau (AT) 0.00 km FOUND
S0220004 RS41 2020-06-04 03:57:44 48.0704 14.8696 10 ° 6 km/h 374 m -5.3 m/s 403.40 MHz Neuhofen an der Ybbs (AT) 0.00 km FOUND
R5120994 RS41 2020-06-03 04:15:48 47.5361 14.426 172 ° 35 km/h 2423 m -3.7 m/s 403.40 MHz Admont (AT) 0.00 km UNKNOWN
S0220009 RS41 2020-06-02 04:23:38 47.519 14.2449 112 ° 19 km/h 1558 m -3.7 m/s 403.40 MHz Liezen (AT) 0.00 km FOUND
R5130011 RS41 2020-06-01 04:07:31 47.745 13.6524 170 ° 6 km/h 1518 m -5.6 m/s 403.40 MHz Bad Ischl (AT) 0.00 km UNKNOWN
R5121004 RS41 2020-05-31 04:14:58 48.0584 13.2162 91 ° 4 km/h 682 m -5.3 m/s 403.40 MHz Munderfing (AT) 0.00 km UNKNOWN
R5121214 RS41 2020-05-30 04:20:34 47.7844 13.7904 195 ° 13 km/h 1415 m -3.4 m/s 405.10 MHz Ebensee (AT) 0.00 km UNKNOWN
R5121232 RS41 2020-05-29 03:55:24 48.0747 13.5768 113 ° 13 km/h 711 m -6.8 m/s 403.40 MHz Neukirchen an der Vöckla (AT) 0.00 km UNKNOWN
R5121228 RS41 2020-05-28 04:23:07 47.6726 14.5151 115 ° 30 km/h 1595 m -3.4 m/s 405.10 MHz Admont (AT) 0.00 km UNKNOWN
R5121189 RS41 2020-05-27 03:56:04 47.4206 13.6713 184 ° 19 km/h 2483 m -8.3 m/s 405.10 MHz Schladming (AT) 0.00 km UNKNOWN
R5121235 RS41 2020-05-26 04:10:28 46.876 14.2473 164 ° 30 km/h 1583 m -3.4 m/s 403.40 MHz Frauenstein (AT) 0.00 km FOUND
R5121237 RS41 2020-05-25 04:13:52 47.3459 15.0578 95 ° 11 km/h 1246 m -3.3 m/s 403.40 MHz Sankt Michael in Obersteiermark (AT) 0.00 km LOST
R5121195 RS41 2020-05-24 04:19:35 48.4239 15.6829 95 ° 22 km/h 273 m -7.6 m/s 403.40 MHz Gedersdorf (AT) 0.00 km FOUND
R5121239 RS41 2020-05-23 04:23:32 47.6179 15.0553 134 ° 59 km/h 2060 m -8.4 m/s 403.40 MHz Eisenerz (AT) 0.00 km UNKNOWN
R5121234 RS41 2020-05-22 04:28:31 47.341 14.8928 152 ° 15 km/h 1488 m -2.6 m/s 403.40 MHz Sankt Michael in Obersteiermark (AT) 0.00 km FOUND
R5121220 RS41 2020-05-21 04:06:27 47.4806 14.4319 168 ° 26 km/h 2274 m -4.5 m/s 405.10 MHz Trieben (AT) 0.00 km UNKNOWN
R5121183 RS41 2020-05-20 04:00:36 48.0437 14.5082 150 ° 6 km/h 476 m -8.1 m/s 405.10 MHz Behamberg (AT) 0.00 km LOST
R5121150 RS41 2020-05-17 04:01:00 48.5567 15.8962 185 ° 9 km/h 412 m -8.5 m/s 403.40 MHz Ziersdorf (AT) 0.00 km FOUND
R5140307 RS41 2020-05-16 04:31:05 48.4716 16.2351 86 ° 15 km/h 299 m -2.6 m/s 403.40 MHz Sierndorf (AT) 0.00 km FOUND
R5140355 RS41 2020-05-15 04:25:24 48.8021 15.4884 242 ° 24 km/h 672 m -7.1 m/s 403.40 MHz Raabs an der Thaya (AT) 0.00 km FOUND
R5121213 RS41 2020-05-14 04:05:34 48.6164 15.8909 138 ° 20 km/h 362 m -10.4 m/s 403.40 MHz Sitzendorf an der Schmida (AT) 0.00 km FOUND
R5121145 RS41 2020-05-13 04:38:52 48.5436 16.3509 303 ° 39 km/h 457 m -5.4 m/s 403.40 MHz Ernstbrunn (AT) 0.00 km NEED ATTENTION
R5121206 RS41 2020-05-12 04:33:20 48.2733 15.6955 114 ° 26 km/h 421 m -3.5 m/s 403.40 MHz Herzogenburg (AT) 0.00 km FOUND
R5121149 RS41 2020-05-11 04:20:50 48.5002 15.2617 265 ° 6 km/h 817 m -3.5 m/s 405.10 MHz Zwettl (AT) 0.00 km NEED ATTENTION
R5140316 RS41 2020-05-10 04:38:30 48.0621 15.5533 350 ° 2 km/h 668 m -3.7 m/s 403.40 MHz Traisen (AT) 0.00 km FOUND
R5140326 RS41 2020-05-09 04:02:39 48.0245 15.1819 258 ° 4 km/h 522 m -6.9 m/s 405.10 MHz Scheibbs (AT) 0.00 km FOUND
R5140338 RS41 2020-05-08 04:30:29 47.6705 15.3722 123 ° 24 km/h 1878 m -2.6 m/s 403.40 MHz Mariazell (AT) 0.00 km FOUND
R5140336 RS41 2020-05-07 03:33:49 47.2199 13.9998 153 ° 81 km/h 2996 m -3.7 m/s 403.40 MHz Murau (AT) 0.00 km UNKNOWN
R5140317 RS41 2020-05-06 03:52:28 47.5415 15.51 131 ° 15 km/h 1219 m -7.9 m/s 405.10 MHz Mitterdorf im Mürztal (AT) 0.00 km UNKNOWN
R5140346 RS41 2020-05-05 04:01:07 47.6195 16.1232 345 ° 6 km/h 568 m -8.2 m/s 403.40 MHz Kirchberg am Wechsel (AT) 0.00 km FOUND
R5140327 RS41 2020-05-04 03:53:47 47.5502 15.136 84 ° 7 km/h 1362 m -7.7 m/s 403.40 MHz Thörl (AT) 0.00 km UNKNOWN
R5140344 RS41 2020-05-03 03:57:08 47.6065 15.1962 158 ° 65 km/h 2051 m -6.0 m/s 403.40 MHz Thörl (AT) 0.00 km UNKNOWN
R5140325 RS41 2020-05-02 04:14:30 48.0873 15.3735 77 ° 26 km/h 418 m -3.0 m/s 405.10 MHz Kilb (AT) 0.00 km FOUND
R5140303 RS41 2020-05-01 04:01:02 48.4651 14.9544 68 ° 22 km/h 1003 m -3.7 m/s 403.40 MHz Königswiesen (AT) 0.00 km FOUND
R5140328 RS41 2020-04-30 04:21:59 47.9957 14.9845 42 ° 15 km/h 674 m -2.9 m/s 405.10 MHz Ybbsitz (AT) 0.00 km UNKNOWN
R5140356 RS41 2020-04-29 04:35:41 48.3613 14.7163 82 ° 15 km/h 705 m -6.0 m/s 403.40 MHz Tragwein (AT) 0.00 km FOUND
R5140335 RS41 2020-04-29 04:18:26 48.388 14.7269 66 ° 9 km/h 737 m -6.3 m/s 405.10 MHz Unterweissenbach (AT) 0.00 km UNKNOWN
R5140347 RS41 2020-04-28 03:57:57 48.0589 14.7879 60 ° 2 km/h 486 m -9.5 m/s 405.10 MHz Aschbach Markt (AT) 0.00 km FOUND
R5140365 RS41 2020-04-27 04:36:01 48.0036 15.0232 324 ° 6 km/h 695 m -3.0 m/s 403.40 MHz Steinakirchen am Forst (AT) 0.00 km UNKNOWN
R5140340 RS41 2020-04-26 03:53:31 47.8022 14.8508 247 ° 6 km/h 1298 m -8.9 m/s 403.40 MHz Weyer Markt (AT) 0.00 km UNKNOWN
R5140366 RS41 2020-04-25 04:14:37 47.6162 15.3569 139 ° 37 km/h 1722 m -6.8 m/s 403.40 MHz Kindberg (AT) 0.00 km UNKNOWN
R5140357 RS41 2020-04-24 04:32:18 47.7635 14.4711 30 ° 7 km/h 1067 m -4.0 m/s 405.10 MHz Windischgarsten (AT) 0.00 km UNKNOWN
R5140295 RS41 2020-04-23 03:48:20 47.8575 13.8635 308 ° 7 km/h 1327 m -7.7 m/s 403.40 MHz Gmunden (AT) 0.00 km UNKNOWN
R5140362 RS41 2020-04-22 03:56:21 48.0216 13.6058 259 ° 30 km/h 643 m -4.5 m/s 403.40 MHz Timelkam (AT) 0.00 km UNKNOWN
R5140345 RS41 2020-04-21 04:12:45 47.8767 14.7602 326 ° 31 km/h 1159 m -5.7 m/s 403.40 MHz Weyer Markt (AT) 0.00 km UNKNOWN
R5140364 RS41 2020-04-20 03:55:34 48.0103 15.1795 276 ° 35 km/h 665 m -9.8 m/s 403.40 MHz Scheibbs (AT) 0.00 km UNKNOWN
R5140363 RS41 2020-04-19 04:03:59 47.8207 15.4777 100 ° 31 km/h 1497 m -5.5 m/s 403.40 MHz Mariazell (AT) 0.00 km LOST
R5140342 RS41 2020-04-18 04:37:05 47.6264 15.7967 7 ° 7 km/h 999 m -2.8 m/s 403.40 MHz Reichenau (AT) 0.00 km FOUND
R5140330 RS41 2020-04-17 04:12:05 47.8411 15.4789 100 ° 28 km/h 1256 m -5.6 m/s 403.40 MHz Mariazell (AT) 0.00 km UNKNOWN
R5140334 RS41 2020-04-16 04:25:40 48.3278 14.8925 279 ° 9 km/h 756 m -3.5 m/s 403.40 MHz Waldhausen im Strudengau (AT) 0.00 km UNKNOWN
R5140319 RS41 2020-04-15 04:18:19 47.25 14.1627 205 ° 26 km/h 2718 m -4.7 m/s 403.40 MHz Oberwölz Stadt (AT) 0.00 km UNKNOWN
R5140308 RS41 2020-04-14 03:57:03 47.9845 16.3762 125 ° 33 km/h 254 m -6.0 m/s 403.40 MHz Trumau (AT) 0.00 km FOUND
S0220049 RS41 2020-04-13 04:04:30 48.0694 15.7892 62 ° 22 km/h 834 m -6.7 m/s 403.40 MHz Hainfeld (AT) 0.00 km FOUND
R5140333 RS41 2020-04-12 04:13:24 48.0176 15.8381 47 ° 13 km/h 777 m -5.0 m/s 403.40 MHz Hainfeld (AT) 0.00 km FOUND
R5140331 RS41 2020-04-11 03:59:54 47.6729 15.2629 122 ° 19 km/h 1600 m -6.0 m/s 403.40 MHz Mariazell (AT) 0.00 km UNKNOWN
R5140311 RS41 2020-04-10 03:48:50 47.8523 14.66 215 ° 4 km/h 1181 m -8.2 m/s 403.40 MHz Weyer Markt (AT) 0.00 km UNKNOWN
R5140310 RS41 2020-04-09 04:08:50 48.158 14.6351 145 ° 4 km/h 377 m -5.6 m/s 403.40 MHz Sankt Pantaleon (AT) 0.00 km UNKNOWN
R5140296 RS41 2020-04-08 05:31:58 48.3426 14.2747 256 ° 7 km/h 447 m -4.8 m/s 403.40 MHz Lichtenhag (AT) 0.00 km UNKNOWN
R5140312 RS41 2020-04-07 04:03:20 48.2825 14.0666 356 ° 17 km/h 458 m -10.7 m/s 403.40 MHz Fraham (AT) 0.00 km FOUND
R5140301 RS41 2020-04-06 05:02:50 48.3006 14.4227 196 ° 13 km/h 483 m -2.7 m/s 403.40 MHz Luftenberg (AT) 0.00 km FOUND
R5140329 RS41 2020-04-05 05:12:05 47.8629 14.056 278 ° 7 km/h 1198 m -8.3 m/s 403.40 MHz Micheldorf in Oberösterreich (AT) 0.00 km UNKNOWN
R5140318 RS41 2020-04-04 05:01:36 47.9016 15.0272 232 ° 6 km/h 1056 m -2.8 m/s 403.40 MHz Gaming (AT) 0.00 km UNKNOWN
R5121221 RS41 2020-04-03 05:09:52 48.0856 15.3566 70 ° 19 km/h 443 m -4.0 m/s 403.40 MHz Mank (AT) 0.00 km FOUND
R5121151 RS41 2020-04-02 05:17:03 48.1635 15.0187 18 ° 6 km/h 373 m -2.3 m/s 403.40 MHz Ybbs an der Donau (AT) 0.00 km UNKNOWN
R5121205 RS41 2020-04-01 04:58:57 47.5893 13.9602 144 ° 9 km/h 2153 m -3.8 m/s 403.40 MHz Stainach (AT) 0.00 km LOST
R5121233 RS41 2020-03-31 05:05:31 47.7107 14.7045 178 ° 17 km/h 1479 m -3.0 m/s 403.40 MHz Landl (AT) 0.00 km UNKNOWN
R5121242 RS41 2020-03-30 05:01:16 48.0624 15.4353 220 ° 22 km/h 697 m -3.9 m/s 403.40 MHz Kilb (AT) 0.00 km NEED ATTENTION
R5121231 RS41 2020-03-29 04:45:25 47.9678 14.6119 106 ° 15 km/h 738 m -6.1 m/s 403.40 MHz Biberbach (AT) 0.00 km UNKNOWN
R5121269 RS41 2020-03-28 05:04:10 47.826 13.9138 179 ° 9 km/h 1189 m -3.1 m/s 403.40 MHz Scharnstein (AT) 0.00 km UNKNOWN
R5121142 RS41 2020-03-27 05:09:18 48.6221 13.6647 307 ° 76 km/h 978 m -5.0 m/s 403.40 MHz Esternberg (AT) 0.00 km UNKNOWN
R5121219 RS41 2020-03-26 04:54:35 48.6688 13.9148 288 ° 63 km/h 1016 m -2.5 m/s 403.40 MHz Ulrichsberg (AT) 0.00 km UNKNOWN
R5121229 RS41 2020-03-25 04:40:39 48.036 12.8829 264 ° 44 km/h 700 m -7.2 m/s 403.40 MHz Ostermiething (AT) 0.00 km UNKNOWN
R5121148 RS41 2020-03-24 04:39:57 47.7412 13.2411 273 ° 6 km/h 1247 m -5.8 m/s 403.40 MHz Faistenau (AT) 0.00 km UNKNOWN
R5121217 RS41 2020-03-23 04:55:41 47.4177 13.9912 224 ° 61 km/h 2488 m -5.1 m/s 403.40 MHz Gröbming (AT) 0.00 km UNKNOWN
R5121241 RS41 2020-03-22 04:46:17 47.9443 15.023 258 ° 17 km/h 858 m -3.5 m/s 403.40 MHz Gaming (AT) 0.00 km UNKNOWN
R5121270 RS41 2020-03-21 05:23:56 48.1244 14.8332 282 ° 17 km/h 430 m -2.9 m/s 403.40 MHz Amstetten (AT) 0.00 km LOST
R5121222 RS41 2020-03-20 04:58:35 48.5004 14.8174 270 ° 19 km/h 1055 m -3.0 m/s 403.40 MHz Unterweissenbach (AT) 0.00 km UNKNOWN
R5121147 RS41 2020-03-19 05:00:27 48.1719 14.255 144 ° 4 km/h 346 m -5.3 m/s 403.40 MHz Sankt Marien (AT) 0.00 km FOUND
R5121216 RS41 2020-03-18 05:14:44 47.749 13.8241 358 ° 4 km/h 1430 m -2.6 m/s 405.10 MHz Ebensee (AT) 0.00 km UNKNOWN
R5121215 RS41 2020-03-17 04:44:53 48.0496 14.7003 339 ° 13 km/h 472 m -10.9 m/s 403.40 MHz Seitenstetten Markt (AT) 0.00 km FOUND
R5121230 RS41 2020-03-16 04:49:04 48.1709 14.7524 279 ° 20 km/h 381 m -6.5 m/s 403.40 MHz Ardagger Markt (AT) 0.00 km UNKNOWN
R5121171 RS41 2020-03-15 04:55:06 47.5809 14.6833 295 ° 2 km/h 1663 m -6.6 m/s 403.40 MHz Landl (AT) 0.00 km UNKNOWN
R5121240 RS41 2020-03-14 05:06:25 48.164 16.3631 155 ° 20 km/h 294 m -3.6 m/s 403.40 MHz Vienna (AT) 0.00 km FOUND
R2510155 RS41 2020-03-13 05:23:40 48.4114 17.3246 127 ° 61 km/h 665 m -2.6 m/s 403.40 MHz Modra (SK) 0.00 km UNKNOWN
R2520679 RS41 2020-03-12 05:05:26 47.8938 16.1058 78 ° 11 km/h 601 m -7.7 m/s 403.40 MHz Markt Piesting (AT) 0.00 km FOUND
R5121238 RS41 2020-03-11 05:07:49 47.2267 15.6406 82 ° 26 km/h 849 m -4.3 m/s 403.40 MHz Weiz (AT) 0.00 km LOST
R5121224 RS41 2020-03-10 04:54:33 47.7128 14.7057 131 ° 37 km/h 1467 m -6.2 m/s 403.40 MHz Landl (AT) 0.00 km UNKNOWN
R2510354 RS41 2020-03-09 05:06:27 48.2132 14.6827 193 ° 2 km/h 319 m -3.6 m/s 403.40 MHz Perg (AT) 0.00 km LOST
R2450920 RS41 2020-03-08 05:00:48 47.626 14.1494 174 ° 6 km/h 1846 m -4.5 m/s 403.40 MHz Liezen (AT) 0.00 km UNKNOWN
R2510152 RS41 2020-03-07 04:52:58 48.4342 15.0117 88 ° 30 km/h 949 m -6.1 m/s 403.40 MHz Königswiesen (AT) 0.00 km FOUND
R2510149 RS41 2020-03-06 04:49:38 48.5548 15.1663 9 ° 24 km/h 753 m -9.3 m/s 403.40 MHz Zwettl (AT) 0.00 km FOUND
R2510146 RS41 2020-03-05 04:41:50 47.6066 15.0777 9 ° 28 km/h 2066 m -8.8 m/s 403.40 MHz Thörl (AT) 0.00 km UNKNOWN
R2510172 RS41 2020-03-04 04:53:37 48.2185 14.829 91 ° 17 km/h 465 m -6.7 m/s 403.40 MHz Grein (AT) 0.00 km FOUND
R2450916 RS41 2020-03-03 04:15:52 48.7605 14.5222 106 ° 19 km/h 902 m -6.7 m/s 403.40 MHz Kaplice (CZ) 0.00 km UNKNOWN
R2450924 RS41 2020-03-02 05:18:46 48.5174 15.6029 96 ° 33 km/h 488 m -6.6 m/s 403.40 MHz Langenlois (AT) 0.00 km LOST
R2450913 RS41 2020-03-01 05:16:29 48.3597 16.2092 58 ° 24 km/h 274 m -4.5 m/s 403.40 MHz Stockerau (AT) 0.00 km LOST
R2521188 RS41 2020-02-29 04:58:19 47.5956 15.984 252 ° 7 km/h 867 m -4.1 m/s 403.40 MHz Kirchberg am Wechsel (AT) 0.00 km FOUND
R2520684 RS41 2020-02-28 04:51:29 47.3904 15.7686 120 ° 22 km/h 1230 m -5.2 m/s 403.40 MHz Birkfeld (AT) 0.00 km FOUND
R2510156 RS41 2020-02-27 04:34:12 47.9083 15.2136 116 ° 37 km/h 995 m -2.8 m/s 403.40 MHz Gaming (AT) 0.00 km UNKNOWN
R2510153 RS41 2020-02-26 05:00:23 48.8179 16.2254 51 ° 26 km/h 313 m -3.7 m/s 403.40 MHz Znojmo (CZ) 0.00 km UNKNOWN
R2510353 RS41 2020-02-25 04:50:28 48.1931 16.4268 72 ° 15 km/h 251 m -6.1 m/s 403.40 MHz Vienna (AT) 0.00 km FOUND
R2450915 RS41 2020-02-24 05:27:53 46.8064 17.3783 166 ° 65 km/h 490 m -7.4 m/s 403.40 MHz Gyenesdiás (HU) 0.00 km UNKNOWN
R2510145 RS41 2020-02-23 05:09:18 47.4084 16.5695 96 ° 11 km/h 390 m -1.5 m/s 403.40 MHz Kőszeg (HU) 0.00 km FOUND
R2510151 RS41 2020-02-22 04:36:12 47.2298 14.6414 10 ° 2 km/h 1208 m -4.6 m/s 403.40 MHz Fohnsdorf (AT) 0.00 km UNKNOWN
R2450923 RS41 2020-02-21 05:07:35 48.1554 16.2851 85 ° 31 km/h 290 m -3.3 m/s 403.40 MHz Perchtoldsdorf (AT) 0.00 km FOUND
R2510173 RS41 2020-02-20 05:11:19 46.7231 14.8907 106 ° 4 km/h 847 m -3.4 m/s 403.40 MHz Sankt Paul im Levanttal (AT) 0.00 km FOUND
R2510184 RS41 2020-02-19 05:13:17 48.25 16.1609 88 ° 24 km/h 462 m -3.0 m/s 403.40 MHz Mauerbach (AT) 0.00 km FOUND
R2510192 RS41 2020-02-18 05:14:40 48.7006 17.1238 82 ° 20 km/h 326 m -3.6 m/s 403.40 MHz Gbely (SK) 0.00 km FOUND
R2521192 RS41 2020-02-17 05:05:25 48.3713 16.2617 307 ° 19 km/h 267 m -3.6 m/s 403.40 MHz Spillern (AT) 0.00 km FOUND
R2510174 RS41 2020-02-16 04:58:54 47.6051 15.3212 146 ° 7 km/h 1505 m -4.4 m/s 403.40 MHz Thörl (AT) 0.00 km FOUND
R2510170 RS41 2020-02-15 04:40:31 47.6754 15.2732 119 ° 41 km/h 1711 m -11.9 m/s 403.40 MHz Mariazell (AT) 0.00 km UNKNOWN
R2510171 RS41 2020-02-14 05:11:20 47.8981 16.3086 80 ° 19 km/h 304 m -3.1 m/s 403.40 MHz Sollenau (AT) 0.00 km FOUND
R2510169 RS41 2020-02-13 05:15:04 47.5748 17.2449 141 ° 20 km/h 189 m -2.9 m/s 403.40 MHz Csorna (HU) 0.00 km FOUND
R2521177 RS41 2020-02-12 04:48:35 47.8296 16.956 100 ° 39 km/h 194 m -7.1 m/s 403.40 MHz Frauenkirchen (AT) 0.00 km FOUND
R2510185 RS41 2020-02-11 05:29:02 47.4033 18.5102 102 ° 78 km/h 530 m -2.1 m/s 403.40 MHz Csákvár (HU) 0.00 km UNKNOWN
R2521181 RS41 2020-02-10 04:46:10 47.9471 16.8457 351 ° 19 km/h 187 m -5.2 m/s 403.40 MHz Neusiedl am See (AT) 0.00 km FOUND
R2510168 RS41 2020-02-09 05:11:13 48.3493 15.4528 69 ° 4 km/h 733 m -1.9 m/s 403.40 MHz Paudorf (AT) 0.00 km FOUND
R2510181 RS41 2020-02-08 05:04:28 47.9477 14.3495 25 ° 11 km/h 567 m -6.1 m/s 403.40 MHz Ternberg (AT) 0.00 km LOST
R2510167 RS41 2020-02-07 04:47:57 47.3119 14.2715 159 ° 80 km/h 2615 m -5.5 m/s 403.40 MHz Oberwölz Stadt (AT) 0.00 km UNKNOWN
R2510182 RS41 2020-02-06 04:51:22 47.2154 13.9957 199 ° 74 km/h 2942 m -8.2 m/s 405.10 MHz Murau (AT) 0.00 km UNKNOWN
R2510183 RS41 2020-02-06 04:42:22 47.5224 14.0714 180 ° 37 km/h 2409 m -8.4 m/s 403.40 MHz Stainach (AT) 0.00 km UNKNOWN
R2510201 RS41 2020-02-05 04:42:31 47.1857 14.6628 135 ° 59 km/h 1507 m -5.7 m/s 403.40 MHz Judenburg (AT) 0.00 km UNKNOWN
R2510179 RS41 2020-02-04 05:22:32 47.7942 17.617 13 ° 30 km/h 208 m -7.1 m/s 403.40 MHz Győrzámoly (HU) 0.00 km LOST
R2510186 RS41 2020-02-03 05:25:00 46.9602 17.2107 57 ° 17 km/h 230 m -5.8 m/s 403.40 MHz Sümeg (HU) 0.00 km FOUND
R2510147 RS41 2020-02-02 05:09:01 47.1608 16.1968 277 ° 15 km/h 366 m -3.1 m/s 403.40 MHz Stegersbach (AT) 0.00 km FOUND
R2510178 RS41 2020-02-01 05:28:13 47.7137 15.7016 115 ° 37 km/h 1866 m -4.8 m/s 405.10 MHz Reichenau (AT) 0.00 km UNKNOWN
R2521176 RS41 2020-02-01 04:53:55 47.7325 15.5481 93 ° 33 km/h 1726 m -6.3 m/s 403.40 MHz Neuberg an der Mürz (AT) 0.00 km UNKNOWN
R2521180 RS41 2020-01-31 05:06:02 47.1544 15.7711 95 ° 17 km/h 464 m -4.1 m/s 403.40 MHz Pischelsdorf in Steiermark (AT) 0.00 km FOUND
R2521178 RS41 2020-01-30 04:46:34 47.0809 15.8091 73 ° 17 km/h 512 m -6.4 m/s 403.40 MHz Sinabelkirchen (AT) 0.00 km FOUND
R2521171 RS41 2020-01-29 04:42:58 47.8334 16.2396 139 ° 6 km/h 349 m -6.7 m/s 403.40 MHz Wiener Neustadt (AT) 0.00 km FOUND
R2521300 RS41 2020-01-27 04:52:29 48.0144 15.3248 87 ° 30 km/h 901 m -5.4 m/s 403.40 MHz Kirchberg an der Pielach (AT) 0.00 km NEED ATTENTION
R2521234 RS41 2020-01-26 04:31:05 48.4279 14.2469 88 ° 6 km/h 933 m -9.0 m/s 403.40 MHz Hellmonsödt (AT) 0.00 km FOUND
R2521138 RS41 2020-01-24 04:55:41 48.2781 15.2058 175 ° 2 km/h 672 m -5.7 m/s 403.40 MHz Pöggstall (AT) 0.00 km FOUND
R2521175 RS41 2020-01-23 04:51:44 47.7526 14.6603 4 ° 11 km/h 1239 m -4.9 m/s 403.40 MHz Weyer Markt (AT) 0.00 km UNKNOWN
R2521193 RS41 2020-01-21 04:54:59 48.3274 13.4565 301 ° 39 km/h 529 m -5.9 m/s 403.40 MHz Aurolzmünster (AT) 0.00 km UNKNOWN
R2521198 RS41 2020-01-20 04:56:36 47.9378 13.7129 85 ° 13 km/h 731 m -4.7 m/s 403.40 MHz Pinsdorf (AT) 0.00 km UNKNOWN
R2521174 RS41 2020-01-19 08:30:13 48.2637 14.3297 102 ° 15 km/h 319 m -4.5 m/s 403.40 MHz Steyregg (AT) 0.00 km NEED ATTENTION
R2521182 RS41 2020-01-18 04:44:45 48.7516 14.8516 345 ° 4 km/h 648 m -7.2 m/s 403.40 MHz Weitra (AT) 0.00 km FOUND
R2521190 RS41 2020-01-17 05:15:08 48.7455 15.0056 307 ° 15 km/h 616 m -2.8 m/s 405.10 MHz Schrems (AT) 0.00 km FOUND
R2521196 RS41 2020-01-16 05:14:12 48.6954 15.796 60 ° 11 km/h 498 m -4.3 m/s 403.40 MHz Eggenburg (AT) 0.00 km UNKNOWN
R2521231 RS41 2020-01-15 05:09:57 48.1598 15.0577 254 ° 22 km/h 329 m -5.0 m/s 403.40 MHz Ybbs an der Donau (AT) 0.00 km FOUND
R2521191 RS41 2020-01-14 04:52:07 48.0825 15.3347 285 ° 17 km/h 447 m -11.2 m/s 403.40 MHz Mank (AT) 0.00 km FOUND
R2521197 RS41 2020-01-13 05:30:07 48.3126 15.9683 74 ° 28 km/h 247 m -2.9 m/s 403.40 MHz Langenrohr (AT) 0.00 km FOUND
R2521205 RS41 2020-01-12 05:14:12 47.7671 14.098 241 ° 6 km/h 1442 m -3.1 m/s 403.40 MHz Micheldorf in Oberösterreich (AT) 0.00 km UNKNOWN
R2521214 RS41 2020-01-11 05:03:09 48.1444 15.4065 73 ° 31 km/h 387 m -4.8 m/s 403.40 MHz Kilb (AT) 0.00 km FOUND
R2521217 RS41 2020-01-10 05:21:57 48.5795 15.4632 70 ° 6 km/h 574 m -3.4 m/s 403.40 MHz Gföhl (AT) 0.00 km FOUND
R2521222 RS41 2020-01-09 05:27:41 47.7682 15.031 91 ° 7 km/h 1482 m -2.6 m/s 403.40 MHz Gaming (AT) 0.00 km UNKNOWN
R2521236 RS41 2020-01-08 04:54:24 47.3332 13.8277 152 ° 24 km/h 2992 m -4.5 m/s 403.40 MHz Schladming (AT) 0.00 km UNKNOWN
R2521233 RS41 2020-01-07 05:09:49 47.8783 14.9274 80 ° 7 km/h 1145 m -6.1 m/s 403.40 MHz Ybbsitz (AT) 0.00 km UNKNOWN
R2521200 RS41 2020-01-06 05:15:11 46.9994 14.2205 183 ° 35 km/h 2171 m -2.9 m/s 403.40 MHz Murau (AT) 0.00 km UNKNOWN
R2521221 RS41 2020-01-05 04:56:21 46.4651 14.6043 180 ° 4 km/h 1013 m -2.8 m/s 403.40 MHz Bad Eisenkappel (AT) 0.00 km UNKNOWN
R2521299 RS41 2020-01-04 05:30:29 47.6752 15.919 108 ° 20 km/h 644 m -3.7 m/s 403.40 MHz Gloggnitz (AT) 0.00 km NEED ATTENTION
R2521219 RS41 2020-01-03 05:19:03 48.6024 15.5144 70 ° 13 km/h 559 m -3.5 m/s 403.40 MHz Gföhl (AT) 0.00 km FOUND
R2521235 RS41 2020-01-02 05:07:47 47.9829 14.4603 274 ° 17 km/h 738 m -5.3 m/s 403.40 MHz Sankt Ulrich bei Steyr (AT) 0.00 km UNKNOWN
R2521140 RS41 2019-12-31 04:40:25 47.7514 15.0511 130 ° 28 km/h 1548 m -9.3 m/s 403.40 MHz Mariazell (AT) 0.00 km UNKNOWN
R2521199 RS41 2019-12-30 05:05:08 46.9268 13.3243 184 ° 26 km/h 3010 m -4.8 m/s 403.40 MHz Obervellach (AT) 0.00 km UNKNOWN
R2521189 RS41 2019-12-29 04:39:09 47.1105 13.8755 152 ° 33 km/h 2205 m -7.0 m/s 403.40 MHz Tamsweg (AT) 0.00 km UNKNOWN
R2521230 RS41 2019-12-28 04:50:50 46.8096 14.1419 174 ° 35 km/h 1443 m -5.6 m/s 403.40 MHz Feldkirchen (AT) 0.00 km FOUND
R2521215 RS41 2019-12-27 05:20:27 47.575 15.3584 200 ° 15 km/h 1313 m -2.8 m/s 403.40 MHz Kindberg (AT) 0.00 km FOUND
R2521216 RS41 2019-12-26 05:03:59 46.7473 15.4473 96 ° 6 km/h 499 m -2.5 m/s 403.40 MHz Großklein (AT) 0.00 km FOUND
R2521224 RS41 2019-12-25 04:46:29 47.4964 15.3765 53 ° 26 km/h 1063 m -7.3 m/s 403.40 MHz Sankt Lorenzen im Mürztal (AT) 0.00 km UNKNOWN
R2521223 RS41 2019-12-24 04:55:23 47.4331 15.1182 100 ° 39 km/h 1218 m -10.4 m/s 403.40 MHz Niklasdorf (AT) 0.00 km FOUND
R2521319 RS41 2019-12-23 05:02:12 48.0183 15.1158 83 ° 74 km/h 662 m -6.3 m/s 403.40 MHz Scheibbs (AT) 0.00 km FOUND
R2521317 RS41 2019-12-22 04:57:04 48.3817 15.4608 296 ° 9 km/h 530 m -5.2 m/s 403.40 MHz Paudorf (AT) 0.00 km LOST
R2521298 RS41 2019-12-21 04:45:08 48.6721 15.2783 76 ° 24 km/h 698 m -6.1 m/s 403.40 MHz Zwettl (AT) 0.00 km NEED ATTENTION
P2510206 RS41 2019-12-20 04:55:30 48.4776 14.7275 335 ° 35 km/h 983 m -5.6 m/s 403.40 MHz Unterweissenbach (AT) 0.00 km UNKNOWN
P2510205 RS41 2019-12-19 05:00:23 48.629 14.9342 300 ° 15 km/h 846 m -4.6 m/s 403.40 MHz Grossgerungs (AT) 0.00 km FOUND
P2510207 RS41 2019-12-18 05:04:51 48.8934 15.5832 119 ° 4 km/h 598 m -8.2 m/s 403.40 MHz Raabs an der Thaya (AT) 0.00 km FOUND
P2220592 RS41 2019-12-17 05:20:27 48.7511 16.0297 218 ° 13 km/h 291 m -5.3 m/s 403.40 MHz Retz (AT) 0.00 km UNKNOWN
P2220591 RS41 2019-12-16 05:09:15 48.3662 15.9801 259 ° 15 km/h 255 m -3.2 m/s 403.40 MHz Tulln (AT) 0.00 km FOUND
P2440692 RS41 2019-12-15 12:02:08 48.2769 16.1576 23 ° 19 km/h 482 m -3.6 m/s 403.40 MHz Königstetten (AT) 0.00 km FOUND
P2220580 RS41 2019-12-14 04:42:10 47.8206 15.4457 95 ° 26 km/h 1452 m -5.3 m/s 403.40 MHz Mariazell (AT) 0.00 km UNKNOWN
P2440066 RS41 2019-12-13 05:13:13 48.2055 15.1523 268 ° 17 km/h 317 m -3.0 m/s 403.40 MHz Pöchlarn (AT) 0.00 km FOUND
P2440748 RS41 2019-12-12 04:51:22 48.7028 14.7116 80 ° 24 km/h 1066 m -7.1 m/s 403.40 MHz Weitra (AT) 0.00 km UNKNOWN
P2440694 RS41 2019-12-11 04:55:06 47.611 14.0669 207 ° 24 km/h 2203 m -4.1 m/s 403.40 MHz Stainach (AT) 0.00 km UNKNOWN
P2440067 RS41 2019-12-10 05:15:42 47.8484 15.0181 124 ° 30 km/h 1092 m -2.0 m/s 403.40 MHz Gaming (AT) 0.00 km UNKNOWN
P2220493 RS41 2019-12-09 05:07:55 48.758 16.0344 6 ° 9 km/h 350 m -4.5 m/s 403.40 MHz Retz (AT) 0.00 km FOUND
P2440755 RS41 2019-12-08 05:20:38 47.1645 15.241 34 ° 11 km/h 1138 m -2.3 m/s 403.40 MHz Eisbach (AT) 0.00 km FOUND
P2440685 RS41 2019-12-07 04:44:04 48.1527 15.5646 56 ° 22 km/h 424 m -7.8 m/s 403.40 MHz Obergrafendorf (AT) 0.00 km FOUND
P2440057 RS41 2019-12-06 04:48:24 48.3359 14.7579 44 ° 6 km/h 755 m -4.3 m/s 403.40 MHz Tragwein (AT) 0.00 km UNKNOWN
P2220712 RS41 2019-12-04 05:05:35 47.5794 14.326 360 ° 4 km/h 1891 m -8.2 m/s 403.40 MHz Rottenmann (AT) 0.00 km FOUND
P2510225 RS41 2019-12-03 10:02:37 47.2143 14.5962 147 ° 15 km/h 1701 m -2.9 m/s 403.40 MHz Pöls (AT) 0.00 km UNKNOWN
P2510234 RS41 2019-12-02 05:00:00 48.2597 16.4393 283 ° 7 km/h 234 m -5.0 m/s 403.40 MHz Gerasdorf bei Wien (AT) 0.00 km FOUND
P2220711 RS41 2019-12-01 05:31:56 47.6601 16.3144 331 ° 19 km/h 618 m -2.6 m/s 403.40 MHz Wiesen (AT) 0.00 km FOUND
P2440687 RS41 2019-11-30 04:51:40 47.8621 15.8364 109 ° 48 km/h 1123 m -7.0 m/s 403.40 MHz Puchberg am Schneeberg (AT) 0.00 km FOUND
P2440686 RS41 2019-11-29 04:57:43 48.1169 15.9827 88 ° 30 km/h 590 m -5.7 m/s 403.40 MHz Altlengbach (AT) 0.00 km UNKNOWN
P2440745 RS41 2019-11-28 05:05:07 48.2728 16.0294 21 ° 2 km/h 323 m -7.0 m/s 403.40 MHz Sieghartskirchen (AT) 0.00 km FOUND
P2510229 RS41 2019-11-27 05:36:04 48.0472 15.9529 312 ° 20 km/h 662 m -3.9 m/s 403.40 MHz Alland (AT) 0.00 km FOUND
P2220581 RS41 2019-11-26 04:54:44 48.1094 15.1547 87 ° 24 km/h 558 m -9.8 m/s 403.40 MHz Wieselburg (AT) 0.00 km FOUND
P2220582 RS41 2019-11-25 04:53:53 48.0282 14.9404 283 ° 11 km/h 671 m -8.5 m/s 403.40 MHz Euratsfeld (AT) 0.00 km FOUND
P2440749 RS41 2019-11-24 05:15:41 48.3061 15.1961 223 ° 4 km/h 676 m -6.8 m/s 403.40 MHz Pöggstall (AT) 0.00 km FOUND
P2440693 RS41 2019-11-23 05:23:29 48.5293 15.4611 299 ° 44 km/h 656 m -4.4 m/s 403.40 MHz Gföhl (AT) 0.00 km FOUND
P2220578 RS41 2019-11-22 05:08:19 48.6626 14.7236 331 ° 26 km/h 993 m -6.4 m/s 403.40 MHz Weitra (AT) 0.00 km UNKNOWN
P2220579 RS41 2019-11-21 05:02:35 48.5578 14.3148 253 ° 4 km/h 900 m -6.0 m/s 403.40 MHz Vorderweissenbach (AT) 0.00 km FOUND
R2450277 RS41 2019-11-20 04:49:56 48.6224 14.5151 180 ° 4 km/h 844 m -7.4 m/s 403.40 MHz Rainbach im Mühlkreis (AT) 0.00 km UNKNOWN
R2450281 RS41 2019-11-19 05:01:08 48.5889 15.0776 196 ° 4 km/h 736 m -8.6 m/s 403.40 MHz Zwettl (AT) 0.00 km FOUND
R2450259 RS41 2019-11-18 05:15:36 49.1836 14.021 338 ° 43 km/h 1572 m -5.7 m/s 403.40 MHz Vodňany (CZ) 0.00 km FOUND
P2220590 RS41 2019-11-17 05:02:35 49.6415 14.7673 318 ° 50 km/h 959 m -4.7 m/s 403.40 MHz Vlašim (CZ) 0.00 km UNKNOWN
P2350837 RS41 2019-11-16 04:38:31 49.8581 15.1074 26 ° 96 km/h 3945 m -11.8 m/s 403.40 MHz Kutná Hora (CZ) 0.00 km FOUND
P2510208 RS41 2019-11-15 16:13:21 49.1399 14.6897 298 ° 39 km/h 542 m -9.3 m/s 403.40 MHz Veselí nad Lužnicí (CZ) 0.00 km FOUND
P2440254 RS41 2019-11-14 05:02:33 48.8061 15.2168 305 ° 13 km/h 653 m -5.2 m/s 403.40 MHz Waidhofen an der Thaya (AT) 0.00 km FOUND
P2220554 RS41 2019-11-13 15:19:25 49.1485 14.807 108 ° 19 km/h 552 m -5.1 m/s 405.10 MHz Veselí nad Lužnicí (CZ) 0.00 km FOUND
P2220594 RS41 2019-11-13 12:48:25 49.2689 14.5689 85 ° 9 km/h 630 m -2.3 m/s 403.40 MHz Soběslav (CZ) 0.00 km UNKNOWN
P2510223 RS41 2019-11-13 04:48:33 49.2592 14.4225 192 ° 11 km/h 1574 m -5.7 m/s 403.40 MHz Týn nad Vltavou (CZ) 0.00 km FOUND
P2510230 RS41 2019-11-12 05:01:35 48.9309 15.2194 111 ° 19 km/h 736 m -7.3 m/s 403.40 MHz Heidenreichstein (AT) 0.00 km FOUND
P2510224 RS41 2019-11-11 04:19:38 48.378 14.7735 256 ° 15 km/h 809 m -6.7 m/s 403.40 MHz Königswiesen (AT) 0.00 km UNKNOWN
P2220553 RS41 2019-11-10 06:37:33 48.772 14.7689 253 ° 4 km/h 664 m -8.1 m/s 403.40 MHz Weitra (AT) 0.00 km UNKNOWN
P2440691 RS41 2019-11-08 05:09:47 49.0134 15.3046 294 ° 30 km/h 754 m -4.8 m/s 403.40 MHz Dačice (CZ) 0.00 km FOUND
P2220611 RS41 2019-11-07 04:46:14 48.4772 15.032 56 ° 9 km/h 870 m -9.7 m/s 403.40 MHz Grossgerungs (AT) 0.00 km UNKNOWN
P2220541 RS41 2019-11-06 04:53:52 48.7914 15.5385 96 ° 24 km/h 687 m -9.5 m/s 403.40 MHz Raabs an der Thaya (AT) 0.00 km FOUND
P2440696 RS41 2019-11-05 14:01:01 49.0091 15.9474 110 ° 20 km/h 654 m -5.8 m/s 403.40 MHz Moravské Budějovice (CZ) 0.00 km FOUND
P2440750 RS41 2019-11-05 05:16:24 48.5875 16.2192 341 ° 15 km/h 380 m -5.4 m/s 403.40 MHz Wullersdorf (AT) 0.00 km FOUND
P2440747 RS41 2019-11-04 05:25:06 48.9895 15.7577 74 ° 50 km/h 643 m -6.1 m/s 403.40 MHz Moravské Budějovice (CZ) 0.00 km UNKNOWN
P2220710 RS41 2019-11-03 05:00:24 48.6132 15.4101 294 ° 17 km/h 646 m -7.8 m/s 403.40 MHz Gföhl (AT) 0.00 km FOUND
P2440756 RS41 2019-11-02 05:18:45 48.0825 15.8802 333 ° 15 km/h 698 m -3.5 m/s 403.40 MHz Altlengbach (AT) 0.00 km FOUND
P2220544 RS41 2019-11-01 05:33:51 47.7996 14.9984 8 ° 7 km/h 1334 m -2.6 m/s 403.40 MHz Gaming (AT) 0.00 km UNKNOWN
P2220608 RS41 2019-10-31 05:07:42 47.8785 14.9818 358 ° 9 km/h 1187 m -4.3 m/s 403.40 MHz Gaming (AT) 0.00 km UNKNOWN
P2220612 RS41 2019-10-30 05:33:21 48.0334 16.0753 216 ° 11 km/h 560 m -4.0 m/s 403.40 MHz Alland (AT) 0.00 km FOUND
P2440746 RS41 2019-10-29 04:59:02 48.1347 15.6284 269 ° 15 km/h 587 m -7.5 m/s 403.40 MHz Wilhelmsburg (AT) 0.00 km FOUND
P2440695 RS41 2019-10-28 05:07:51 48.1195 15.7274 46 ° 17 km/h 654 m -8.7 m/s 403.40 MHz Pyhra (AT) 0.00 km FOUND
P2440690 RS41 2019-10-27 05:03:32 48.2063 14.696 136 ° 6 km/h 342 m -7.3 m/s 403.40 MHz Perg (AT) 0.00 km FOUND
P2220575 RS41 2019-10-26 03:58:34 48.0858 14.6281 16 ° 0 km/h 519 m -9.8 m/s 403.40 MHz Sankt Peter in der Au Markt (AT) 0.00 km FOUND
P2220573 RS41 2019-10-25 04:03:52 48.4681 15.0064 101 ° 31 km/h 1014 m -9.0 m/s 403.40 MHz Grossgerungs (AT) 0.00 km UNKNOWN
P2220574 RS41 2019-10-24 04:12:31 48.6066 14.7435 13 ° 20 km/h 1077 m -3.1 m/s 403.40 MHz Weitra (AT) 0.00 km UNKNOWN
P2220713 RS41 2019-10-23 04:04:53 48.4168 14.8479 258 ° 15 km/h 864 m -7.3 m/s 403.40 MHz Königswiesen (AT) 0.00 km UNKNOWN
P2220709 RS41 2019-10-22 04:05:30 48.5581 15.0412 87 ° 15 km/h 850 m -4.2 m/s 403.40 MHz Grossgerungs (AT) 0.00 km FOUND
P2510212 RS41 2019-10-21 04:09:03 48.5929 15.2722 279 ° 7 km/h 633 m -5.4 m/s 403.40 MHz Zwettl (AT) 0.00 km FOUND
P2220555 RS41 2019-10-20 04:14:56 48.5336 15.6665 246 ° 7 km/h 494 m -8.6 m/s 403.40 MHz Gars am Kamp (AT) 0.00 km FOUND
P2510214 RS41 2019-10-19 04:04:25 48.5197 15.3569 275 ° 7 km/h 769 m -7.9 m/s 403.40 MHz Gföhl (AT) 0.00 km FOUND
P2220593 RS41 2019-10-18 04:21:54 48.6682 15.2852 108 ° 6 km/h 682 m -4.5 m/s 403.40 MHz Zwettl (AT) 0.00 km NEED ATTENTION
P2220556 RS41 2019-10-17 04:20:46 48.4277 15.0145 320 ° 7 km/h 938 m -5.3 m/s 403.40 MHz Königswiesen (AT) 0.00 km UNKNOWN
P2220597 RS41 2019-10-16 04:27:08 49.0546 14.8828 87 ° 20 km/h 542 m -4.1 m/s 403.40 MHz Třeboň (CZ) 0.00 km UNKNOWN
P2220557 RS41 2019-10-15 04:13:58 48.7087 14.9068 337 ° 9 km/h 629 m -10.5 m/s 403.40 MHz Weitra (AT) 0.00 km FOUND
P2220596 RS41 2019-10-14 04:36:15 48.2359 15.2908 313 ° 4 km/h 383 m -5.4 m/s 403.40 MHz Melk (AT) 0.00 km FOUND
P2220598 RS41 2019-10-13 04:13:40 48.3423 15.5858 157 ° 9 km/h 508 m -2.4 m/s 403.40 MHz Paudorf (AT) 0.00 km FOUND
P2220595 RS41 2019-10-12 04:06:00 48.2074 15.5843 68 ° 17 km/h 427 m -6.9 m/s 403.40 MHz Sankt Pölten (AT) 0.00 km NEED ATTENTION
R2440613 RS41 2019-10-10 04:12:13 48.567 16.7966 74 ° 26 km/h 276 m -8.1 m/s 403.40 MHz Zistersdorf (AT) 0.00 km UNKNOWN
P2510215 RS41 2019-10-09 04:48:25 48.4565 16.725 1 ° 15 km/h 280 m -7.5 m/s 405.10 MHz Zistersdorf (AT) 0.00 km UNKNOWN
P2510226 RS41 2019-10-08 04:12:06 47.1902 14.9065 57 ° 6 km/h 1294 m -5.4 m/s 403.40 MHz Sankt Margarethen bei Knittelfeld (AT) 0.00 km FOUND
P2510227 RS41 2019-10-07 04:05:35 47.6413 15.0675 112 ° 31 km/h 2092 m -7.4 m/s 403.40 MHz Eisenerz (AT) 0.00 km UNKNOWN
P2510216 RS41 2019-10-06 04:13:35 47.4223 15.9037 121 ° 11 km/h 757 m -8.0 m/s 403.40 MHz Vorau (AT) 0.00 km FOUND
P2510232 RS41 2019-10-05 04:10:28 47.7839 15.9406 86 ° 28 km/h 963 m -10.3 m/s 403.40 MHz Puchberg am Schneeberg (AT) 0.00 km FOUND
P2510210 RS41 2019-10-04 04:16:58 47.5757 15.5367 111 ° 20 km/h 1266 m -4.5 m/s 403.40 MHz Krieglach (AT) 0.00 km FOUND
P2510233 RS41 2019-10-03 04:29:25 48.6774 15.9004 115 ° 50 km/h 465 m -3.7 m/s 403.40 MHz Zellerndorf (AT) 0.00 km FOUND
P2510213 RS41 2019-10-02 04:43:36 48.9388 16.0792 64 ° 19 km/h 381 m -3.5 m/s 403.40 MHz Znojmo (CZ) 0.00 km UNKNOWN
P2510211 RS41 2019-10-01 04:08:53 48.1287 15.9136 17 ° 6 km/h 567 m -4.7 m/s 403.40 MHz Altlengbach (AT) 0.00 km FOUND
P2510228 RS41 2019-09-30 03:56:37 48.2589 16.5012 65 ° 20 km/h 226 m -4.4 m/s 403.40 MHz Gerasdorf bei Wien (AT) 0.00 km FOUND
P4921041 RS41 2019-09-29 04:10:36 47.9825 15.8439 60 ° 17 km/h 903 m -9.3 m/s 403.40 MHz Hainfeld (AT) 0.00 km UNKNOWN
P4920765 RS41 2019-09-28 04:33:41 48.2904 16.4571 80 ° 26 km/h 217 m -2.9 m/s 403.40 MHz Gerasdorf bei Wien (AT) 0.00 km FOUND
P4921043 RS41 2019-09-27 04:19:51 47.6361 15.658 9 ° 6 km/h 1175 m -4.1 m/s 403.40 MHz Mürzzuschlag (AT) 0.00 km FOUND
P4920675 RS41 2019-09-26 04:19:57 47.8722 15.355 100 ° 44 km/h 1396 m -10.2 m/s 403.40 MHz Mariazell (AT) 0.00 km FOUND
P4921111 RS41 2019-09-25 04:26:58 48.0499 15.9102 101 ° 30 km/h 818 m -5.1 m/s 403.40 MHz Hainfeld (AT) 0.00 km FOUND
P4921040 RS41 2019-09-24 04:21:37 47.9376 15.0165 111 ° 26 km/h 878 m -2.6 m/s 403.40 MHz Gaming (AT) 0.00 km FOUND
P4920763 RS41 2019-09-23 04:10:10 48.2111 15.121 309 ° 7 km/h 342 m -1.6 m/s 403.40 MHz Pöchlarn (AT) 0.00 km FOUND
P4921050 RS41 2019-09-21 04:34:08 48.0232 14.6165 295 ° 22 km/h 496 m -6.1 m/s 405.10 MHz Sankt Peter in der Au Markt (AT) 0.00 km FOUND
P4921049 RS41 2019-09-20 04:07:14 47.4389 14.7334 141 ° 9 km/h 1820 m -5.1 m/s 405.10 MHz Eisenerz (AT) 0.00 km UNKNOWN
P4921047 RS41 2019-09-19 03:41:44 47.7256 15.5625 158 ° 13 km/h 1761 m -9.5 m/s 403.40 MHz Neuberg an der Mürz (AT) 0.00 km FOUND
P4920764 RS41 2019-09-18 04:11:11 47.6782 16.1315 186 ° 30 km/h 436 m -7.0 m/s 403.40 MHz Pitten (AT) 0.00 km UNKNOWN
P4921044 RS41 2019-09-17 04:13:23 47.6889 15.7084 228 ° 17 km/h 1710 m -18.6 m/s 403.40 MHz Reichenau (AT) 0.00 km FOUND
P4921037 RS41 2019-09-16 04:56:08 47.9297 15.2738 88 ° 31 km/h 1100 m -4.2 m/s 403.40 MHz Scheibbs (AT) 0.00 km FOUND
P4921042 RS41 2019-09-15 04:45:14 47.7943 14.7687 121 ° 9 km/h 1376 m -2.7 m/s 403.40 MHz Weyer Markt (AT) 0.00 km UNKNOWN
P4921048 RS41 2019-09-14 04:39:34 47.6777 15.7677 303 ° 6 km/h 807 m -4.1 m/s 403.40 MHz Reichenau (AT) 0.00 km FOUND
P4921034 RS41 2019-09-13 02:54:26 48.0544 14.3801 50 ° 6 km/h 498 m -10.8 m/s 403.40 MHz Steyr (AT) 0.00 km FOUND
P4921035 RS41 2019-09-12 04:23:25 47.3613 14.3743 144 ° 35 km/h 2390 m -4.9 m/s 403.40 MHz Trieben (AT) 0.00 km FOUND
P4921036 RS41 2019-09-11 04:39:23 48.5734 14.8433 295 ° 17 km/h 1038 m -3.9 m/s 403.40 MHz Grossgerungs (AT) 0.00 km FOUND
P4921046 RS41 2019-09-10 04:16:41 48.4306 15.255 56 ° 7 km/h 902 m -5.5 m/s 405.10 MHz Pöggstall (AT) 0.00 km FOUND
P4921055 RS41 2019-09-09 04:24:16 48.9552 14.1144 122 ° 20 km/h 1526 m -5.0 m/s 403.40 MHz Prachatice (CZ) 0.00 km FOUND
P4921045 RS41 2019-09-08 04:22:31 48.6428 14.796 207 ° 13 km/h 1004 m -7.8 m/s 403.40 MHz Weitra (AT) 0.00 km FOUND
P4920717 RS41 2019-09-07 04:29:10 48.9716 14.6504 145 ° 6 km/h 732 m -6.1 m/s 403.40 MHz Třeboň (CZ) 0.00 km LOST
P4921051 RS41 2019-09-06 04:38:09 48.8657 15.0394 158 ° 15 km/h 637 m -5.7 m/s 403.40 MHz Heidenreichstein (AT) 0.00 km FOUND
P4921053 RS41 2019-09-05 04:19:23 48.4735 14.8828 121 ° 24 km/h 1068 m -9.2 m/s 403.40 MHz Königswiesen (AT) 0.00 km NEED ATTENTION
P4920721 RS41 2019-09-04 04:16:45 48.0011 14.6527 353 ° 4 km/h 631 m -6.4 m/s 405.10 MHz Biberbach (AT) 0.00 km FOUND
P4921033 RS41 2019-09-03 04:18:26 47.9831 14.8888 69 ° 11 km/h 826 m -7.2 m/s 403.40 MHz Ybbsitz (AT) 0.00 km UNKNOWN
P4920716 RS41 2019-09-02 04:12:30 48.4082 14.6469 96 ° 4 km/h 737 m -9.1 m/s 405.10 MHz Gutau (AT) 0.00 km UNKNOWN
P4920714 RS41 2019-09-01 04:32:51 48.2812 14.4916 162 ° 4 km/h 398 m -3.5 m/s 405.10 MHz Langenstein (AT) 0.00 km FOUND
P4921056 RS41 2019-08-31 04:54:03 48.4372 13.9532 326 ° 9 km/h 621 m -3.0 m/s 403.40 MHz Altenfelden (AT) 0.00 km FOUND
P4921052 RS41 2019-08-30 04:54:36 48.2881 14.2388 281 ° 6 km/h 350 m -3.4 m/s 403.40 MHz Leonding (AT) 0.00 km FOUND
P4921054 RS41 2019-08-29 04:18:32 48.3166 14.4388 114 ° 4 km/h 501 m -7.2 m/s 405.10 MHz Katsdorf (AT) 0.00 km FOUND
P4920676 RS41 2019-08-28 03:53:03 48.2465 14.5311 71 ° 46 km/h 15320 m -17.0 m/s 403.40 MHz Mauthausen (AT) 0.00 km FOUND
P4930261 RS41 2019-08-27 04:29:53 48.2807 14.2286 200 ° 4 km/h 369 m -7.3 m/s 405.10 MHz Leonding (AT) 0.00 km FOUND
P4920766 RS41 2019-08-26 03:51:51 48.3209 14.0287 169 ° 7 km/h 363 m -7.6 m/s 403.40 MHz Eferding (AT) 0.00 km FOUND
P4930259 RS41 2019-08-25 04:33:04 48.3971 14.0138 267 ° 7 km/h 560 m -5.0 m/s 403.40 MHz Sankt Martin im Mühlkreis (AT) 0.00 km UNKNOWN
P4920767 RS41 2019-08-24 05:02:09 48.5568 14.1351 205 ° 26 km/h 803 m -3.9 m/s 405.10 MHz Vorderweissenbach (AT) 0.00 km FOUND
P4930260 RS41 2019-08-23 04:20:46 48.379 14.5347 203 ° 11 km/h 534 m -6.1 m/s 403.40 MHz Hagenberg im Mühlkreis (AT) 0.00 km FOUND
P4920677 RS41 2019-08-22 04:11:25 48.6063 15.0254 292 ° 11 km/h 766 m -8.4 m/s 403.40 MHz Grossgerungs (AT) 0.00 km FOUND
P2440186 RS41 2019-08-21 04:46:39 49.3178 15.6176 154 ° 43 km/h 864 m -4.3 m/s 405.10 MHz Jihlava (CZ) 0.00 km UNKNOWN
P2440059 RS41 2019-08-20 03:49:27 48.6338 15.6786 145 ° 9 km/h 480 m -5.3 m/s 403.40 MHz Horn (AT) 0.00 km FOUND
P2440724 RS41 2019-08-19 04:50:51 48.9691 15.5737 145 ° 37 km/h 788 m -3.5 m/s 403.40 MHz Raabs an der Thaya (AT) 0.00 km LOST
P2440056 RS41 2019-08-18 04:32:41 47.9438 15.4519 28 ° 17 km/h 1131 m -4.0 m/s 403.40 MHz Kirchberg an der Pielach (AT) 0.00 km FOUND
P5110105 RS41 2019-08-17 04:39:27 47.5829 15.0085 132 ° 17 km/h 1770 m -2.8 m/s 403.40 MHz Eisenerz (AT) 0.00 km UNKNOWN
P2440058 RS41 2019-08-16 04:10:27 48.2661 14.9078 78 ° 22 km/h 670 m -8.0 m/s 403.40 MHz Waldhausen im Strudengau (AT) 0.00 km FOUND
P2440061 RS41 2019-08-15 04:18:13 48.1167 14.7523 314 ° 9 km/h 479 m -6.1 m/s 403.40 MHz Aschbach Markt (AT) 0.00 km FOUND
P2440062 RS41 2019-08-14 04:07:46 49.051 15.1184 109 ° 19 km/h 739 m -12.3 m/s 403.40 MHz Litschau (AT) 0.00 km FOUND
P2440721 RS41 2019-08-13 04:29:41 49.1964 15.5267 111 ° 28 km/h 864 m -5.0 m/s 403.40 MHz Telč (CZ) 0.00 km UNKNOWN
P2440064 RS41 2019-08-12 04:33:07 48.913 15.3676 108 ° 33 km/h 707 m -4.4 m/s 403.40 MHz Raabs an der Thaya (AT) 0.00 km FOUND
P2440055 RS41 2019-08-11 04:43:22 48.5014 15.5982 137 ° 17 km/h 518 m -4.8 m/s 403.40 MHz Langenlois (AT) 0.00 km FOUND
P2440065 RS41 2019-08-10 04:21:54 48.1361 15.1589 149 ° 7 km/h 366 m -5.0 m/s 403.40 MHz Wieselburg (AT) 0.00 km FOUND
P4920668 RS41 2019-08-09 04:18:30 47.7394 15.3613 56 ° 9 km/h 1563 m -5.9 m/s 403.40 MHz Mariazell (AT) 0.00 km UNKNOWN
P4920839 RS41 2019-08-08 04:32:49 48.2943 15.9878 74 ° 31 km/h 265 m -5.2 m/s 403.40 MHz Langenrohr (AT) 0.00 km FOUND
P4920838 RS41 2019-08-07 04:01:27 48.2838 15.4264 319 ° 7 km/h 356 m -10.6 m/s 403.40 MHz Melk (AT) 0.00 km FOUND
P4920670 RS41 2019-08-06 04:00:31 47.8841 15.589 117 ° 28 km/h 1172 m -10.3 m/s 403.40 MHz Lilienfeld (AT) 0.00 km FOUND
P5110106 RS41 2019-08-05 04:16:11 47.8114 15.0467 64 ° 7 km/h 1628 m -6.1 m/s 403.40 MHz Gaming (AT) 0.00 km UNKNOWN
P4920836 RS41 2019-08-04 04:38:22 47.6833 15.2484 154 ° 28 km/h 1668 m -3.9 m/s 403.40 MHz Mariazell (AT) 0.00 km UNKNOWN
P5110103 RS41 2019-08-03 04:13:15 48.2171 15.3287 79 ° 33 km/h 446 m -7.0 m/s 405.10 MHz Melk (AT) 0.00 km LOST
P5110056 RS41 2019-08-02 04:10:16 48.2586 15.2412 214 ° 4 km/h 466 m -6.5 m/s 403.40 MHz Pöggstall (AT) 0.00 km FOUND
P2350826 RS41 2019-08-01 04:30:31 48.3072 15.4065 338 ° 7 km/h 303 m -3.6 m/s 403.40 MHz Melk (AT) 0.00 km NEED ATTENTION
P5110101 RS41 2019-07-31 04:16:52 48.59 14.7227 148 ° 24 km/h 1228 m -8.8 m/s 405.10 MHz Sankt Oswald bei Freistadt (AT) 0.00 km FOUND
P2440138 RS41 2019-07-30 04:12:43 48.0077 14.274 76 ° 15 km/h 543 m -7.1 m/s 403.40 MHz Waldneukirchen (AT) 0.00 km FOUND
P4920671 RS41 2019-07-29 04:23:29 48.1318 13.719 107 ° 11 km/h 559 m -6.0 m/s 403.40 MHz Gaspoltshofen (AT) 0.00 km UNKNOWN
P4920837 RS41 2019-07-28 04:14:42 48.6166 14.0983 231 ° 15 km/h 985 m -5.5 m/s 405.10 MHz Haslach an der Mühl (AT) 0.00 km FOUND
P4920669 RS41 2019-07-27 04:13:21 48.1649 14.7416 263 ° 13 km/h 355 m -8.8 m/s 403.40 MHz Ardagger Markt (AT) 0.00 km FOUND
P4920679 RS41 2019-07-26 03:57:18 47.9173 14.6017 25 ° 4 km/h 988 m -8.7 m/s 405.10 MHz Grossraming (AT) 0.00 km FOUND
P4920672 RS41 2019-07-25 04:27:58 47.9724 14.2374 255 ° 2 km/h 597 m -8.0 m/s 405.10 MHz Gründberg (AT) 0.00 km FOUND
P4920469 RS41 2019-07-24 04:08:24 47.9082 14.2746 245 ° 7 km/h 1350 m -6.3 m/s 405.10 MHz Molln (AT) 0.00 km FOUND
P4920680 RS41 2019-07-23 04:40:05 47.4522 14.0579 162 ° 24 km/h 2742 m -5.3 m/s 405.10 MHz Irdning (AT) 0.00 km UNKNOWN
P4920678 RS41 2019-07-22 04:15:29 47.8393 14.6595 115 ° 17 km/h 1296 m -5.2 m/s 403.40 MHz Weyer Markt (AT) 0.00 km UNKNOWN
P5110107 RS41 2019-07-21 04:49:10 48.139 15.3844 83 ° 19 km/h 375 m -3.9 m/s 403.40 MHz Mank (AT) 0.00 km FOUND
P2220610 RS41 2019-07-20 04:10:25 47.9146 15.0061 59 ° 11 km/h 1041 m -8.2 m/s 405.10 MHz Gaming (AT) 0.00 km NEED ATTENTION
P2350804 RS41 2019-07-19 04:17:16 47.9725 14.8007 73 ° 15 km/h 858 m -6.2 m/s 405.10 MHz Waidhofen an der Ybbs (AT) 0.00 km FOUND
P2440063 RS41 2019-07-18 04:17:59 47.9761 15.062 72 ° 19 km/h 773 m -4.0 m/s 403.40 MHz Gaming (AT) 0.00 km FOUND
P2440722 RS41 2019-07-17 04:04:27 47.9174 14.8133 102 ° 15 km/h 970 m -7.0 m/s 403.40 MHz Waidhofen an der Ybbs (AT) 0.00 km UNKNOWN
P2440137 RS41 2019-07-16 04:02:36 47.6865 14.2081 132 ° 2 km/h 1405 m -3.8 m/s 403.40 MHz Windischgarsten (AT) 0.00 km UNKNOWN
P2440043 RS41 2019-07-15 03:57:58 47.9547 14.3661 275 ° 2 km/h 515 m -9.3 m/s 403.40 MHz Ternberg (AT) 0.00 km FOUND
P2440060 RS41 2019-07-14 04:01:43 47.7684 14.6794 164 ° 22 km/h 1471 m -10.7 m/s 405.10 MHz Weyer Markt (AT) 0.00 km UNKNOWN
P2440125 RS41 2019-07-13 03:50:39 48.006 14.8883 108 ° 28 km/h 787 m -10.3 m/s 403.40 MHz Neuhofen an der Ybbs (AT) 0.00 km FOUND
P2350825 RS41 2019-07-12 04:20:50 47.8318 15.2535 70 ° 22 km/h 1279 m -4.0 m/s 403.40 MHz Mariazell (AT) 0.00 km UNKNOWN
P2450045 RS41 2019-07-11 04:00:35 47.5528 15.1183 81 ° 11 km/h 1481 m -6.4 m/s 405.10 MHz Thörl (AT) 0.00 km FOUND
P2440123 RS41 2019-07-10 04:34:14 47.6816 16.1238 147 ° 26 km/h 871 m -2.6 m/s 403.40 MHz Neunkirchen (AT) 0.00 km UNKNOWN
P2440142 RS41 2019-07-09 04:19:33 47.8705 16.1966 194 ° 7 km/h 475 m -3.0 m/s 403.40 MHz Theresienfeld (AT) 0.00 km FOUND
P2440140 RS41 2019-07-08 04:20:51 47.9863 16.1725 136 ° 22 km/h 611 m -5.7 m/s 403.40 MHz Bad Vöslau (AT) 0.00 km FOUND
P2450044 RS41 2019-07-07 03:58:41 48.267 15.4963 65 ° 33 km/h 621 m -6.7 m/s 403.40 MHz Loosdorf (AT) 0.00 km FOUND
P2440122 RS41 2019-07-06 04:03:31 47.9773 15.3834 88 ° 22 km/h 1024 m -5.3 m/s 405.10 MHz Kirchberg an der Pielach (AT) 0.00 km UNKNOWN
P2450046 RS41 2019-07-05 03:37:57 47.8789 15.1313 85 ° 33 km/h 1262 m -4.4 m/s 403.40 MHz Gaming (AT) 0.00 km UNKNOWN
P2450047 RS41 2019-07-04 03:56:42 48.1855 15.2493 270 ° 6 km/h 340 m -6.2 m/s 403.40 MHz Pöchlarn (AT) 0.00 km FOUND
P2450041 RS41 2019-07-03 04:30:10 48.2356 15.6288 202 ° 20 km/h 614 m -3.9 m/s 405.10 MHz Sankt Pölten (AT) 0.00 km FOUND
P2440133 RS41 2019-07-02 04:07:35 48.3211 15.0534 109 ° 17 km/h 1104 m -6.9 m/s 403.40 MHz Waldhausen im Strudengau (AT) 0.00 km FOUND
P2440141 RS41 2019-07-01 04:29:22 48.093 14.9103 57 ° 6 km/h 375 m -2.4 m/s 403.40 MHz Euratsfeld (AT) 0.00 km FOUND
P2440139 RS41 2019-06-30 04:00:21 47.96 14.3379 344 ° 6 km/h 518 m -10.5 m/s 403.40 MHz Ternberg (AT) 0.00 km FOUND
P2440135 RS41 2019-06-29 04:19:58 47.2729 14.031 174 ° 41 km/h 2798 m -6.1 m/s 403.40 MHz Oberwölz Stadt (AT) 0.00 km UNKNOWN
P2350828 RS41 2019-06-28 03:16:13 47.7589 14.7877 147 ° 6 km/h 1541 m -6.7 m/s 403.40 MHz Landl (AT) 0.00 km UNKNOWN
P2350824 RS41 2019-06-27 03:54:14 47.8834 14.5041 123 ° 26 km/h 1148 m -6.5 m/s 403.40 MHz Grossraming (AT) 0.00 km FOUND
P2440162 RS41 2019-06-26 04:01:16 47.9561 13.9639 304 ° 4 km/h 652 m -9.3 m/s 405.10 MHz Pettenbach (AT) 0.00 km FOUND
P2350827 RS41 2019-06-25 04:02:25 47.8808 13.9959 360 ° 11 km/h 1215 m -7.3 m/s 403.40 MHz Kirchdorf (AT) 0.00 km FOUND
P2350836 RS41 2019-06-24 04:35:27 47.916 13.9632 35 ° 11 km/h 752 m -2.9 m/s 403.40 MHz Scharnstein (AT) 0.00 km FOUND
P2440136 RS41 2019-06-23 04:34:50 48.4009 13.9185 25 ° 9 km/h 621 m -3.5 m/s 403.40 MHz Hartkirchen (AT) 0.00 km FOUND
P2440161 RS41 2019-06-22 04:15:41 48.4597 14.3437 218 ° 15 km/h 787 m -1.8 m/s 403.40 MHz Hellmonsödt (AT) 0.00 km FOUND
P2440134 RS41 2019-06-21 03:59:54 48.4661 14.6624 37 ° 7 km/h 895 m -10.7 m/s 403.40 MHz Sankt Oswald bei Freistadt (AT) 0.00 km UNKNOWN
P2440121 RS41 2019-06-19 04:25:21 48.3957 14.5706 83 ° 9 km/h 605 m -3.5 m/s 403.40 MHz Gutau (AT) 0.00 km UNKNOWN
P2350835 RS41 2019-06-18 04:11:09 48.5006 14.3933 208 ° 15 km/h 852 m -8.5 m/s 403.40 MHz Freistadt (AT) 0.00 km UNKNOWN
P2450037 RS41 2019-06-17 03:45:56 48.4909 14.4845 200 ° 15 km/h 804 m -6.2 m/s 405.10 MHz Freistadt (AT) 0.00 km FOUND
P2450039 RS41 2019-06-16 04:08:09 48.6613 14.2069 97 ° 19 km/h 1199 m -8.2 m/s 403.40 MHz Vorderweissenbach (AT) 0.00 km UNKNOWN
P2450042 RS41 2019-06-15 04:32:56 48.8239 14.6016 32 ° 20 km/h 766 m -3.3 m/s 403.40 MHz Trhové Sviny (CZ) 0.00 km UNKNOWN
P2450043 RS41 2019-06-14 04:21:08 48.5343 15.0492 206 ° 15 km/h 854 m -3.4 m/s 403.40 MHz Grossgerungs (AT) 0.00 km UNKNOWN
P2450053 RS41 2019-06-13 04:13:14 49.0702 14.5813 167 ° 22 km/h 675 m -8.3 m/s 403.40 MHz Hluboká nad Vltavou (CZ) 0.00 km UNKNOWN
P2450054 RS41 2019-06-12 04:30:52 48.8126 14.1104 358 ° 31 km/h 1227 m -4.2 m/s 403.40 MHz Český Krumlov (CZ) 0.00 km UNKNOWN
P2450052 RS41 2019-06-11 03:50:01 48.7975 14.0465 319 ° 17 km/h 999 m -5.7 m/s 405.10 MHz Ulrichsberg (AT) 0.00 km FOUND
P2450048 RS41 2019-06-10 04:14:04 48.6943 14.7688 332 ° 15 km/h 914 m -2.1 m/s 405.10 MHz Weitra (AT) 0.00 km UNKNOWN
P2450038 RS41 2019-06-09 03:58:23 48.5203 14.8924 274 ° 24 km/h 1020 m -6.6 m/s 405.10 MHz Grossgerungs (AT) 0.00 km FOUND
P2440185 RS41 2019-06-08 04:10:57 48.7122 15.0487 109 ° 37 km/h 684 m -4.0 m/s 405.10 MHz Schrems (AT) 0.00 km FOUND
P3810616 RS41 2019-06-07 04:58:50 48.4982 14.7738 33 ° 6 km/h 1051 m -2.8 m/s 403.40 MHz Unterweissenbach (AT) 0.00 km UNKNOWN
P2440044 RS41 2019-06-06 14:11:32 48.5201 14.4009 94 ° 15 km/h 980 m -5.9 m/s 403.40 MHz Rainbach im Mühlkreis (AT) 0.00 km FOUND
P3810615 RS41 2019-06-06 10:52:24 48.2753 14.5016 83 ° 20 km/h 453 m -10.4 m/s 403.40 MHz Ried in der Riedmark (AT) 0.00 km FOUND
P3810618 RS41 2019-06-06 03:31:09 48.1716 14.4275 290 ° 17 km/h 412 m -7.3 m/s 403.40 MHz Kronstorf (AT) 0.00 km FOUND
P2220609 RS41 2019-06-05 14:43:40 48.2328 13.8848 296 ° 20 km/h 425 m -1.6 m/s 403.40 MHz Schlüsslberg (AT) 0.00 km FOUND
M3913898 RS92 2019-06-03 04:05:44 48.0578 13.848 71 ° 7 km/h 507 m -5.6 m/s 403.40 MHz Stadl-Paura (AT) 0.00 km UNKNOWN
M4013426 RS92 2019-06-02 03:47:00 47.9118 13.9596 32 ° 4 km/h 811 m -15.1 m/s 403.40 MHz Scharnstein (AT) 0.00 km FOUND
M3913260 RS92 2019-06-01 03:54:54 47.858 13.6444 95 ° 9 km/h 1045 m -5.7 m/s 403.40 MHz Altmünster (AT) 0.00 km FOUND
M3833081 RS92 2019-05-31 03:52:59 47.7253 13.9303 196 ° 28 km/h 1631 m -6.4 m/s 403.40 MHz Ebensee (AT) 0.00 km FOUND
M3913907 RS92 2019-05-30 04:08:28 48.1902 14.0771 92 ° 26 km/h 378 m -4.2 m/s 403.40 MHz Marchtrenk (AT) 0.00 km FOUND
M3913288 RS92 2019-05-29 03:55:34 48.6486 14.4834 92 ° 19 km/h 881 m -5.0 m/s 403.40 MHz Rainbach im Mühlkreis (AT) 0.00 km UNKNOWN
M3813442 RS92 2019-05-28 04:11:41 48.9384 14.5753 107 ° 26 km/h 823 m -5.5 m/s 403.40 MHz České Budějovice (CZ) 0.00 km UNKNOWN
M3913914 RS92 2019-05-27 03:30:19 48.5653 14.7843 140 ° 13 km/h 1209 m -10.8 m/s 403.40 MHz Grossgerungs (AT) 0.00 km UNKNOWN
M3923075 RS92 2019-05-26 04:11:35 48.2739 14.7736 65 ° 7 km/h 552 m -3.3 m/s 403.40 MHz Grein (AT) 0.00 km FOUND
M3913456 RS92 2019-05-25 03:23:07 48.1995 14.5496 139 ° 6 km/h 355 m -11.1 m/s 403.40 MHz Sankt Pantaleon (AT) 0.00 km FOUND
M3913922 RS92 2019-05-24 03:50:22 47.7775 14.364 15 ° 19 km/h 1650 m -4.8 m/s 403.40 MHz Windischgarsten (AT) 0.00 km UNKNOWN
M3913450 RS92 2019-05-23 04:08:33 47.7455 14.282 85 ° 37 km/h 1572 m -4.1 m/s 403.40 MHz Windischgarsten (AT) 0.00 km FOUND
M3913909 RS92 2019-05-22 03:41:19 48.05 14.3037 109 ° 33 km/h 544 m -4.2 m/s 403.40 MHz Sierning (AT) 0.00 km FOUND
M3913913 RS92 2019-05-21 03:38:30 48.3197 14.2859 78 ° 4 km/h 379 m -5.4 m/s 403.40 MHz Linz (AT) 0.00 km UNKNOWN
M3913292 RS92 2019-05-20 04:06:11 48.4561 13.2535 103 ° 24 km/h 470 m -4.4 m/s 403.40 MHz Schärding (AT) 0.00 km UNKNOWN
M3913455 RS92 2019-05-19 03:01:26 48.5749 13.9652 293 ° 24 km/h 898 m -6.4 m/s 403.40 MHz Rohrbach (AT) 0.00 km FOUND
M3913262 RS92 2019-05-18 04:11:02 48.4559 13.9451 191 ° 15 km/h 620 m -5.9 m/s 403.40 MHz Altenfelden (AT) 0.00 km FOUND
M3833600 RS92 2019-05-17 03:52:48 48.338 14.0309 333 ° 19 km/h 377 m -4.5 m/s 403.40 MHz Feldkirchen an der Donau (AT) 0.00 km FOUND
M3923095 RS92 2019-05-16 04:08:04 48.05 13.7166 245 ° 13 km/h 579 m -4.4 m/s 403.40 MHz Attnang-Puchheim (AT) 0.00 km FOUND
M3913483 RS92 2019-05-15 03:56:28 48.207 13.3782 157 ° 20 km/h 599 m -3.7 m/s 403.40 MHz Mehrnbach (AT) 0.00 km FOUND
M3913307 RS92 2019-05-14 03:50:41 47.544 14.3115 216 ° 44 km/h 1924 m -5.1 m/s 403.40 MHz Rottenmann (AT) 0.00 km UNKNOWN
M3913286 RS92 2019-05-13 04:15:10 48.1974 13.6471 186 ° 7 km/h 557 m -4.8 m/s 403.40 MHz Haag am Hausruck (AT) 0.00 km UNKNOWN
M3843073 RS92 2019-05-12 03:34:49 48.3825 14.348 97 ° 13 km/h 689 m -9.7 m/s 403.40 MHz Altenberg bei Linz (AT) 0.00 km FOUND
M3913449 RS92 2019-05-11 03:18:35 47.9546 15.3111 66 ° 11 km/h 1041 m -4.1 m/s 403.40 MHz Kirchberg an der Pielach (AT) 0.00 km FOUND
M3913463 RS92 2019-05-10 04:12:31 48.0738 15.2669 79 ° 31 km/h 488 m -2.4 m/s 403.40 MHz Oberndorf an der Melk (AT) 0.00 km FOUND
M3913395 RS92 2019-05-09 04:08:17 48.6919 15.2808 111 ° 30 km/h 703 m -5.8 m/s 403.40 MHz Vitis (AT) 0.00 km FOUND
M3913416 RS92 2019-05-08 03:46:41 48.0253 15.1831 330 ° 4 km/h 1015 m -10.0 m/s 403.40 MHz Scheibbs (AT) 0.00 km LOST
M3913406 RS92 2019-05-07 04:13:28 47.936 15.005 146 ° 22 km/h 1078 m -3.1 m/s 403.40 MHz Gaming (AT) 0.00 km UNKNOWN
M3913195 RS92 2019-05-06 03:56:38 48.551 14.4407 146 ° 22 km/h 870 m -4.5 m/s 403.40 MHz Rainbach im Mühlkreis (AT) 0.00 km FOUND
M3913544 RS92 2019-05-05 03:55:40 48.8656 15.2289 161 ° 20 km/h 632 m -5.6 m/s 403.40 MHz Waidhofen an der Thaya (AT) 0.00 km FOUND
M3913299 RS92 2019-05-04 02:15:32 48.2524 14.3246 60 ° 59 km/h 5487 m 7.7 m/s 403.40 MHz Steyregg (AT) 0.00 km UNKNOWN
M3913934 RS92 2019-05-03 03:56:42 48.4392 15.3533 73 ° 37 km/h 814 m -2.1 m/s 403.40 MHz Gföhl (AT) 0.00 km FOUND
M3913385 RS92 2019-05-02 04:17:33 47.7324 15.0943 101 ° 20 km/h 1748 m -4.9 m/s 403.40 MHz Mariazell (AT) 0.00 km UNKNOWN
M3913291 RS92 2019-05-01 03:52:37 47.745 14.3121 154 ° 35 km/h 1885 m -4.8 m/s 403.40 MHz Windischgarsten (AT) 0.00 km FOUND
M3913396 RS92 2019-04-30 04:04:20 47.6886 14.0774 64 ° 24 km/h 2031 m -2.4 m/s 403.40 MHz Stainach (AT) 0.00 km UNKNOWN
M3913932 RS92 2019-04-29 04:17:23 47.9345 14.0356 57 ° 33 km/h 731 m -4.0 m/s 403.40 MHz Pettenbach (AT) 0.00 km FOUND
M3913384 RS92 2019-04-28 04:00:48 48.2419 14.7993 98 ° 39 km/h 506 m -3.7 m/s 403.40 MHz Grein (AT) 0.00 km FOUND
M3913398 RS92 2019-04-27 04:13:32 48.6232 14.3593 101 ° 19 km/h 788 m -4.1 m/s 403.40 MHz Rainbach im Mühlkreis (AT) 0.00 km UNKNOWN
M3913201 RS92 2019-04-26 06:51:58 48.4383 14.5772 185 ° 37 km/h 22154 m 4.6 m/s 403.40 MHz Gutau (AT) 0.00 km UNKNOWN
M3913469 RS92 2019-04-25 04:04:53 48.5617 14.9692 258 ° 15 km/h 832 m -3.9 m/s 403.40 MHz Grossgerungs (AT) 0.00 km FOUND
M3913402 RS92 2019-04-24 03:04:39 48.4117 14.3985 274 ° 9 km/h 701 m -11.4 m/s 403.40 MHz Alberndorf in der Riedmark (AT) 0.00 km UNKNOWN
M3913397 RS92 2019-04-22 03:52:00 47.923 14.3142 165 ° 2 km/h 1003 m -6.8 m/s 403.40 MHz Ternberg (AT) 0.00 km FOUND
M3913939 RS92 2019-04-21 03:41:20 47.6772 14.2702 150 ° 15 km/h 1635 m -3.3 m/s 403.40 MHz Spital am Pyhrn (AT) 0.00 km UNKNOWN
M3913941 RS92 2019-04-18 03:50:26 47.5143 14.3708 232 ° 22 km/h 2960 m -6.5 m/s 403.40 MHz Rottenmann (AT) 0.00 km UNKNOWN
M3913937 RS92 2019-04-17 03:54:18 47.394 14.7532 114 ° 26 km/h 2532 m -4.9 m/s 403.40 MHz Trofaiach (AT) 0.00 km UNKNOWN
M3853576 RS92 2019-04-16 03:50:45 47.7741 14.7958 324 ° 19 km/h 1394 m -7.0 m/s 403.40 MHz Weyer Markt (AT) 0.00 km FOUND
M3913495 RS92 2019-04-15 04:02:21 47.8879 14.1393 138 ° 6 km/h 850 m -9.0 m/s 403.40 MHz Micheldorf in Oberösterreich (AT) 0.00 km FOUND
M3913394 RS92 2019-04-13 02:27:15 48.3016 14.3155 54 ° 50 km/h 8872 m -24.3 m/s 403.40 MHz Linz (AT) 0.00 km UNKNOWN
M3913390 RS92 2019-04-12 03:59:53 48.4058 14.6266 254 ° 17 km/h 688 m -3.7 m/s 403.40 MHz Gutau (AT) 0.00 km FOUND
M3913403 RS92 2019-04-11 04:03:08 48.3623 14.391 157 ° 26 km/h 546 m -6.3 m/s 403.40 MHz Gallneukirchen (AT) 0.00 km FOUND
M3913305 RS92 2019-04-10 04:18:50 48.3719 14.4135 97 ° 2 km/h 451 m -1.9 m/s 403.40 MHz Gallneukirchen (AT) 0.00 km FOUND
M3913938 RS92 2019-04-09 10:51:23 48.3367 14.3824 142 ° 22 km/h 536 m -6.7 m/s 405.10 MHz Gallneukirchen (AT) 0.00 km FOUND
M3913452 RS92 2019-04-09 04:06:15 48.322 14.3465 44 ° 2 km/h 385 m -1.8 m/s 403.40 MHz Steyregg (AT) 0.00 km FOUND
M3913915 RS92 2019-04-08 11:03:28 48.3827 14.1526 21 ° 9 km/h 609 m -3.9 m/s 403.40 MHz Gramastetten (AT) 0.00 km FOUND
M3913404 RS92 2019-04-08 04:05:16 48.4218 14.2569 161 ° 17 km/h 911 m -5.3 m/s 403.40 MHz Hellmonsödt (AT) 0.00 km FOUND
M3913295 RS92 2019-04-07 03:55:48 48.4829 14.5426 191 ° 28 km/h 816 m -5.8 m/s 403.40 MHz Lasberg (AT) 0.00 km UNKNOWN
M3913194 RS92 2019-04-06 04:00:43 48.0951 14.3537 40 ° 6 km/h 467 m -5.1 m/s 403.40 MHz Dietach (AT) 0.00 km FOUND
M3913447 RS92 2019-04-05 04:00:09 48.5636 14.5557 45 ° 9 km/h 934 m -4.0 m/s 403.40 MHz Rainbach im Mühlkreis (AT) 0.00 km UNKNOWN
M3913413 RS92 2019-04-04 06:39:51 48.6636 14.8306 327 ° 31 km/h 885 m -4.0 m/s 403.40 MHz Weitra (AT) 0.00 km FOUND
M3913197 RS92 2019-04-03 03:44:00 48.5643 14.7762 19 ° 17 km/h 1140 m -3.4 m/s 403.40 MHz Grossgerungs (AT) 0.00 km UNKNOWN
M3913300 RS92 2019-04-02 03:36:06 48.1516 14.8893 284 ° 33 km/h 485 m -5.6 m/s 403.40 MHz Amstetten (AT) 0.00 km FOUND
M3913392 RS92 2019-04-01 11:01:31 48.2835 14.6884 324 ° 19 km/h 621 m -5.8 m/s 403.40 MHz Perg (AT) 0.00 km FOUND
M3913460 RS92 2019-03-31 03:44:59 48.6559 14.8601 134 ° 22 km/h 855 m -4.0 m/s 403.40 MHz Weitra (AT) 0.00 km FOUND
M3843300 RS92 2019-03-30 03:57:27 48.4256 13.9034 233 ° 19 km/h 582 m -2.9 m/s 403.40 MHz Altenfelden (AT) 0.00 km FOUND
M3833582 RS92 2019-03-29 04:05:58 48.1021 13.2728 283 ° 11 km/h 696 m -3.2 m/s 403.40 MHz Munderfing (AT) 0.00 km UNKNOWN
M3913538 RS92 2019-03-28 03:48:03 47.8021 13.9424 74 ° 7 km/h 1575 m -4.0 m/s 403.40 MHz Scharnstein (AT) 0.00 km UNKNOWN
M3753598 RS92 2019-03-27 03:41:31 47.5269 14.6304 158 ° 41 km/h 2355 m -9.1 m/s 403.40 MHz Trieben (AT) 0.00 km UNKNOWN
M3913317 RS92 2019-03-26 03:10:40 47.9756 14.8091 109 ° 33 km/h 958 m -7.0 m/s 403.40 MHz Waidhofen an der Ybbs (AT) 0.00 km FOUND
M3913931 RS92 2019-03-25 03:37:46 48.1175 16.1485 125 ° 28 km/h 626 m -6.2 m/s 403.40 MHz Breitenfurth bei Wien (AT) 0.00 km FOUND
M3913484 RS92 2019-03-24 03:47:42 48.1142 14.7625 40 ° 7 km/h 574 m -5.0 m/s 403.40 MHz Aschbach Markt (AT) 0.00 km FOUND
M3913908 RS92 2019-03-23 03:44:17 47.9542 13.8903 75 ° 4 km/h 656 m -8.9 m/s 403.40 MHz Gschwandt (AT) 0.00 km FOUND
M4013436 RS92 2019-03-22 03:37:48 47.8746 13.9997 268 ° 28 km/h 1345 m -7.6 m/s 403.40 MHz Kirchdorf (AT) 0.00 km UNKNOWN
M3913196 RS92 2019-03-21 03:27:06 47.8272 13.433 267 ° 13 km/h 1120 m -4.8 m/s 403.40 MHz Sankt Lorenz (AT) 0.00 km UNKNOWN
M3913411 RS92 2019-03-20 03:46:21 47.5017 13.768 125 ° 33 km/h 2210 m -4.8 m/s 403.40 MHz Gröbming (AT) 0.00 km UNKNOWN
M3913199 RS92 2019-03-19 03:46:26 48.1619 15.1089 63 ° 22 km/h 704 m -4.1 m/s 403.40 MHz Ybbs an der Donau (AT) 0.00 km FOUND
M3913537 RS92 2019-03-18 02:28:32 48.5315 14.7608 48 ° 144 km/h 10629 m -37.6 m/s 403.40 MHz Unterweissenbach (AT) 0.00 km UNKNOWN
M3933071 RS92 2019-03-17 03:27:37 48.0691 15.6343 78 ° 41 km/h 843 m -10.7 m/s 403.40 MHz Traisen (AT) 0.00 km FOUND
M3833093 RS92 2019-03-16 03:59:14 47.0156 16.5015 97 ° 33 km/h 824 m -4.1 m/s 403.40 MHz Körmend (HU) 0.00 km FOUND
M3913911 RS92 2019-03-15 03:54:23 46.9392 15.7438 103 ° 17 km/h 511 m -4.0 m/s 403.40 MHz Paldau (AT) 0.00 km FOUND
M3913933 RS92 2019-03-14 02:41:21 48.0851 14.7348 98 ° 76 km/h 1049 m -26.7 m/s 403.40 MHz Aschbach Markt (AT) 0.00 km FOUND
M3913422 RS92 2019-03-13 03:52:21 48.2298 16.1163 24 ° 15 km/h 657 m -4.7 m/s 403.40 MHz Gablitz (AT) 0.00 km FOUND
M3913905 RS92 2019-03-12 03:38:35 47.3341 15.2053 139 ° 59 km/h 1790 m -8.3 m/s 403.40 MHz Oberaich (AT) 0.00 km UNKNOWN
M3913318 RS92 2019-03-11 03:53:55 47.9699 17.037 118 ° 52 km/h 262 m -4.6 m/s 403.40 MHz Zurndorf (AT) 0.00 km FOUND
M3913453 RS92 2019-03-10 03:51:24 47.4747 16.3733 43 ° 13 km/h 567 m -8.2 m/s 403.40 MHz Kirchschlag in der Buckligen Welt (AT) 0.00 km FOUND
M3913391 RS92 2019-03-09 03:55:00 47.936 15.8231 100 ° 31 km/h 1288 m -4.6 m/s 403.40 MHz Pernitz (AT) 0.00 km UNKNOWN
M3913408 RS92 2019-03-08 04:05:29 48.6114 16.332 76 ° 39 km/h 468 m -5.5 m/s 403.40 MHz Ernstbrunn (AT) 0.00 km FOUND
M3913540 RS92 2019-03-07 03:58:59 48.4528 15.9054 134 ° 19 km/h 514 m -4.6 m/s 403.40 MHz Kirchberg am Wagram (AT) 0.00 km FOUND
M3913211 RS92 2019-03-06 04:04:18 47.2299 16.3435 340 ° 15 km/h 422 m -3.6 m/s 403.40 MHz Grosspetersdorf (AT) 0.00 km FOUND
M3913293 RS92 2019-03-05 03:17:19 48.084 16.1117 104 ° 31 km/h 573 m -5.4 m/s 403.40 MHz Sulz im Wienerwald (AT) 0.00 km NEED ATTENTION
M3913897 RS92 2019-03-04 04:01:28 47.9899 15.8636 25 ° 37 km/h 930 m -4.2 m/s 403.40 MHz Hainfeld (AT) 0.00 km FOUND
M3853563 RS92 2019-03-03 03:43:53 47.5591 15.0142 120 ° 94 km/h 2350 m -5.7 m/s 403.40 MHz Eisenerz (AT) 0.00 km UNKNOWN
M3923065 RS92 2019-03-02 03:40:09 47.4099 14.9965 159 ° 56 km/h 2420 m -7.5 m/s 403.40 MHz Trofaiach (AT) 0.00 km UNKNOWN
M3913319 RS92 2019-03-01 03:49:50 47.9193 15.5785 77 ° 22 km/h 819 m -5.0 m/s 403.40 MHz Lilienfeld (AT) 0.00 km UNKNOWN
M3913899 RS92 2019-02-28 04:03:52 47.3332 14.8434 126 ° 54 km/h 1937 m -4.4 m/s 403.40 MHz Sankt Margarethen bei Knittelfeld (AT) 0.00 km UNKNOWN
M3913434 RS92 2019-02-27 03:52:55 47.0812 13.3683 214 ° 78 km/h 3907 m -6.6 m/s 403.40 MHz Badgastein (AT) 0.00 km UNKNOWN
M3913267 RS92 2019-02-26 02:58:47 47.6314 13.7859 132 ° 30 km/h 2188 m -4.6 m/s 403.40 MHz Bad Aussee (AT) 0.00 km UNKNOWN
M3913400 RS92 2019-02-25 03:55:50 47.2691 13.3806 226 ° 70 km/h 3445 m -6.6 m/s 403.40 MHz Flachau (AT) 0.00 km UNKNOWN
M3913393 RS92 2019-02-24 02:36:48 47.9006 13.6073 283 ° 17 km/h 1170 m -20.7 m/s 403.40 MHz Lenzing (AT) 0.00 km UNKNOWN
M3913283 RS92 2019-02-23 03:46:55 46.4596 12.7696 183 ° 67 km/h 2846 m -4.5 m/s 403.40 MHz Tolmezzo (IT) 0.00 km UNKNOWN
N1424025 RS92 2019-02-22 04:04:02 46.6433 14.5478 61 ° 30 km/h 540 m -5.2 m/s 403.40 MHz Grafenstein (AT) 0.00 km FOUND
N1424063 RS92 2019-02-21 03:45:35 47.5121 14.52 127 ° 54 km/h 2536 m -10.4 m/s 403.40 MHz Trieben (AT) 0.00 km UNKNOWN
N1424041 RS92 2019-02-20 02:41:26 47.9896 14.599 93 ° 41 km/h 909 m -9.2 m/s 403.40 MHz Sankt Peter in der Au Markt (AT) 0.00 km FOUND
N1424061 RS92 2019-02-19 03:54:50 48.381 15.0805 99 ° 33 km/h 1073 m -3.3 m/s 403.40 MHz Pöggstall (AT) 0.00 km UNKNOWN
N1424053 RS92 2019-02-18 04:00:22 48.0182 14.6307 350 ° 6 km/h 595 m -4.9 m/s 403.40 MHz Seitenstetten Markt (AT) 0.00 km FOUND
N1423952 RS92 2019-02-17 03:52:05 48.0129 14.8248 66 ° 17 km/h 804 m -9.6 m/s 403.40 MHz Sonntagberg (AT) 0.00 km FOUND
N1424045 RS92 2019-02-16 03:56:40 47.5827 13.9754 258 ° 17 km/h 2559 m -5.6 m/s 403.40 MHz Stainach (AT) 0.00 km LOST
N1424039 RS92 2019-02-15 03:58:37 47.3436 13.5801 211 ° 24 km/h 2718 m -5.1 m/s 403.40 MHz Radstadt (AT) 0.00 km UNKNOWN
N1433224 RS92 2019-02-14 03:33:22 47.2092 14.5444 159 ° 43 km/h 3690 m -6.3 m/s 403.40 MHz Pöls (AT) 0.00 km UNKNOWN
N1433197 RS92 2019-02-13 02:31:46 47.8415 14.1687 117 ° 37 km/h 1257 m -24.5 m/s 403.40 MHz Micheldorf in Oberösterreich (AT) 0.00 km FOUND
N1433208 RS92 2019-02-12 03:48:12 47.0092 14.643 148 ° 100 km/h 2789 m -8.6 m/s 403.40 MHz Obdach (AT) 0.00 km LOST
N1433213 RS92 2019-02-11 04:03:19 48.5256 16.4031 103 ° 54 km/h 392 m -4.8 m/s 403.40 MHz Ernstbrunn (AT) 0.00 km FOUND
N1433212 RS92 2019-02-10 04:04:14 48.0059 16.4267 87 ° 19 km/h 242 m -4.6 m/s 403.40 MHz Mitterndorf an der Fischa (AT) 0.00 km FOUND
N1424038 RS92 2019-02-08 04:05:17 48.8886 15.4933 94 ° 30 km/h 653 m -4.0 m/s 403.40 MHz Raabs an der Thaya (AT) 0.00 km FOUND
N1433207 RS92 2019-02-07 03:55:29 48.1837 14.9066 226 ° 30 km/h 700 m -4.3 m/s 403.40 MHz Grein (AT) 0.00 km FOUND
N1424037 RS92 2019-02-06 02:32:05 48.0247 14.309 148 ° 41 km/h 7044 m -29.7 m/s 403.40 MHz Aschach an der Steyr (AT) 0.00 km UNKNOWN
N1424067 RS92 2019-02-05 03:54:20 48.181 14.7118 184 ° 20 km/h 405 m -2.4 m/s 403.40 MHz Ardagger Markt (AT) 0.00 km FOUND
N1433201 RS92 2019-02-04 03:58:09 48.4819 14.9877 103 ° 37 km/h 951 m -6.0 m/s 403.40 MHz Grossgerungs (AT) 0.00 km UNKNOWN
N1433214 RS92 2019-02-03 03:37:29 49.069 14.4968 256 ° 31 km/h 1290 m -6.1 m/s 403.40 MHz Hluboká nad Vltavou (CZ) 0.00 km UNKNOWN
N1424051 RS92 2019-02-02 03:59:52 49.0623 15.2482 298 ° 37 km/h 809 m -5.3 m/s 403.40 MHz Dačice (CZ) 0.00 km LOST
N1424087 RS92 2019-02-01 03:55:54 48.1488 15.7647 87 ° 6 km/h 432 m -3.4 m/s 403.40 MHz Kirchstetten (AT) 0.00 km FOUND
N1423957 RS92 2019-01-31 03:47:23 48.712 14.4708 137 ° 24 km/h 826 m -5.7 m/s 403.40 MHz Kaplice (CZ) 0.00 km UNKNOWN
N1433195 RS92 2019-01-30 03:49:28 48.2493 14.7709 293 ° 24 km/h 500 m -4.1 m/s 403.40 MHz Grein (AT) 0.00 km FOUND
N1424078 RS92 2019-01-29 02:31:16 48.2338 14.4864 84 ° 44 km/h 581 m -19.4 m/s 403.40 MHz Enns (AT) 0.00 km FOUND
N1323067 RS92 2019-01-28 04:14:53 48.629 15.1327 356 ° 2 km/h 625 m -1.7 m/s 403.40 MHz Zwettl (AT) 0.00 km FOUND
N1424060 RS92 2019-01-27 03:44:32 47.9099 15.407 102 ° 13 km/h 927 m -4.7 m/s 403.40 MHz Kirchberg an der Pielach (AT) 0.00 km FOUND
N1423950 RS92 2019-01-26 02:24:31 48.0321 14.3776 87 ° 39 km/h 676 m -22.2 m/s 403.40 MHz Garsten (AT) 0.00 km UNKNOWN
N1424075 RS92 2019-01-25 04:03:02 47.9296 14.2118 108 ° 20 km/h 792 m -5.3 m/s 403.40 MHz Gründberg (AT) 0.00 km LOST
N1423513 RS92 2019-01-24 03:47:47 48.2499 14.117 338 ° 20 km/h 413 m -5.2 m/s 403.40 MHz Alkoven (AT) 0.00 km FOUND
N1433202 RS92 2019-01-23 03:44:25 48.4739 14.39 275 ° 35 km/h 919 m -5.0 m/s 403.40 MHz Alberndorf in der Riedmark (AT) 0.00 km FOUND
N1424040 RS92 2019-01-22 09:03:24 48.1902 14.283 145 ° 7 km/h 447 m -24.5 m/s 403.40 MHz Ansfelden (AT) 0.00 km FOUND
N1433194 RS92 2019-01-21 03:56:24 48.0445 14.7919 270 ° 37 km/h 669 m -4.1 m/s 403.40 MHz Aschbach Markt (AT) 0.00 km FOUND
N1433152 RS92 2019-01-19 03:55:02 48.2422 14.9252 289 ° 19 km/h 555 m -3.7 m/s 403.40 MHz Waldhausen im Strudengau (AT) 0.00 km FOUND
N1433165 RS92 2019-01-18 04:23:34 48.7505 15.9543 113 ° 39 km/h 384 m -6.7 m/s 403.40 MHz Retz (AT) 0.00 km UNKNOWN
N1413968 RS92 2019-01-17 02:23:55 48.2851 14.5343 90 ° 72 km/h 9380 m 1.2 m/s 403.40 MHz Ried in der Riedmark (AT) 0.00 km UNKNOWN
N1423533 RS92 2019-01-16 03:47:14 47.4294 15.2826 143 ° 67 km/h 2989 m -4.8 m/s 403.40 MHz Kapfenberg (AT) 0.00 km FOUND
N1423525 RS92 2019-01-14 02:24:53 48.0234 14.6564 116 ° 72 km/h 1183 m -26.9 m/s 403.40 MHz Seitenstetten Markt (AT) 0.00 km FOUND
N1413966 RS92 2019-01-13 03:41:28 47.4734 15.1004 146 ° 65 km/h 2725 m -3.7 m/s 403.40 MHz Trofaiach (AT) 0.00 km UNKNOWN
N1513176 RS92 2019-01-12 03:52:02 47.169 13.9484 192 ° 102 km/h 4028 m -3.3 m/s 403.40 MHz Tamsweg (AT) 0.00 km UNKNOWN
N1513367 RS92 2019-01-11 03:42:25 47.3885 13.3924 106 ° 28 km/h 2478 m -7.4 m/s 403.40 MHz Eben im Pongau (AT) 0.00 km UNKNOWN
N1413974 RS92 2019-01-10 03:55:19 47.5571 13.7475 112 ° 41 km/h 2152 m -3.6 m/s 403.40 MHz Bad Aussee (AT) 0.00 km UNKNOWN
N1413971 RS92 2019-01-09 03:40:35 47.6649 15.246 102 ° 50 km/h 1549 m -6.5 m/s 403.40 MHz Mariazell (AT) 0.00 km UNKNOWN
N1423568 RS92 2019-01-08 03:58:02 47.0181 14.9094 128 ° 43 km/h 3124 m -6.1 m/s 403.40 MHz Bad Sankt Leonhard im Lavanttal (AT) 0.00 km FOUND
N1423540 RS92 2019-01-07 03:48:55 46.5422 13.8873 277 ° 11 km/h 1198 m -4.8 m/s 403.40 MHz Villach (AT) 0.00 km FOUND
N1423558 RS92 2019-01-06 03:59:38 46.5485 14.8685 208 ° 17 km/h 699 m -3.0 m/s 403.40 MHz Mežica (SI) 0.00 km FOUND
N1413967 RS92 2019-01-05 03:49:40 46.8538 13.8816 220 ° 83 km/h 3937 m -5.3 m/s 403.40 MHz Radenthein (AT) 0.00 km UNKNOWN
N1413972 RS92 2019-01-04 03:47:03 46.9046 13.4185 204 ° 141 km/h 4513 m -2.3 m/s 403.40 MHz Gmünd (AT) 0.00 km UNKNOWN
N1413962 RS92 2019-01-03 03:38:06 46.9223 14.1028 186 ° 113 km/h 3772 m -3.8 m/s 403.40 MHz Himmelberg (AT) 0.00 km UNKNOWN
N1423529 RS92 2019-01-02 02:36:37 47.8094 14.8365 160 ° 65 km/h 1766 m -26.7 m/s 403.40 MHz Weyer Markt (AT) 0.00 km UNKNOWN
N1423556 RS92 2019-01-01 04:00:54 46.8685 14.1181 222 ° 106 km/h 4514 m -5.6 m/s 403.40 MHz Himmelberg (AT) 0.00 km UNKNOWN
N1413995 RS92 2018-12-31 04:07:11 46.5722 14.0007 160 ° 50 km/h 2235 m -4.0 m/s 403.40 MHz Sankt Jakob (AT) 0.00 km LOST
N1423544 RS92 2018-12-30 03:51:34 47.5504 14.9716 117 ° 50 km/h 2160 m -8.4 m/s 403.40 MHz Eisenerz (AT) 0.00 km UNKNOWN
N1413981 RS92 2018-12-29 03:54:24 47.5504 14.782 128 ° 56 km/h 2260 m -6.9 m/s 403.40 MHz Eisenerz (AT) 0.00 km UNKNOWN
N1413977 RS92 2018-12-28 04:03:17 47.5703 15.1054 119 ° 39 km/h 2349 m -4.8 m/s 403.40 MHz Thörl (AT) 0.00 km UNKNOWN
N1513490 RS92 2018-12-27 03:58:52 47.4177 14.6797 216 ° 48 km/h 2615 m -4.9 m/s 403.40 MHz Trieben (AT) 0.00 km UNKNOWN
N1423548 RS92 2018-12-26 03:36:09 47.219 14.7699 148 ° 50 km/h 1879 m -14.8 m/s 403.40 MHz Spielberg bei Knittelfeld (AT) 0.00 km FOUND
N1513363 RS92 2018-12-25 03:47:23 46.6807 14.4354 166 ° 72 km/h 2768 m -3.1 m/s 403.40 MHz Poggersdorf (AT) 0.00 km UNKNOWN
M3933617 RS92 2018-12-24 03:42:48 47.1872 17.0398 80 ° 48 km/h 724 m -4.5 m/s 403.40 MHz Sárvár (HU) 0.00 km UNKNOWN
M3933607 RS92 2018-12-23 03:50:57 47.1828 16.1587 135 ° 33 km/h 897 m -4.9 m/s 405.10 MHz Stegersbach (AT) 0.00 km FOUND
M3913436 RS92 2018-12-23 03:41:44 47.1284 16.494 100 ° 26 km/h 442 m -7.6 m/s 403.40 MHz Ják (HU) 0.00 km NEED ATTENTION
M3933584 RS92 2018-12-22 04:06:41 47.5742 17.5372 42 ° 56 km/h 255 m -4.9 m/s 403.40 MHz Győrszemere (HU) 0.00 km FOUND
N1423319 RS92 2018-12-21 03:57:36 47.7206 16.4716 122 ° 15 km/h 420 m -4.0 m/s 403.40 MHz Schattendorf (AT) 0.00 km FOUND
M3923280 RS92 2018-12-20 03:46:29 49.0353 15.4893 346 ° 28 km/h 862 m -3.1 m/s 403.40 MHz Dačice (CZ) 0.00 km LOST
N1423312 RS92 2018-12-19 03:48:21 47.7347 15.3265 69 ° 24 km/h 1996 m -4.4 m/s 403.40 MHz Mariazell (AT) 0.00 km UNKNOWN
N1513373 RS92 2018-12-18 03:41:39 48.1243 15.443 76 ° 33 km/h 426 m -8.3 m/s 403.40 MHz Kilb (AT) 0.00 km FOUND
N1423549 RS92 2018-12-17 02:56:48 48.1932 14.9541 84 ° 9 km/h 680 m -7.3 m/s 403.40 MHz Sankt Georgen am Ybbsfelde (AT) 0.00 km FOUND
N1423565 RS92 2018-12-16 03:51:14 47.3748 15.4004 111 ° 22 km/h 1580 m -3.7 m/s 403.40 MHz Pernegg an der Mur (AT) 0.00 km UNKNOWN
N1413994 RS92 2018-12-15 03:24:36 48.1337 14.4987 157 ° 9 km/h 478 m -10.7 m/s 403.40 MHz Ernsthofen (AT) 0.00 km FOUND
N1413976 RS92 2018-12-14 03:38:41 48.265 14.644 270 ° 20 km/h 475 m -6.1 m/s 403.40 MHz Perg (AT) 0.00 km FOUND
N1423572 RS92 2018-12-13 04:25:21 48.0728 14.5788 293 ° 37 km/h 511 m -3.6 m/s 405.10 MHz Weistrach (AT) 0.00 km LOST
M3933604 RS92 2018-12-12 03:39:57 47.5272 14.8393 136 ° 74 km/h 2554 m -5.8 m/s 403.40 MHz Eisenerz (AT) 0.00 km UNKNOWN
N1513190 RS92 2018-12-11 03:40:06 47.4689 14.8179 98 ° 50 km/h 2535 m -4.7 m/s 403.40 MHz Eisenerz (AT) 0.00 km UNKNOWN
N1423569 RS92 2018-12-10 02:40:28 47.9383 14.6696 108 ° 81 km/h 1406 m -25.9 m/s 403.40 MHz Waidhofen an der Ybbs (AT) 0.00 km UNKNOWN
N1423560 RS92 2018-12-09 04:04:15 47.8244 16.214 94 ° 13 km/h 345 m -3.7 m/s 403.40 MHz Wiener Neustadt (AT) 0.00 km FOUND
N1423543 RS92 2018-12-08 04:19:52 48.5507 15.6429 88 ° 65 km/h 598 m -6.6 m/s 405.10 MHz Gars am Kamp (AT) 0.00 km FOUND
N1423562 RS92 2018-12-08 03:33:08 48.4927 15.3321 93 ° 48 km/h 792 m -14.7 m/s 403.40 MHz Gföhl (AT) 0.00 km LOST
N1423519 RS92 2018-12-07 03:49:40 47.1264 15.0957 137 ° 22 km/h 1634 m -5.5 m/s 403.40 MHz Köflach (AT) 0.00 km UNKNOWN
M3933627 RS92 2018-12-06 04:07:41 47.5549 15.7317 112 ° 35 km/h 1707 m -4.9 m/s 403.40 MHz Mürzzuschlag (AT) 0.00 km UNKNOWN
N1423571 RS92 2018-12-05 03:33:05 47.4815 15.8168 151 ° 37 km/h 1295 m -5.4 m/s 403.40 MHz Vorau (AT) 0.00 km LOST
N1423559 RS92 2018-12-04 03:47:36 48.2687 15.9713 88 ° 72 km/h 682 m -7.7 m/s 403.40 MHz Michelhausen (AT) 0.00 km FOUND
M3826098 RS92 2018-12-03 07:56:19 48.1187 15.029 114 ° 78 km/h 13979 m 4.5 m/s 403.40 MHz Blindenmarkt (AT) 0.00 km LOST
M3933606 RS92 2018-12-03 03:08:30 48.0952 14.9057 91 ° 67 km/h 1106 m -25.0 m/s 405.10 MHz Euratsfeld (AT) 0.00 km FOUND
M3826082 RS92 2018-12-02 03:49:00 47.7245 15.2196 82 ° 15 km/h 1579 m -3.9 m/s 403.40 MHz Mariazell (AT) 0.00 km UNKNOWN
M3923258 RS92 2018-12-01 04:12:18 48.1047 15.4958 142 ° 24 km/h 590 m -3.7 m/s 403.40 MHz Obergrafendorf (AT) 0.00 km UNKNOWN
M3923282 RS92 2018-11-30 04:01:36 48.0162 15.1375 52 ° 9 km/h 889 m -5.0 m/s 403.40 MHz Scheibbs (AT) 0.00 km FOUND
M3933602 RS92 2018-11-29 04:01:42 47.4448 14.5954 186 ° 19 km/h 2615 m -8.1 m/s 405.10 MHz Trieben (AT) 0.00 km UNKNOWN
M3914090 RS92 2018-11-27 03:50:05 48.2598 14.6327 157 ° 22 km/h 424 m -3.0 m/s 403.40 MHz Perg (AT) 0.00 km LOST
M3923082 RS92 2018-11-26 03:49:13 48.5294 14.5215 219 ° 37 km/h 1061 m -4.1 m/s 403.40 MHz Freistadt (AT) 0.00 km FOUND
M3933080 RS92 2018-11-25 04:47:34 48.5329 15.4654 178 ° 6 km/h 669 m -1.9 m/s 405.10 MHz Gföhl (AT) 0.00 km FOUND
M3853554 RS92 2018-11-24 03:56:35 48.4323 15.3488 203 ° 26 km/h 812 m -3.9 m/s 403.40 MHz Gföhl (AT) 0.00 km FOUND
M3913936 RS92 2018-11-23 03:58:56 48.1957 14.8917 170 ° 17 km/h 557 m -4.1 m/s 403.40 MHz Grein (AT) 0.00 km FOUND
M3933599 RS92 2018-11-22 04:08:42 48.2049 14.3582 333 ° 7 km/h 421 m -3.1 m/s 403.40 MHz Markt Sankt Florian (AT) 0.00 km FOUND
M3914089 RS92 2018-11-21 03:56:39 48.4296 14.4577 206 ° 13 km/h 712 m -4.2 m/s 403.40 MHz Neumarkt im Mühlkreis (AT) 0.00 km FOUND
M3923308 RS92 2018-11-20 04:02:48 48.8946 14.5462 287 ° 43 km/h 724 m -2.8 m/s 403.40 MHz Trhové Sviny (CZ) 0.00 km UNKNOWN
M3914088 RS92 2018-11-18 03:30:51 48.0238 12.7472 273 ° 30 km/h 731 m -13.8 m/s 403.40 MHz Ostermiething (AT) 0.00 km UNKNOWN
M3913278 RS92 2018-11-17 03:49:25 47.7059 12.3567 271 ° 17 km/h 1618 m -4.5 m/s 403.40 MHz Kössen (AT) 0.00 km UNKNOWN
M3913303 RS92 2018-11-16 02:30:02 47.9748 13.8146 273 ° 26 km/h 860 m -25.9 m/s 403.40 MHz Laakirchen (AT) 0.00 km UNKNOWN
M3923266 RS92 2018-11-15 04:00:38 47.317 14.2597 227 ° 15 km/h 2921 m -4.8 m/s 403.40 MHz Oberwölz Stadt (AT) 0.00 km UNKNOWN
M3923260 RS92 2018-11-14 04:01:29 47.7147 15.7041 126 ° 35 km/h 1886 m -4.1 m/s 403.40 MHz Reichenau (AT) 0.00 km UNKNOWN
M3913204 RS92 2018-11-13 04:09:12 48.5384 15.663 308 ° 15 km/h 484 m -5.0 m/s 403.40 MHz Gars am Kamp (AT) 0.00 km FOUND
M3913203 RS92 2018-11-11 03:50:54 48.3736 15.1918 49 ° 28 km/h 1035 m -4.6 m/s 403.40 MHz Pöggstall (AT) 0.00 km FOUND
M3933594 RS92 2018-11-10 03:53:48 48.5559 15.1911 292 ° 17 km/h 765 m -5.2 m/s 403.40 MHz Zwettl (AT) 0.00 km FOUND
M3923303 RS92 2018-11-09 04:07:45 48.5935 15.3575 346 ° 9 km/h 648 m -4.5 m/s 403.40 MHz Gföhl (AT) 0.00 km LOST
M3923315 RS92 2018-11-08 04:08:26 48.9144 14.5587 126 ° 7 km/h 809 m -4.3 m/s 403.40 MHz České Budějovice (CZ) 0.00 km UNKNOWN
M3913906 RS92 2018-11-07 04:08:02 48.7733 14.531 12 ° 33 km/h 1163 m -4.5 m/s 403.40 MHz Kaplice (CZ) 0.00 km FOUND
M3933601 RS92 2018-11-06 04:04:02 48.6431 14.3614 351 ° 30 km/h 1174 m -6.2 m/s 403.40 MHz Rainbach im Mühlkreis (AT) 0.00 km UNKNOWN
M3933638 RS92 2018-11-05 04:07:12 49.013 13.8421 342 ° 37 km/h 1965 m -5.0 m/s 403.40 MHz Vimperk (CZ) 0.00 km UNKNOWN
M3933632 RS92 2018-11-04 04:06:21 48.8055 14.3221 279 ° 22 km/h 1166 m -3.7 m/s 403.40 MHz Český Krumlov (CZ) 0.00 km UNKNOWN
M3933590 RS92 2018-11-03 04:04:18 48.8576 15.0119 87 ° 30 km/h 595 m -4.4 m/s 403.40 MHz Heidenreichstein (AT) 0.00 km LOST
N1233051 RS92 2018-11-02 03:46:39 49.0399 15.2646 154 ° 30 km/h 822 m -15.0 m/s 403.40 MHz Dačice (CZ) 0.00 km FOUND
M3923281 RS92 2018-11-01 03:50:45 49.1142 15.0873 322 ° 33 km/h 735 m -4.9 m/s 403.40 MHz Jindřichŭv Hradec (CZ) 0.00 km FOUND
M3933598 RS92 2018-10-31 04:04:22 48.8197 15.4616 124 ° 15 km/h 771 m -3.0 m/s 403.40 MHz Raabs an der Thaya (AT) 0.00 km FOUND
M3913222 RS92 2018-10-30 03:38:55 49.6065 14.3102 340 ° 91 km/h 1102 m -8.8 m/s 403.40 MHz Sedlčany (CZ) 0.00 km UNKNOWN
M3923090 RS92 2018-10-29 03:41:49 48.7342 15.142 129 ° 9 km/h 660 m -9.8 m/s 403.40 MHz Vitis (AT) 0.00 km FOUND
M3813436 RS92 2018-10-28 04:01:13 48.9883 15.4366 261 ° 41 km/h 758 m -4.2 m/s 403.40 MHz Dačice (CZ) 0.00 km FOUND
M3913270 RS92 2018-10-27 04:07:37 48.6292 16.4987 304 ° 15 km/h 425 m -3.9 m/s 403.40 MHz Mistelbach (AT) 0.00 km FOUND
M3913281 RS92 2018-10-26 04:01:32 47.8454 15.9372 108 ° 50 km/h 1273 m -11.2 m/s 403.40 MHz Pernitz (AT) 0.00 km UNKNOWN
M3913904 RS92 2018-10-25 03:57:21 46.7366 15.1206 150 ° 52 km/h 1848 m -6.4 m/s 403.40 MHz Eibiswald (AT) 0.00 km UNKNOWN
M3913900 RS92 2018-10-24 03:47:07 46.7368 15.5635 130 ° 78 km/h 1682 m -4.8 m/s 403.40 MHz Gamlitz (AT) 0.00 km UNKNOWN
M3913310 RS92 2018-10-23 03:51:13 47.5676 14.3008 146 ° 43 km/h 2182 m -4.0 m/s 403.40 MHz Liezen (AT) 0.00 km UNKNOWN
M3813417 RS92 2018-10-22 03:05:51 47.8765 13.092 277 ° 17 km/h 938 m -3.7 m/s 403.40 MHz Elixhausen (AT) 0.00 km FOUND
M3913302 RS92 2018-10-21 03:37:32 46.9816 13.9712 164 ° 102 km/h 5319 m -9.9 m/s 403.40 MHz Tamsweg (AT) 0.00 km UNKNOWN
M3913259 RS92 2018-10-20 03:48:20 47.851 14.5201 105 ° 7 km/h 1308 m -8.4 m/s 403.40 MHz Grossraming (AT) 0.00 km UNKNOWN
M3853087 RS92 2018-10-19 04:04:35 47.5864 14.6729 163 ° 20 km/h 2014 m -5.4 m/s 403.40 MHz Landl (AT) 0.00 km UNKNOWN
M3933069 RS92 2018-10-18 03:49:40 48.0343 14.4235 65 ° 11 km/h 604 m -8.8 m/s 403.40 MHz Sankt Ulrich bei Steyr (AT) 0.00 km FOUND
M3913280 RS92 2018-10-17 04:01:36 48.3024 14.7174 90 ° 6 km/h 730 m -13.1 m/s 403.40 MHz Tragwein (AT) 0.00 km FOUND
M3913277 RS92 2018-10-16 04:03:25 48.3061 14.4162 145 ° 19 km/h 558 m -5.8 m/s 403.40 MHz Luftenberg (AT) 0.00 km FOUND
M3923069 RS92 2018-10-15 03:57:14 48.8006 13.9386 349 ° 24 km/h 1366 m -6.6 m/s 403.40 MHz Ulrichsberg (AT) 0.00 km UNKNOWN
M3923081 RS92 2018-10-14 04:13:33 48.4994 13.5118 311 ° 30 km/h 508 m -3.1 m/s 403.40 MHz Schardenberg (AT) 0.00 km UNKNOWN
M3913279 RS92 2018-10-13 04:12:53 47.9518 13.8501 152 ° 15 km/h 621 m -4.4 m/s 403.40 MHz Gschwandt (AT) 0.00 km FOUND
M3913274 RS92 2018-10-12 03:57:02 48.2384 14.4431 62 ° 9 km/h 361 m -3.0 m/s 403.40 MHz Langenstein (AT) 0.00 km FOUND
M3923068 RS92 2018-10-11 04:02:23 48.7092 13.6851 332 ° 41 km/h 1086 m -3.9 m/s 403.40 MHz Ulrichsberg (AT) 0.00 km UNKNOWN
M3913268 RS92 2018-10-10 04:02:07 48.2878 13.2936 317 ° 9 km/h 501 m -5.8 m/s 403.40 MHz Altheim (AT) 0.00 km UNKNOWN
M3913257 RS92 2018-10-09 04:05:44 47.9748 13.6917 29 ° 20 km/h 652 m -3.8 m/s 403.40 MHz Vöcklabruck (AT) 0.00 km FOUND
M3923083 RS92 2018-10-08 04:10:18 48.0089 14.0472 259 ° 20 km/h 594 m -4.9 m/s 403.40 MHz Ried im Traunkreis (AT) 0.00 km FOUND
M3923077 RS92 2018-10-07 04:00:10 48.6359 14.7735 80 ° 26 km/h 897 m -5.0 m/s 403.40 MHz Weitra (AT) 0.00 km FOUND
M3913916 RS92 2018-10-06 04:02:58 48.5859 14.7438 21 ° 15 km/h 1104 m -5.0 m/s 403.40 MHz Sankt Oswald bei Freistadt (AT) 0.00 km FOUND
M3933067 RS92 2018-10-05 04:31:58 48.0399 14.463 315 ° 7 km/h 695 m -5.5 m/s 405.10 MHz Behamberg (AT) 0.00 km FOUND
M3933629 RS92 2018-10-04 04:07:20 47.5814 15.2598 136 ° 48 km/h 2106 m -5.3 m/s 403.40 MHz Thörl (AT) 0.00 km UNKNOWN
M3913261 RS92 2018-10-03 03:47:04 47.6908 15.7698 112 ° 87 km/h 1437 m -9.5 m/s 403.40 MHz Reichenau (AT) 0.00 km UNKNOWN
M3923066 RS92 2018-10-02 03:59:41 48.3987 15.3974 118 ° 20 km/h 977 m -4.1 m/s 403.40 MHz Gföhl (AT) 0.00 km FOUND
M3923072 RS92 2018-10-01 03:18:08 48.8497 14.6467 110 ° 9 km/h 857 m -6.3 m/s 403.40 MHz Trhové Sviny (CZ) 0.00 km UNKNOWN
M3913276 RS92 2018-09-30 04:15:54 48.1472 14.2723 336 ° 28 km/h 402 m -4.0 m/s 403.40 MHz Sankt Marien (AT) 0.00 km FOUND
M3933065 RS92 2018-09-29 03:57:23 47.7239 14.8579 178 ° 19 km/h 1703 m -3.9 m/s 403.40 MHz Landl (AT) 0.00 km UNKNOWN
M3913312 RS92 2018-09-28 04:05:50 48.076 14.9456 38 ° 13 km/h 495 m -2.7 m/s 403.40 MHz Euratsfeld (AT) 0.00 km FOUND
M3853573 RS92 2018-09-27 04:02:21 47.5622 14.5121 137 ° 48 km/h 2358 m -5.1 m/s 403.40 MHz Admont (AT) 0.00 km UNKNOWN
M3923263 RS92 2018-09-26 03:50:50 47.0084 13.9552 191 ° 76 km/h 5129 m -6.1 m/s 403.40 MHz Tamsweg (AT) 0.00 km UNKNOWN
M3923302 RS92 2018-09-25 04:04:53 47.0089 16.1713 202 ° 26 km/h 1364 m -3.9 m/s 403.40 MHz Rudersdorf (AT) 0.00 km UNKNOWN
M3923290 RS92 2018-09-24 03:58:02 48.4457 17.0446 163 ° 67 km/h 543 m -4.2 m/s 403.40 MHz Malacky (SK) 0.00 km UNKNOWN
M3923124 RS92 2018-09-23 04:14:50 47.5479 16.3595 292 ° 28 km/h 674 m -5.0 m/s 403.40 MHz Kirchschlag in der Buckligen Welt (AT) 0.00 km FOUND
M3923270 RS92 2018-09-22 04:16:17 48.2445 16.3221 107 ° 44 km/h 292 m -6.3 m/s 403.40 MHz Weidling (AT) 0.00 km FOUND
M3923262 RS92 2018-09-21 03:45:56 48.1773 14.5743 297 ° 4 km/h 409 m -8.3 m/s 403.40 MHz Sankt Pantaleon (AT) 0.00 km FOUND
M3826111 RS92 2018-09-20 04:48:34 48.0205 14.5047 142 ° 19 km/h 695 m -4.3 m/s 405.10 MHz Behamberg (AT) 0.00 km UNKNOWN
M3913228 RS92 2018-09-19 04:03:26 48.4524 14.4229 355 ° 11 km/h 878 m -3.3 m/s 403.40 MHz Alberndorf in der Riedmark (AT) 0.00 km UNKNOWN
M3923269 RS92 2018-09-18 04:17:18 48.2275 13.7687 276 ° 30 km/h 521 m -4.4 m/s 403.40 MHz Gallspach (AT) 0.00 km FOUND
M3936305 RS92 2018-09-17 04:22:04 48.1901 15.1552 331 ° 19 km/h 421 m -4.4 m/s 403.40 MHz Pöchlarn (AT) 0.00 km FOUND
M3923274 RS92 2018-09-16 04:13:42 47.9472 15.1563 313 ° 4 km/h 866 m -6.3 m/s 403.40 MHz Gaming (AT) 0.00 km UNKNOWN
M3923291 RS92 2018-09-15 04:09:50 48.0489 15.3521 34 ° 35 km/h 785 m -6.0 m/s 403.40 MHz Mank (AT) 0.00 km LOST
M3923273 RS92 2018-09-14 03:54:55 48.4195 15.0704 139 ° 20 km/h 1032 m -8.1 m/s 403.40 MHz Pöggstall (AT) 0.00 km FOUND
M3923295 RS92 2018-09-13 03:36:37 48.3795 14.9244 201 ° 6 km/h 888 m -11.7 m/s 403.40 MHz Königswiesen (AT) 0.00 km FOUND
M3923289 RS92 2018-09-12 04:08:57 47.98 14.6973 160 ° 9 km/h 697 m -6.3 m/s 403.40 MHz Biberbach (AT) 0.00 km UNKNOWN
M3923283 RS92 2018-09-11 04:07:21 47.2399 14.6959 147 ° 48 km/h 3210 m -4.7 m/s 403.40 MHz Fohnsdorf (AT) 0.00 km UNKNOWN
M3923284 RS92 2018-09-10 02:34:20 48.1234 14.4887 177 ° 17 km/h 1593 m -22.5 m/s 403.40 MHz Ernsthofen (AT) 0.00 km LOST
M3923268 RS92 2018-09-09 03:56:28 47.9875 14.9311 34 ° 7 km/h 954 m -7.7 m/s 403.40 MHz Ybbsitz (AT) 0.00 km UNKNOWN
M3923294 RS92 2018-09-08 03:48:09 48.1911 14.7704 99 ° 11 km/h 497 m -5.7 m/s 403.40 MHz Ardagger Markt (AT) 0.00 km FOUND
M3913437 RS92 2018-09-07 04:05:36 48.2181 14.8112 75 ° 17 km/h 450 m -4.5 m/s 403.40 MHz Grein (AT) 0.00 km FOUND
M3933114 RS92 2018-09-06 04:19:01 47.9396 14.8603 136 ° 17 km/h 680 m -3.9 m/s 403.40 MHz Ybbsitz (AT) 0.00 km LOST
M3923299 RS92 2018-09-05 03:56:10 47.9374 14.4371 115 ° 26 km/h 917 m -3.9 m/s 403.40 MHz Ternberg (AT) 0.00 km FOUND
M3933631 RS92 2018-09-04 04:32:41 48.2592 13.9547 54 ° 17 km/h 418 m -4.4 m/s 405.10 MHz Sankt Marienkirchen an der Polsenz (AT) 0.00 km UNKNOWN
M3923301 RS92 2018-09-04 03:10:44 48.2858 14.0328 62 ° 9 km/h 315 m -10.4 m/s 403.40 MHz Fraham (AT) 0.00 km FOUND
M3933613 RS92 2018-09-03 04:14:42 48.6094 13.3998 55 ° 15 km/h 771 m -4.1 m/s 403.40 MHz Passau (DE) 0.00 km UNKNOWN
M3933605 RS92 2018-09-02 04:09:44 48.5068 13.9047 104 ° 24 km/h 765 m -4.6 m/s 403.40 MHz Sarleinsbach (AT) 0.00 km UNKNOWN
M3923307 RS92 2018-09-01 04:12:51 48.9255 14.5116 196 ° 17 km/h 837 m -3.2 m/s 403.40 MHz České Budějovice (CZ) 0.00 km UNKNOWN
N1353497 RS92 2018-08-31 04:04:45 48.4701 14.8763 236 ° 20 km/h 1083 m -4.6 m/s 403.40 MHz Königswiesen (AT) 0.00 km LOST
M3923144 RS92 2018-08-30 04:19:27 48.6447 14.8675 109 ° 15 km/h 871 m -3.6 m/s 403.40 MHz Weitra (AT) 0.00 km LOST
M3933623 RS92 2018-08-28 04:12:42 47.9113 15.3446 359 ° 17 km/h 1052 m -5.8 m/s 403.40 MHz Kirchberg an der Pielach (AT) 0.00 km FOUND
M3933621 RS92 2018-08-27 04:24:11 47.9397 14.5726 228 ° 7 km/h 942 m -3.4 m/s 403.40 MHz Grossraming (AT) 0.00 km FOUND
M3913928 RS92 2018-08-25 05:52:39 49.0733 16.5049 291 ° 9 km/h 21709 m 2.3 m/s 403.40 MHz Ivančice (CZ) 0.00 km UNKNOWN
M3923312 RS92 2018-08-24 07:00:16 48.6979 15.1027 257 ° 17 km/h 27976 m 1.4 m/s 403.40 MHz Vitis (AT) 0.00 km LOST
N1233050 RS92 2018-08-23 04:17:53 48.4037 14.0875 131 ° 17 km/h 559 m -3.0 m/s 403.40 MHz Herzogsdorf (AT) 0.00 km UNKNOWN
N1223184 RS92 2018-08-22 03:54:53 48.29 13.9863 196 ° 4 km/h 416 m -3.2 m/s 403.40 MHz Eferding (AT) 0.00 km FOUND
N1243382 RS92 2018-08-21 06:19:28 48.0359 14.0038 237 ° 11 km/h 7639 m -9.8 m/s 403.40 MHz Eberstallzell (AT) 0.00 km UNKNOWN
N1253079 RS92 2018-08-20 12:02:49 48.0455 14.1688 152 ° 7 km/h 21302 m 1.2 m/s 403.40 MHz Pfarrkirchen bei Bad Hall (AT) 0.00 km UNKNOWN
M3923309 RS92 2018-08-19 06:22:54 47.8571 13.5259 224 ° 22 km/h 27140 m 1.2 m/s 403.40 MHz Sankt Georgen im Attergau (AT) 0.00 km UNKNOWN
M3923311 RS92 2018-08-18 04:17:29 48.2681 14.6758 81 ° 11 km/h 470 m -3.5 m/s 403.40 MHz Perg (AT) 0.00 km LOST
M3933626 RS92 2018-08-17 03:57:03 48.2134 14.2763 258 ° 6 km/h 399 m -11.3 m/s 403.40 MHz Ansfelden (AT) 0.00 km LOST
N1233259 RS92 2018-08-16 03:40:50 48.093 14.3018 338 ° 9 km/h 478 m -12.7 m/s 403.40 MHz Sierning (AT) 0.00 km NEED ATTENTION
N1253259 RS92 2018-08-15 04:17:31 48.1824 14.7845 83 ° 20 km/h 426 m -4.9 m/s 403.40 MHz Ardagger Markt (AT) 0.00 km UNKNOWN
N1233286 RS92 2018-08-14 03:51:22 48.5326 14.7607 90 ° 39 km/h 1111 m -9.3 m/s 403.40 MHz Unterweissenbach (AT) 0.00 km UNKNOWN
N1353186 RS92 2018-08-13 04:01:51 48.2945 14.6364 70 ° 2 km/h 527 m -7.0 m/s 403.40 MHz Tragwein (AT) 0.00 km LOST
N1353166 RS92 2018-08-12 04:19:42 48.068 15.057 316 ° 17 km/h 449 m -4.5 m/s 403.40 MHz Steinakirchen am Forst (AT) 0.00 km LOST
N1053808 RS92 2018-08-10 03:49:53 48.6607 14.5842 145 ° 15 km/h 1345 m -13.9 m/s 403.40 MHz Kaplice (CZ) 0.00 km UNKNOWN
N1353502 RS92 2018-08-09 04:24:59 48.5328 14.4898 205 ° 7 km/h 951 m -3.8 m/s 403.40 MHz Freistadt (AT) 0.00 km UNKNOWN
N1353163 RS92 2018-08-08 04:00:45 48.305 14.6278 257 ° 6 km/h 538 m -6.7 m/s 403.40 MHz Tragwein (AT) 0.00 km LOST
N1233043 RS92 2018-08-07 03:54:13 48.1343 14.8157 284 ° 20 km/h 449 m -6.8 m/s 403.40 MHz Ardagger Markt (AT) 0.00 km FOUND
N1243360 RS92 2018-08-06 04:29:39 48.0045 14.7238 302 ° 11 km/h 612 m -10.2 m/s 405.10 MHz Sonntagberg (AT) 0.00 km FOUND
N1413978 RS92 2018-08-05 03:50:32 47.9542 14.3887 96 ° 13 km/h 688 m -6.6 m/s 403.40 MHz Ternberg (AT) 0.00 km FOUND
N1423320 RS92 2018-08-04 04:27:42 48.0012 13.9348 304 ° 9 km/h 579 m -3.5 m/s 403.40 MHz Vorchdorf (AT) 0.00 km UNKNOWN
N1423541 RS92 2018-08-03 04:13:13 47.9576 13.9106 200 ° 17 km/h 688 m -4.5 m/s 403.40 MHz Vorchdorf (AT) 0.00 km UNKNOWN
N1413964 RS92 2018-08-02 03:52:03 48.1353 13.9383 97 ° 11 km/h 461 m -11.4 m/s 403.40 MHz Gunskirchen (AT) 0.00 km UNKNOWN
N1243372 RS92 2018-08-01 04:18:48 47.9534 14.0147 87 ° 15 km/h 661 m -4.2 m/s 403.40 MHz Pettenbach (AT) 0.00 km FOUND
N1233059 RS92 2018-07-31 04:25:27 47.95 14.0958 108 ° 2 km/h 634 m -3.8 m/s 403.40 MHz Schlierbach (AT) 0.00 km FOUND
N1353185 RS92 2018-07-30 03:56:05 48.0609 14.3135 107 ° 4 km/h 532 m -7.0 m/s 403.40 MHz Sierning (AT) 0.00 km FOUND
N1414010 RS92 2018-07-29 04:05:56 48.1231 14.6215 140 ° 30 km/h 518 m -5.0 m/s 403.40 MHz Haag (AT) 0.00 km FOUND
N1253309 RS92 2018-07-28 04:14:55 48.4307 14.0987 269 ° 15 km/h 642 m -6.1 m/s 403.40 MHz Herzogsdorf (AT) 0.00 km UNKNOWN
N1253073 RS92 2018-07-27 04:14:18 48.2122 13.7915 244 ° 24 km/h 595 m -4.9 m/s 403.40 MHz Gallspach (AT) 0.00 km UNKNOWN
N1243362 RS92 2018-07-26 04:09:32 47.5714 13.6343 143 ° 15 km/h 2085 m -4.3 m/s 403.40 MHz Bad Goisern (AT) 0.00 km UNKNOWN
N1253102 RS92 2018-07-25 02:36:46 48.0881 14.0961 125 ° 13 km/h 633 m -25.4 m/s 403.40 MHz Sattledt (AT) 0.00 km UNKNOWN
N1253087 RS92 2018-07-24 04:12:56 47.5765 14.0309 172 ° 28 km/h 2666 m -4.2 m/s 403.40 MHz Stainach (AT) 0.00 km LOST
N1253083 RS92 2018-07-23 02:35:29 48.1195 14.1617 109 ° 33 km/h 500 m -26.1 m/s 403.40 MHz Kematen an der Krems (AT) 0.00 km NEED ATTENTION
N1423522 RS92 2018-07-22 04:00:20 48.2686 14.3104 75 ° 26 km/h 368 m -5.5 m/s 403.40 MHz Linz (AT) 0.00 km FOUND
N1253076 RS92 2018-07-21 04:01:47 48.3236 14.5623 283 ° 6 km/h 620 m -6.3 m/s 403.40 MHz Pregarten (AT) 0.00 km UNKNOWN
N1423534 RS92 2018-07-20 04:15:22 48.0711 14.7247 268 ° 19 km/h 605 m -5.0 m/s 403.40 MHz Aschbach Markt (AT) 0.00 km FOUND
N1413998 RS92 2018-07-19 04:21:25 48.2345 14.2782 174 ° 13 km/h 333 m -5.1 m/s 403.40 MHz Ansfelden (AT) 0.00 km UNKNOWN
N1413990 RS92 2018-07-18 02:28:47 48.0894 14.3665 88 ° 46 km/h 591 m -20.7 m/s 403.40 MHz Dietach (AT) 0.00 km UNKNOWN
N1353267 RS92 2018-07-17 02:50:49 48.07 14.5468 89 ° 37 km/h 681 m -10.3 m/s 403.40 MHz Weistrach (AT) 0.00 km LOST
N1423530 RS92 2018-07-16 04:07:23 48.2225 15.0729 118 ° 17 km/h 729 m -12.5 m/s 403.40 MHz Ybbs an der Donau (AT) 0.00 km FOUND
N1423357 RS92 2018-07-15 04:22:40 47.9202 15.5569 79 ° 15 km/h 1448 m -5.1 m/s 403.40 MHz Lilienfeld (AT) 0.00 km UNKNOWN
N1423351 RS92 2018-07-14 04:15:54 48.0295 15.2159 24 ° 17 km/h 744 m -4.1 m/s 403.40 MHz Oberndorf an der Melk (AT) 0.00 km UNKNOWN
N1253082 RS92 2018-07-13 04:00:47 48.1015 15.2379 49 ° 39 km/h 764 m -4.2 m/s 403.40 MHz Oberndorf an der Melk (AT) 0.00 km UNKNOWN
N1243371 RS92 2018-07-12 04:02:26 48.3529 15.9493 33 ° 22 km/h 370 m -4.1 m/s 403.40 MHz Langenrohr (AT) 0.00 km FOUND
N1253088 RS92 2018-07-11 04:09:04 48.4955 15.3211 112 ° 37 km/h 918 m -4.4 m/s 403.40 MHz Gföhl (AT) 0.00 km FOUND
N1353268 RS92 2018-07-10 03:56:31 47.941 14.274 35 ° 20 km/h 744 m -6.0 m/s 403.40 MHz Gründberg (AT) 0.00 km UNKNOWN
N1253096 RS92 2018-07-09 03:47:49 47.2353 14.0019 149 ° 56 km/h 3256 m -4.3 m/s 403.40 MHz Murau (AT) 0.00 km UNKNOWN
N1353276 RS92 2018-07-08 04:04:29 47.3722 14.1893 145 ° 48 km/h 2864 m -6.9 m/s 403.40 MHz Irdning (AT) 0.00 km UNKNOWN
N1253122 RS92 2018-07-07 03:51:36 48.006 14.5667 131 ° 41 km/h 874 m -5.6 m/s 403.40 MHz Weistrach (AT) 0.00 km NEED ATTENTION
N1353192 RS92 2018-07-06 03:50:08 48.2993 14.541 88 ° 24 km/h 509 m -6.1 m/s 403.40 MHz Ried in der Riedmark (AT) 0.00 km FOUND
N1423329 RS92 2018-07-05 04:06:47 48.1674 15.0544 64 ° 7 km/h 754 m -4.5 m/s 403.40 MHz Ybbs an der Donau (AT) 0.00 km LOST
M3913313 RS92 2018-07-04 04:07:32 48.254 14.8763 208 ° 11 km/h 639 m -4.6 m/s 403.40 MHz Grein (AT) 0.00 km FOUND
M1323485 RS92 2018-07-03 03:56:36 47.9289 14.8948 311 ° 7 km/h 1052 m -6.8 m/s 403.40 MHz Ybbsitz (AT) 0.00 km LOST
N1413980 RS92 2018-07-02 02:40:52 47.9093 14.6068 279 ° 9 km/h 1176 m -23.5 m/s 403.40 MHz Grossraming (AT) 0.00 km UNKNOWN
N1423326 RS92 2018-07-01 03:54:04 47.5019 14.95 129 ° 52 km/h 2463 m -12.2 m/s 403.40 MHz Eisenerz (AT) 0.00 km UNKNOWN
N1423337 RS92 2018-06-30 04:00:48 47.7118 14.2697 144 ° 24 km/h 1772 m -6.2 m/s 403.40 MHz Windischgarsten (AT) 0.00 km UNKNOWN
M1323172 RS92 2018-06-29 04:02:17 48.0657 13.2179 88 ° 24 km/h 743 m -5.9 m/s 403.40 MHz Munderfing (AT) 0.00 km UNKNOWN
N1414019 RS92 2018-06-28 04:03:18 48.0483 12.9954 150 ° 11 km/h 709 m -5.6 m/s 403.40 MHz Eggelsberg (AT) 0.00 km UNKNOWN
N1423366 RS92 2018-06-27 03:52:11 47.0266 13.875 182 ° 67 km/h 4220 m -2.5 m/s 403.40 MHz Tamsweg (AT) 0.00 km UNKNOWN
N1414007 RS92 2018-06-26 03:59:57 47.2815 13.36 192 ° 31 km/h 3215 m -5.7 m/s 403.40 MHz Flachau (AT) 0.00 km UNKNOWN
M3913487 RS92 2018-06-25 04:22:58 47.6814 14.243 129 ° 24 km/h 1665 m -3.6 m/s 403.40 MHz Spital am Pyhrn (AT) 0.00 km UNKNOWN
N1423335 RS92 2018-06-24 04:50:32 47.5199 14.3348 101 ° 44 km/h 2042 m -4.3 m/s 405.10 MHz Rottenmann (AT) 0.00 km UNKNOWN
M3913472 RS92 2018-06-23 03:51:46 47.6014 14.8414 133 ° 50 km/h 1736 m -7.4 m/s 403.40 MHz Eisenerz (AT) 0.00 km UNKNOWN
N1413985 RS92 2018-06-21 04:18:01 48.3331 14.3513 252 ° 20 km/h 486 m -5.0 m/s 403.40 MHz Altenberg bei Linz (AT) 0.00 km FOUND
N1413997 RS92 2018-06-20 04:00:25 48.2395 13.7731 267 ° 9 km/h 497 m -9.2 m/s 403.40 MHz Grieskirchen (AT) 0.00 km UNKNOWN
M1344065 RS92 2018-06-19 04:19:55 47.6921 13.7301 105 ° 28 km/h 2065 m -4.1 m/s 403.40 MHz Bad Ischl (AT) 0.00 km UNKNOWN
N1423352 RS92 2018-06-18 02:39:37 48.1501 14.3425 106 ° 44 km/h 734 m -26.0 m/s 403.40 MHz Sankt Marien (AT) 0.00 km LOST
N1414009 RS92 2018-06-17 04:09:20 48.333 14.3477 349 ° 4 km/h 428 m -3.5 m/s 403.40 MHz Altenberg bei Linz (AT) 0.00 km FOUND
N1513131 RS92 2018-06-16 04:19:11 48.3443 13.8997 244 ° 9 km/h 545 m -3.7 m/s 403.40 MHz Prambachkirchen (AT) 0.00 km FOUND
N1423334 RS92 2018-06-14 03:56:17 48.1397 14.1576 93 ° 13 km/h 470 m -9.1 m/s 403.40 MHz Weisskirchen an der Traun (AT) 0.00 km FOUND
M3913942 RS92 2018-06-12 04:05:59 48.4422 15.0009 110 ° 37 km/h 930 m -4.9 m/s 403.40 MHz Königswiesen (AT) 0.00 km FOUND
N1423539 RS92 2018-06-11 04:28:17 48.1283 14.9044 153 ° 17 km/h 314 m -3.3 m/s 403.40 MHz Amstetten (AT) 0.00 km FOUND
M3913477 RS92 2018-06-10 03:44:35 48.1738 14.553 107 ° 11 km/h 439 m -10.9 m/s 403.40 MHz Sankt Valentin (AT) 0.00 km FOUND
M3913473 RS92 2018-06-08 04:08:55 48.3957 14.2914 230 ° 9 km/h 693 m -5.0 m/s 403.40 MHz Hellmonsödt (AT) 0.00 km FOUND
M3913255 RS92 2018-06-07 02:38:56 48.2566 14.2558 284 ° 20 km/h 422 m -25.8 m/s 403.40 MHz Leonding (AT) 0.00 km FOUND
M3923078 RS92 2018-06-06 03:46:54 48.3677 14.2898 203 ° 13 km/h 618 m -9.8 m/s 403.40 MHz Lichtenhag (AT) 0.00 km UNKNOWN
M3913471 RS92 2018-06-04 04:16:44 47.9947 14.1548 24 ° 11 km/h 571 m -4.6 m/s 403.40 MHz Nussbach (AT) 0.00 km FOUND
M3913926 RS92 2018-06-03 04:19:01 48.1069 14.4667 194 ° 15 km/h 528 m -4.3 m/s 403.40 MHz Ernsthofen (AT) 0.00 km FOUND
M3913912 RS92 2018-06-02 04:24:21 48.2958 14.1009 189 ° 15 km/h 366 m -5.3 m/s 403.40 MHz Alkoven (AT) 0.00 km FOUND
M3913482 RS92 2018-06-01 04:00:47 48.223 14.0628 82 ° 26 km/h 431 m -9.0 m/s 403.40 MHz Buchkirchen (AT) 0.00 km FOUND
M3923097 RS92 2018-05-31 03:40:05 48.2367 14.3214 283 ° 20 km/h 347 m -5.2 m/s 403.40 MHz Ansfelden (AT) 0.00 km FOUND
M3913459 RS92 2018-05-30 08:37:18 48.2001 14.3309 235 ° 4 km/h 380 m -2.4 m/s 403.40 MHz Ansfelden (AT) 0.00 km FOUND
N1423958 RS92 2018-05-30 06:56:59 48.114 14.9616 119 ° 24 km/h 12645 m -7.6 m/s 403.40 MHz Sankt Georgen am Ybbsfelde (AT) 0.00 km UNKNOWN
M3913474 RS92 2018-05-30 05:49:09 48.2214 14.9643 108 ° 13 km/h 15064 m 1.7 m/s 405.10 MHz Waldhausen im Strudengau (AT) 0.00 km UNKNOWN
N1433131 RS92 2018-05-29 06:52:42 48.0881 13.9989 109 ° 22 km/h 8923 m -7.9 m/s 403.40 MHz Steinerkirchen an der Traun (AT) 0.00 km UNKNOWN
N1433204 RS92 2018-05-28 03:45:05 48.2531 14.0603 281 ° 15 km/h 544 m -12.7 m/s 403.40 MHz Scharten (AT) 0.00 km FOUND
N1433247 RS92 2018-05-27 03:09:09 48.1586 14.5333 132 ° 9 km/h 444 m -5.1 m/s 403.40 MHz Sankt Valentin (AT) 0.00 km FOUND
N1433137 RS92 2018-05-26 03:44:46 47.9389 14.5808 25 ° 15 km/h 1026 m -4.7 m/s 403.40 MHz Grossraming (AT) 0.00 km FOUND
M3923084 RS92 2018-05-25 03:51:17 48.1568 14.362 92 ° 13 km/h 418 m -4.0 m/s 403.40 MHz Markt Sankt Florian (AT) 0.00 km FOUND
M3913929 RS92 2018-05-24 04:15:26 48.5231 14.0601 269 ° 41 km/h 750 m -4.0 m/s 403.40 MHz Haslach an der Mühl (AT) 0.00 km UNKNOWN
M3923079 RS92 2018-05-23 04:21:19 48.5104 14.4831 144 ° 11 km/h 935 m -4.3 m/s 403.40 MHz Freistadt (AT) 0.00 km UNKNOWN
M3923070 RS92 2018-05-22 04:14:22 48.3771 14.6609 254 ° 13 km/h 733 m -4.3 m/s 403.40 MHz Tragwein (AT) 0.00 km UNKNOWN
M3913273 RS92 2018-05-21 04:44:03 48.3184 14.1672 266 ° 39 km/h 425 m -4.0 m/s 405.10 MHz Ottensheim (AT) 0.00 km FOUND
M3913476 RS92 2018-05-21 04:37:25 48.3247 14.171 255 ° 31 km/h 390 m -5.2 m/s 403.40 MHz Ottensheim (AT) 0.00 km LOST
M3923089 RS92 2018-05-19 04:08:12 48.2633 14.4818 173 ° 31 km/h 446 m -5.1 m/s 403.40 MHz Langenstein (AT) 0.00 km FOUND
M3913918 RS92 2018-05-17 03:51:45 48.1793 14.1758 85 ° 22 km/h 433 m -2.8 m/s 403.40 MHz Pucking (AT) 0.00 km LOST
M3913266 RS92 2018-05-16 03:37:08 48.1564 14.3473 74 ° 30 km/h 443 m -7.9 m/s 403.40 MHz Sankt Marien (AT) 0.00 km FOUND
M5013680 RS92 2018-05-15 04:07:16 48.2684 13.9215 257 ° 15 km/h 602 m -2.3 m/s 403.40 MHz Sankt Marienkirchen an der Polsenz (AT) 0.00 km UNKNOWN
M3913389 RS92 2018-05-13 04:07:22 48.202 14.087 329 ° 30 km/h 440 m -4.4 m/s 403.40 MHz Marchtrenk (AT) 0.00 km FOUND
M3913935 RS92 2018-05-12 03:54:11 48.3225 14.2954 310 ° 7 km/h 427 m -3.9 m/s 403.40 MHz Linz (AT) 0.00 km FOUND
M3833210 RS92 2018-05-11 03:49:19 48.4001 14.3924 107 ° 24 km/h 817 m -11.5 m/s 403.40 MHz Alberndorf in der Riedmark (AT) 0.00 km UNKNOWN
M3913272 RS92 2018-05-10 03:35:22 48.596 14.1935 30 ° 20 km/h 1184 m -4.7 m/s 403.40 MHz Vorderweissenbach (AT) 0.00 km UNKNOWN
M3913387 RS92 2018-05-09 12:18:42 48.4043 13.5657 323 ° 24 km/h 540 m -17.8 m/s 405.10 MHz Taufkirchen an der Pram (AT) 0.00 km UNKNOWN
M3913467 RS92 2018-05-09 10:04:25 48.3388 13.7526 248 ° 31 km/h 14683 m 4.1 m/s 403.40 MHz Peuerbach (AT) 0.00 km UNKNOWN
M4953073 RS92 2018-05-08 04:01:40 47.7361 13.5523 208 ° 20 km/h 1653 m -5.2 m/s 403.40 MHz Strobl (AT) 0.00 km UNKNOWN
M3913486 RS92 2018-05-07 03:59:05 48.2297 13.7786 236 ° 39 km/h 545 m -3.5 m/s 403.40 MHz Gallspach (AT) 0.00 km UNKNOWN
M3913478 RS92 2018-05-06 02:32:25 48.1667 14.2231 265 ° 26 km/h 427 m -26.3 m/s 403.40 MHz Neuhofen an der Krems (AT) 0.00 km FOUND
M3913386 RS92 2018-05-05 04:16:20 48.2942 13.7845 255 ° 37 km/h 669 m -4.3 m/s 403.40 MHz Kallham (AT) 0.00 km UNKNOWN
M3913271 RS92 2018-05-04 04:03:00 48.3589 13.806 265 ° 22 km/h 591 m -4.9 m/s 403.40 MHz Peuerbach (AT) 0.00 km UNKNOWN
M5013678 RS92 2018-05-03 03:55:55 48.6565 14.3534 22 ° 30 km/h 1031 m -3.5 m/s 403.40 MHz Kaplice (CZ) 0.00 km UNKNOWN
M4953101 RS92 2018-05-02 08:05:51 48.7287 14.4145 40 ° 9 km/h 24727 m -28.7 m/s 403.40 MHz Kaplice (CZ) 0.00 km UNKNOWN
M5013649 RS92 2018-05-01 02:32:28 48.4719 14.5113 192 ° 15 km/h 1034 m -26.5 m/s 403.40 MHz Lasberg (AT) 0.00 km UNKNOWN
M5013676 RS92 2018-04-30 04:03:29 48.8423 14.5984 356 ° 52 km/h 936 m -3.9 m/s 403.40 MHz Trhové Sviny (CZ) 0.00 km UNKNOWN
M5013659 RS92 2018-04-29 04:15:18 48.5467 14.7571 58 ° 28 km/h 1027 m -4.9 m/s 403.40 MHz Unterweissenbach (AT) 0.00 km UNKNOWN
M4953095 RS92 2018-04-28 02:34:59 48.3666 14.5513 321 ° 6 km/h 799 m -26.6 m/s 403.40 MHz Pregarten (AT) 0.00 km UNKNOWN
M4953078 RS92 2018-04-27 04:14:40 47.9092 16.0079 113 ° 15 km/h 1068 m -4.1 m/s 403.40 MHz Pernitz (AT) 0.00 km UNKNOWN
M4953075 RS92 2018-04-26 02:32:03 48.3518 14.8097 70 ° 67 km/h 10883 m -40.2 m/s 403.40 MHz Königswiesen (AT) 0.00 km UNKNOWN
M5013669 RS92 2018-04-25 13:56:01 48.2641 15.5855 73 ° 41 km/h 1762 m -5.0 m/s 405.10 MHz Herzogenburg (AT) 0.00 km UNKNOWN
M5013650 RS92 2018-04-24 12:59:38 47.8412 14.7866 358 ° 20 km/h 1357 m -2.0 m/s 403.40 MHz Weyer Markt (AT) 0.00 km UNKNOWN
M5023328 RS92 2018-04-23 04:42:24 48.0046 15.3097 57 ° 24 km/h 994 m -4.4 m/s 403.40 MHz Kirchberg an der Pielach (AT) 0.00 km UNKNOWN
M5013646 RS92 2018-04-22 17:59:37 48.0292 15.2604 106 ° 26 km/h 813 m -4.3 m/s 403.40 MHz Oberndorf an der Melk (AT) 0.00 km LOST
M5013671 RS92 2018-04-21 03:27:44 48.2695 14.032 190 ° 4 km/h 475 m -6.2 m/s 403.40 MHz Fraham (AT) 0.00 km FOUND
M5013664 RS92 2018-04-20 04:01:09 47.761 13.495 301 ° 30 km/h 1350 m -3.6 m/s 403.40 MHz Sankt Wolfgang im Salzkammergut (AT) 0.00 km UNKNOWN
M4953085 RS92 2018-04-19 03:59:00 47.8228 13.6011 325 ° 15 km/h 1689 m -3.5 m/s 403.40 MHz Bad Ischl (AT) 0.00 km UNKNOWN
M5013683 RS92 2018-04-18 04:05:42 47.5207 13.3308 208 ° 17 km/h 2157 m -4.8 m/s 403.40 MHz Abtenau (AT) 0.00 km UNKNOWN
M5013684 RS92 2018-04-17 03:01:27 48.2585 14.3987 91 ° 9 km/h 372 m -9.5 m/s 403.40 MHz Luftenberg (AT) 0.00 km LOST
M4936131 RS92 2018-04-16 03:09:23 48.8465 14.2176 344 ° 39 km/h 1623 m -2.5 m/s 403.40 MHz Český Krumlov (CZ) 0.00 km UNKNOWN
M5013688 RS92 2018-04-15 03:56:22 48.5355 14.7181 17 ° 63 km/h 1382 m -4.2 m/s 403.40 MHz Sankt Oswald bei Freistadt (AT) 0.00 km UNKNOWN
M4936130 RS92 2018-04-14 03:56:49 48.4691 15.4991 78 ° 28 km/h 977 m -4.4 m/s 403.40 MHz Gföhl (AT) 0.00 km UNKNOWN
M4936137 RS92 2018-04-13 03:48:01 48.8249 13.9233 349 ° 48 km/h 1701 m -7.5 m/s 403.40 MHz Ulrichsberg (AT) 0.00 km UNKNOWN
M5013666 RS92 2018-04-12 03:38:15 48.7395 14.6002 351 ° 65 km/h 1325 m -12.2 m/s 403.40 MHz Kaplice (CZ) 0.00 km UNKNOWN
M5013662 RS92 2018-04-11 03:50:14 48.5751 14.5195 7 ° 20 km/h 1155 m -6.6 m/s 403.40 MHz Rainbach im Mühlkreis (AT) 0.00 km UNKNOWN
N1423353 RS92 2018-04-10 04:12:30 48.3612 13.8 233 ° 15 km/h 597 m -4.1 m/s 403.40 MHz Peuerbach (AT) 0.00 km UNKNOWN
M5013654 RS92 2018-04-09 04:03:01 48.4069 14.6694 285 ° 15 km/h 788 m -3.7 m/s 403.40 MHz Gutau (AT) 0.00 km UNKNOWN
M5013670 RS92 2018-04-08 04:01:57 47.9018 14.6877 15 ° 39 km/h 1193 m -3.7 m/s 403.40 MHz Weyer Markt (AT) 0.00 km FOUND
M5013657 RS92 2018-04-07 04:03:44 48.0377 14.0517 271 ° 33 km/h 625 m -4.3 m/s 403.40 MHz Ried im Traunkreis (AT) 0.00 km FOUND
M5013660 RS92 2018-04-06 03:56:18 47.4867 14.8257 138 ° 67 km/h 2770 m -5.3 m/s 403.40 MHz Eisenerz (AT) 0.00 km UNKNOWN
M5013663 RS92 2018-04-05 04:06:58 48.827 15.5338 89 ° 33 km/h 851 m -3.8 m/s 403.40 MHz Raabs an der Thaya (AT) 0.00 km FOUND
M4953067 RS92 2018-04-04 04:02:30 48.6014 15.5774 273 ° 6 km/h 702 m -5.3 m/s 403.40 MHz Gars am Kamp (AT) 0.00 km UNKNOWN
M4936146 RS92 2018-04-03 03:57:02 48.2978 15.7969 284 ° 26 km/h 1175 m -5.7 m/s 403.40 MHz Traismauer (AT) 0.00 km FOUND
N1423603 RS92 2018-04-02 04:02:07 47.4175 15.9599 128 ° 67 km/h 2247 m -5.8 m/s 403.40 MHz Rohrbach an der Lafnitz (AT) 0.00 km UNKNOWN
M5013661 RS92 2018-04-01 02:31:31 48.1591 14.3661 130 ° 50 km/h 854 m -24.7 m/s 403.40 MHz Markt Sankt Florian (AT) 0.00 km UNKNOWN
N1423592 RS92 2018-03-31 02:28:15 48.4888 14.4263 22 ° 76 km/h 5329 m -31.5 m/s 403.40 MHz Freistadt (AT) 0.00 km UNKNOWN
N1423494 RS92 2018-03-30 02:42:53 48.313 14.9382 246 ° 7 km/h 993 m -22.3 m/s 403.40 MHz Waldhausen im Strudengau (AT) 0.00 km FOUND
N1423596 RS92 2018-03-29 04:09:27 48.2166 16.2273 210 ° 4 km/h 300 m -4.5 m/s 403.40 MHz Purkersdorf (AT) 0.00 km FOUND
N1423457 RS92 2018-03-28 03:53:58 47.4833 15.21 323 ° 9 km/h 1953 m -3.8 m/s 403.40 MHz Thörl (AT) 0.00 km UNKNOWN
N1423354 RS92 2018-03-27 03:40:28 48.0258 14.8443 72 ° 15 km/h 625 m -12.3 m/s 403.40 MHz Neuhofen an der Ybbs (AT) 0.00 km FOUND
N1423577 RS92 2018-03-26 03:26:46 48.1768 14.1579 288 ° 15 km/h 454 m -25.9 m/s 403.40 MHz Pucking (AT) 0.00 km FOUND
N1423374 RS92 2018-03-25 04:43:01 48.1513 13.8843 274 ° 20 km/h 432 m -8.8 m/s 403.40 MHz Pichl bei Wels (AT) 0.00 km LOST
N1423369 RS92 2018-03-24 05:01:00 47.9505 13.6299 57 ° 9 km/h 640 m -3.4 m/s 403.40 MHz Lenzing (AT) 0.00 km UNKNOWN
N1423355 RS92 2018-03-23 04:44:17 47.8905 14.0334 100 ° 30 km/h 1106 m -6.8 m/s 403.40 MHz Kirchdorf (AT) 0.00 km UNKNOWN
N1423467 RS92 2018-03-22 05:00:43 47.6959 14.0064 347 ° 17 km/h 2149 m -4.7 m/s 403.40 MHz Bad Aussee (AT) 0.00 km UNKNOWN
N1423476 RS92 2018-03-21 04:39:52 48.1514 14.5247 89 ° 17 km/h 463 m -10.3 m/s 403.40 MHz Sankt Valentin (AT) 0.00 km FOUND
N1423471 RS92 2018-03-20 05:03:05 48.1013 14.4886 340 ° 13 km/h 467 m -4.6 m/s 403.40 MHz Ernsthofen (AT) 0.00 km FOUND
N1423621 RS92 2018-03-19 04:55:32 48.4982 14.5305 206 ° 19 km/h 876 m -4.2 m/s 403.40 MHz Freistadt (AT) 0.00 km UNKNOWN
N1423489 RS92 2018-03-18 05:26:35 48.6398 14.3879 237 ° 46 km/h 1282 m -4.3 m/s 405.10 MHz Rainbach im Mühlkreis (AT) 0.00 km UNKNOWN
N1423480 RS92 2018-03-17 03:32:51 48.3897 14.6564 3 ° 11 km/h 1373 m -19.9 m/s 403.40 MHz Gutau (AT) 0.00 km UNKNOWN
N1423624 RS92 2018-03-16 05:15:33 48.4865 15.6296 292 ° 11 km/h 415 m -3.9 m/s 403.40 MHz Langenlois (AT) 0.00 km LOST
N1423458 RS92 2018-03-15 03:31:17 48.1237 14.4004 267 ° 41 km/h 574 m -25.0 m/s 403.40 MHz Dietach (AT) 0.00 km FOUND
N1423499 RS92 2018-03-14 04:35:25 48.1861 15.145 81 ° 39 km/h 484 m -12.2 m/s 403.40 MHz Pöchlarn (AT) 0.00 km LOST
N1423594 RS92 2018-03-13 04:55:33 48.2723 15.3955 89 ° 56 km/h 1306 m -3.8 m/s 403.40 MHz Melk (AT) 0.00 km UNKNOWN
N1423481 RS92 2018-03-12 03:36:29 48.4958 14.1482 100 ° 28 km/h 1020 m -26.8 m/s 403.40 MHz Oberneukirchen (AT) 0.00 km UNKNOWN
N1423581 RS92 2018-03-11 03:44:48 48.2547 14.6827 293 ° 24 km/h 629 m -24.4 m/s 403.40 MHz Perg (AT) 0.00 km FOUND
M5013690 RS92 2018-03-10 04:39:40 47.9273 15.9541 330 ° 15 km/h 919 m -6.8 m/s 403.40 MHz Pernitz (AT) 0.00 km FOUND
M5013703 RS92 2018-03-09 04:46:52 47.7248 16.3244 114 ° 17 km/h 624 m -5.3 m/s 403.40 MHz Wiesen (AT) 0.00 km UNKNOWN
M4953098 RS92 2018-03-08 04:38:10 48.3254 15.1769 104 ° 31 km/h 833 m -5.1 m/s 403.40 MHz Pöggstall (AT) 0.00 km LOST
N1423599 RS92 2018-03-06 04:58:41 48.8146 14.6431 346 ° 39 km/h 1242 m -4.8 m/s 403.40 MHz Trhové Sviny (CZ) 0.00 km UNKNOWN
M4953104 RS92 2018-03-05 04:56:01 48.5512 15.1382 308 ° 22 km/h 956 m -3.1 m/s 403.40 MHz Zwettl (AT) 0.00 km UNKNOWN
N1423478 RS92 2018-03-04 04:56:48 48.1346 15.364 143 ° 15 km/h 879 m -5.2 m/s 403.40 MHz Mank (AT) 0.00 km UNKNOWN
N1423510 RS92 2018-03-03 04:52:46 48.0832 15.5164 282 ° 9 km/h 596 m -3.5 m/s 403.40 MHz Wilhelmsburg (AT) 0.00 km UNKNOWN
N1423618 RS92 2018-03-02 04:58:08 48.1829 14.8118 257 ° 41 km/h 408 m -3.9 m/s 403.40 MHz Ardagger Markt (AT) 0.00 km FOUND
N1423619 RS92 2018-03-01 04:36:28 47.9244 15.6772 247 ° 11 km/h 833 m -4.8 m/s 403.40 MHz Lilienfeld (AT) 0.00 km UNKNOWN
N1423627 RS92 2018-02-28 04:36:47 48.1064 14.2784 232 ° 11 km/h 461 m -7.8 m/s 403.40 MHz Sankt Marien (AT) 0.00 km UNKNOWN
N1423608 RS92 2018-02-27 04:39:59 48.2398 13.9033 149 ° 13 km/h 468 m -2.9 m/s 403.40 MHz Bad Schallerbach (AT) 0.00 km FOUND
M4953071 RS92 2018-02-26 04:58:33 48.1195 14.1594 176 ° 28 km/h 459 m -5.0 m/s 403.40 MHz Kematen an der Krems (AT) 0.00 km FOUND
N1423461 RS92 2018-02-25 04:51:35 47.6355 14.6166 296 ° 15 km/h 1391 m -5.0 m/s 403.40 MHz Landl (AT) 0.00 km UNKNOWN
N1423495 RS92 2018-02-24 04:45:42 47.8646 14.3305 327 ° 26 km/h 1237 m -4.8 m/s 403.40 MHz Molln (AT) 0.00 km UNKNOWN
N1423465 RS92 2018-02-23 03:29:56 48.3208 14.3608 251 ° 31 km/h 702 m -26.0 m/s 403.40 MHz Steyregg (AT) 0.00 km FOUND
M5013702 RS92 2018-02-22 04:50:10 48.3253 14.0724 225 ° 20 km/h 475 m -4.1 m/s 403.40 MHz Feldkirchen an der Donau (AT) 0.00 km UNKNOWN
M4953069 RS92 2018-02-21 04:25:25 48.1123 13.7844 203 ° 11 km/h 641 m -3.0 m/s 403.40 MHz Gaspoltshofen (AT) 0.00 km UNKNOWN
N1423628 RS92 2018-02-20 04:49:39 48.0788 14.2503 241 ° 13 km/h 481 m -5.3 m/s 403.40 MHz Kematen an der Krems (AT) 0.00 km FOUND
N1423456 RS92 2018-02-19 04:48:11 48.059 14.2871 258 ° 26 km/h 435 m -3.3 m/s 403.40 MHz Sierning (AT) 0.00 km FOUND
N1423464 RS92 2018-02-18 04:26:17 48.2057 15.1496 83 ° 17 km/h 346 m -3.8 m/s 403.40 MHz Pöchlarn (AT) 0.00 km FOUND
N1423453 RS92 2018-02-17 04:35:49 47.8755 15.4583 357 ° 6 km/h 922 m -7.5 m/s 403.40 MHz Mariazell (AT) 0.00 km UNKNOWN
N1423473 RS92 2018-02-16 05:52:33 47.6995 16.8006 351 ° 46 km/h 308 m -3.4 m/s 403.40 MHz Illmitz (AT) 0.00 km UNKNOWN
N1423485 RS92 2018-02-15 04:49:47 47.0221 14.6924 162 ° 20 km/h 3541 m -4.8 m/s 403.40 MHz Obdach (AT) 0.00 km UNKNOWN
N1423582 RS92 2018-02-14 04:08:50 48.1943 14.3712 124 ° 2 km/h 328 m -4.7 m/s 403.40 MHz Markt Sankt Florian (AT) 0.00 km FOUND
N1423455 RS92 2018-02-13 04:36:08 48.4203 14.8062 90 ° 9 km/h 838 m -4.0 m/s 403.40 MHz Unterweissenbach (AT) 0.00 km UNKNOWN
M4953070 RS92 2018-02-12 04:48:13 48.5573 15.2326 65 ° 37 km/h 873 m -4.9 m/s 403.40 MHz Zwettl (AT) 0.00 km NEED ATTENTION
M5013693 RS92 2018-02-11 03:31:54 48.1389 14.3031 118 ° 9 km/h 979 m -24.4 m/s 403.40 MHz Sankt Marien (AT) 0.00 km FOUND
M5023322 RS92 2018-02-10 04:41:20 48.2419 14.2132 72 ° 11 km/h 401 m -5.6 m/s 403.40 MHz Pasching (AT) 0.00 km FOUND
M5013691 RS92 2018-02-09 04:01:48 48.2929 14.2957 305 ° 6 km/h 375 m -5.3 m/s 403.40 MHz Linz (AT) 0.00 km UNKNOWN
M4953080 RS92 2018-02-08 03:28:52 48.2508 14.2229 120 ° 19 km/h 957 m -24.0 m/s 403.40 MHz Pasching (AT) 0.00 km FOUND
N1423462 RS92 2018-02-07 04:41:22 48.636 14.8188 265 ° 28 km/h 1222 m -6.2 m/s 403.40 MHz Weitra (AT) 0.00 km LOST
M4953099 RS92 2018-02-06 04:37:00 48.1373 15.1253 234 ° 37 km/h 455 m -8.1 m/s 403.40 MHz Wieselburg (AT) 0.00 km FOUND
M4953083 RS92 2018-02-05 04:44:08 48.1603 15.0865 255 ° 20 km/h 398 m -3.0 m/s 403.40 MHz Ybbs an der Donau (AT) 0.00 km FOUND
M4953074 RS92 2018-02-04 04:35:17 48.1029 15.2061 113 ° 28 km/h 725 m -5.2 m/s 403.40 MHz Oberndorf an der Melk (AT) 0.00 km FOUND
M4953112 RS92 2018-02-03 04:34:32 48.3516 15.6669 80 ° 26 km/h 604 m -7.3 m/s 403.40 MHz Paudorf (AT) 0.00 km FOUND
N1423449 RS92 2018-02-02 04:56:33 48.8793 16.8153 23 ° 24 km/h 677 m -4.4 m/s 403.40 MHz Hustopeče (CZ) 0.00 km FOUND
N1423505 RS92 2018-02-01 04:33:45 48.5084 16.0791 326 ° 15 km/h 529 m -8.9 m/s 403.40 MHz Göllersdorf (AT) 0.00 km FOUND
M4953105 RS92 2018-01-31 05:01:19 47.7652 16.2409 38 ° 6 km/h 489 m -3.6 m/s 403.40 MHz Lanzenkirchen (AT) 0.00 km FOUND
N1423490 RS92 2018-01-30 04:57:18 47.4314 17.264 132 ° 56 km/h 938 m -5.7 m/s 403.40 MHz Beled (HU) 0.00 km UNKNOWN
N1423588 RS92 2018-01-29 04:54:38 47.4432 16.0188 124 ° 50 km/h 1488 m -4.1 m/s 403.40 MHz Friedberg (AT) 0.00 km UNKNOWN
N1423470 RS92 2018-01-28 04:50:32 47.4182 15.5623 119 ° 63 km/h 2876 m -4.7 m/s 403.40 MHz Birkfeld (AT) 0.00 km UNKNOWN
N1423497 RS92 2018-01-27 04:49:17 48.2994 16.3645 125 ° 15 km/h 347 m -8.1 m/s 403.40 MHz Langenzersdorf (AT) 0.00 km LOST
M5013647 RS92 2018-01-26 05:01:39 48.8329 16.5262 302 ° 7 km/h 856 m -3.7 m/s 403.40 MHz Mikulov (CZ) 0.00 km FOUND
N1423502 RS92 2018-01-25 05:11:42 48.2857 16.4096 141 ° 28 km/h 264 m -3.7 m/s 403.40 MHz Gerasdorf bei Wien (AT) 0.00 km FOUND
M4953090 RS92 2018-01-24 04:54:45 47.3072 15.5237 178 ° 61 km/h 3238 m -5.3 m/s 403.40 MHz Passail (AT) 0.00 km UNKNOWN
M4953122 RS92 2018-01-23 04:41:26 47.295 15.8605 138 ° 94 km/h 2872 m -7.4 m/s 403.40 MHz Pöllau (AT) 0.00 km UNKNOWN
M4953110 RS92 2018-01-22 05:03:11 46.831 16.6794 211 ° 30 km/h 1539 m -4.1 m/s 403.40 MHz Zalalövő (HU) 0.00 km UNKNOWN
M5013689 RS92 2018-01-21 04:58:52 47.5664 16.541 145 ° 30 km/h 633 m -3.6 m/s 403.40 MHz Oberpullendorf (AT) 0.00 km LOST
M4953088 RS92 2018-01-20 05:10:41 48.1949 17.1714 83 ° 26 km/h 483 m -4.3 m/s 403.40 MHz Bratislava (SK) 0.00 km UNKNOWN
M5013695 RS92 2018-01-19 04:59:50 47.8983 18.118 126 ° 46 km/h 1046 m -4.9 m/s 403.40 MHz Nesvady (SK) 0.00 km UNKNOWN
N1423491 RS92 2018-01-18 04:56:12 46.7849 16.707 158 ° 80 km/h 1945 m -6.1 m/s 403.40 MHz Zalalövő (HU) 0.00 km UNKNOWN
M4953094 RS92 2018-01-17 05:04:32 48.1587 17.179 84 ° 44 km/h 426 m -4.1 m/s 403.40 MHz Bratislava (SK) 0.00 km UNKNOWN
M4953103 RS92 2018-01-16 04:57:05 47.8558 15.9676 126 ° 44 km/h 1268 m -4.0 m/s 403.40 MHz Pernitz (AT) 0.00 km UNKNOWN
M5013692 RS92 2018-01-15 03:33:49 48.1038 14.177 79 ° 7 km/h 1449 m -20.9 m/s 403.40 MHz Kematen an der Krems (AT) 0.00 km FOUND
M4953108 RS92 2018-01-14 04:50:57 47.9539 14.711 269 ° 19 km/h 723 m -4.4 m/s 403.40 MHz Waidhofen an der Ybbs (AT) 0.00 km FOUND
M4953118 RS92 2018-01-13 05:07:51 48.13 14.1187 277 ° 41 km/h 515 m -4.4 m/s 403.40 MHz Weisskirchen an der Traun (AT) 0.00 km FOUND
M5013700 RS92 2018-01-12 05:02:37 48.2236 14.3916 89 ° 19 km/h 345 m -3.9 m/s 403.40 MHz Markt Sankt Florian (AT) 0.00 km FOUND
M4953084 RS92 2018-01-11 04:57:45 48.4284 14.7895 57 ° 17 km/h 953 m -2.4 m/s 403.40 MHz Unterweissenbach (AT) 0.00 km UNKNOWN
M5013645 RS92 2018-01-10 04:57:54 48.9088 15.3686 304 ° 30 km/h 665 m -3.9 m/s 403.40 MHz Raabs an der Thaya (AT) 0.00 km FOUND
M5013658 RS92 2018-01-09 04:27:33 48.7851 15.2213 24 ° 76 km/h 2366 m -12.9 m/s 403.40 MHz Vitis (AT) 0.00 km FOUND
M4936133 RS92 2018-01-08 04:41:23 48.568 15.2062 256 ° 15 km/h 906 m -6.5 m/s 403.40 MHz Zwettl (AT) 0.00 km FOUND
M5013673 RS92 2018-01-07 04:28:28 48.5545 15.2205 240 ° 15 km/h 901 m -7.1 m/s 403.40 MHz Zwettl (AT) 0.00 km FOUND
N1423617 RS92 2018-01-06 04:53:28 48.5839 16.0237 14 ° 17 km/h 468 m -5.6 m/s 403.40 MHz Hollabrunn (AT) 0.00 km FOUND
M4953089 RS92 2018-01-05 04:07:48 47.6082 16.0027 119 ° 76 km/h 1414 m -4.5 m/s 403.40 MHz Kirchberg am Wechsel (AT) 0.00 km UNKNOWN
M4953100 RS92 2018-01-04 04:53:19 47.4004 15.7982 119 ° 81 km/h 2816 m -4.7 m/s 403.40 MHz Vorau (AT) 0.00 km UNKNOWN
M5013679 RS92 2018-01-03 04:47:48 47.5239 15.4455 79 ° 46 km/h 1911 m -5.2 m/s 403.40 MHz Kindberg (AT) 0.00 km UNKNOWN
M4953087 RS92 2018-01-02 04:24:47 48.5255 15.1261 74 ° 63 km/h 975 m -5.8 m/s 403.40 MHz Zwettl (AT) 0.00 km UNKNOWN
M4936147 RS92 2018-01-01 04:41:00 48.6856 15.5351 97 ° 30 km/h 710 m -6.9 m/s 403.40 MHz Horn (AT) 0.00 km UNKNOWN
M5023326 RS92 2017-12-31 05:01:39 47.2223 16.1316 134 ° 57 km/h 1824 m -4.5 m/s 403.40 MHz Stegersbach (AT) 0.00 km UNKNOWN
M5013674 RS92 2017-12-30 04:44:59 47.8374 15.394 289 ° 6 km/h 1359 m -3.0 m/s 403.40 MHz Mariazell (AT) 0.00 km UNKNOWN
M4953109 RS92 2017-12-29 04:47:00 48.0249 15.7254 107 ° 54 km/h 791 m -7.2 m/s 403.40 MHz Hainfeld (AT) 0.00 km FOUND
N1423579 RS92 2017-12-28 04:31:31 48.8824 15.147 340 ° 30 km/h 1939 m -6.8 m/s 403.40 MHz Heidenreichstein (AT) 0.00 km FOUND
M5013687 RS92 2017-12-27 04:45:28 48.5553 15.8694 276 ° 19 km/h 493 m -7.7 m/s 403.40 MHz Ziersdorf (AT) 0.00 km UNKNOWN
N1423576 RS92 2017-12-26 04:37:22 48.7382 15.6629 313 ° 13 km/h 706 m -10.7 m/s 403.40 MHz Horn (AT) 0.00 km UNKNOWN
N1423595 RS92 2017-12-25 05:00:13 47.7203 15.7272 114 ° 50 km/h 1907 m -5.7 m/s 403.40 MHz Reichenau (AT) 0.00 km LOST
M4953106 RS92 2017-12-24 04:59:03 47.3657 15.3673 148 ° 76 km/h 2535 m -3.4 m/s 403.40 MHz Pernegg an der Mur (AT) 0.00 km UNKNOWN
M5023324 RS92 2017-12-23 04:51:16 47.013 14.463 203 ° 96 km/h 4630 m -6.1 m/s 403.40 MHz Friesach (AT) 0.00 km UNKNOWN
M5023327 RS92 2017-12-22 04:33:52 47.3904 14.9019 153 ° 78 km/h 3192 m -12.8 m/s 403.40 MHz Trofaiach (AT) 0.00 km UNKNOWN
M4953076 RS92 2017-12-21 04:49:56 47.0849 13.9221 227 ° 111 km/h 4588 m -5.9 m/s 403.40 MHz Tamsweg (AT) 0.00 km UNKNOWN
M5043512 RS92 2017-12-20 04:35:36 47.3432 13.8571 221 ° 56 km/h 3932 m -19.2 m/s 403.40 MHz Gröbming (AT) 0.00 km UNKNOWN
M5013651 RS92 2017-12-19 04:40:22 47.3203 14.2001 205 ° 50 km/h 3193 m -7.3 m/s 403.40 MHz Oberwölz Stadt (AT) 0.00 km UNKNOWN
M5023321 RS92 2017-12-18 04:39:08 47.1362 14.5508 192 ° 59 km/h 4406 m -5.3 m/s 403.40 MHz Judenburg (AT) 0.00 km UNKNOWN
N1423317 RS92 2017-12-17 04:41:46 48.0553 15.6651 129 ° 22 km/h 520 m -4.3 m/s 403.40 MHz Sankt Veit an der Gölsen (AT) 0.00 km FOUND
N1423322 RS92 2017-12-16 04:55:25 48.6236 16.2145 161 ° 54 km/h 728 m -4.9 m/s 403.40 MHz Wullersdorf (AT) 0.00 km FOUND
M5023325 RS92 2017-12-15 04:38:31 48.4722 16.4775 360 ° 28 km/h 389 m -3.2 m/s 403.40 MHz Großrußbach (AT) 0.00 km FOUND
M5013648 RS92 2017-12-14 04:58:21 48.3123 17.11 333 ° 56 km/h 476 m -6.0 m/s 403.40 MHz Stupava (SK) 0.00 km UNKNOWN
N1423503 RS92 2017-12-13 04:34:12 48.5605 16.1227 134 ° 31 km/h 897 m -11.1 m/s 403.40 MHz Hollabrunn (AT) 0.00 km FOUND
N1423316 RS92 2017-12-12 04:59:20 49.862 17.0256 24 ° 74 km/h 2809 m -4.7 m/s 403.40 MHz Zábřeh (CZ) 0.00 km UNKNOWN
M4953114 RS92 2017-12-11 04:32:02 48.5645 16.3518 29 ° 31 km/h 719 m -6.3 m/s 403.40 MHz Ernstbrunn (AT) 0.00 km FOUND
N1423475 RS92 2017-12-10 05:00:31 47.7924 16.1675 50 ° 31 km/h 538 m -3.7 m/s 403.40 MHz Bad Fischau (AT) 0.00 km FOUND
M4953113 RS92 2017-12-09 04:28:37 48.633 15.6304 142 ° 31 km/h 2291 m -12.7 m/s 403.40 MHz Horn (AT) 0.00 km FOUND
M5013668 RS92 2017-12-08 04:38:22 48.3652 15.511 359 ° 15 km/h 1322 m -10.4 m/s 403.40 MHz Paudorf (AT) 0.00 km FOUND
N1423633 RS92 2017-12-07 04:48:20 47.9107 15.0489 95 ° 30 km/h 1089 m -5.9 m/s 403.40 MHz Gaming (AT) 0.00 km UNKNOWN
N1423613 RS92 2017-12-06 04:59:48 47.287 15.4255 140 ° 83 km/h 2625 m -5.0 m/s 403.40 MHz Passail (AT) 0.00 km UNKNOWN
M4953079 RS92 2017-12-05 04:54:35 46.9104 14.9327 176 ° 126 km/h 4506 m -4.7 m/s 403.40 MHz Wolfsberg (AT) 0.00 km UNKNOWN
M5013694 RS92 2017-12-04 04:41:35 47.75 15.1887 97 ° 33 km/h 1740 m -5.4 m/s 403.40 MHz Mariazell (AT) 0.00 km UNKNOWN
M4936148 RS92 2017-12-03 04:34:56 48.4552 14.9042 209 ° 11 km/h 1038 m -9.9 m/s 403.40 MHz Königswiesen (AT) 0.00 km UNKNOWN
M4953097 RS92 2017-12-02 04:55:51 48.8738 15.5199 197 ° 26 km/h 736 m -3.7 m/s 403.40 MHz Raabs an der Thaya (AT) 0.00 km LOST
M5013699 RS92 2017-12-01 05:01:15 48.7516 16.0674 137 ° 17 km/h 472 m -4.1 m/s 403.40 MHz Retz (AT) 0.00 km UNKNOWN
M5013681 RS92 2017-11-30 05:06:01 48.8342 16.3055 267 ° 24 km/h 390 m -4.9 m/s 403.40 MHz Laa an der Thaya (AT) 0.00 km FOUND
M5043215 RS92 2017-11-29 03:30:49 48.3027 14.4353 86 ° 24 km/h 837 m -25.9 m/s 403.40 MHz Luftenberg (AT) 0.00 km FOUND
M5023323 RS92 2017-11-28 04:56:46 48.1146 15.9077 44 ° 26 km/h 715 m -5.7 m/s 403.40 MHz Altlengbach (AT) 0.00 km FOUND
N1423587 RS92 2017-11-27 04:59:59 47.9157 15.5603 112 ° 24 km/h 1308 m -4.7 m/s 403.40 MHz Lilienfeld (AT) 0.00 km UNKNOWN
N1423324 RS92 2017-11-26 04:45:42 48.7933 15.815 142 ° 28 km/h 585 m -9.7 m/s 403.40 MHz Retz (AT) 0.00 km FOUND
N1414006 RS92 2017-11-25 04:42:20 48.4735 15.5568 356 ° 24 km/h 1530 m -30.3 m/s 403.40 MHz Gföhl (AT) 0.00 km UNKNOWN
N1423368 RS92 2017-11-24 04:37:07 48.3012 15.3151 93 ° 2 km/h 727 m -6.1 m/s 403.40 MHz Melk (AT) 0.00 km FOUND
N1423486 RS92 2017-11-23 04:56:07 48.333 15.4416 318 ° 15 km/h 1015 m -6.4 m/s 403.40 MHz Paudorf (AT) 0.00 km UNKNOWN
N1423454 RS92 2017-11-22 05:04:42 47.3502 15.9065 116 ° 76 km/h 1840 m -4.2 m/s 403.40 MHz Vorau (AT) 0.00 km UNKNOWN
N1423629 RS92 2017-11-21 04:51:46 47.2396 15.3127 118 ° 89 km/h 2387 m -5.4 m/s 403.40 MHz Frohnleiten (AT) 0.00 km UNKNOWN
N1423589 RS92 2017-11-20 04:52:03 46.8152 15.3059 149 ° 44 km/h 3627 m -6.1 m/s 403.40 MHz Groß Sankt Florian (AT) 0.00 km UNKNOWN
N1423452 RS92 2017-11-19 05:09:23 47.693 16.1267 71 ° 31 km/h 919 m -4.8 m/s 403.40 MHz Neunkirchen (AT) 0.00 km UNKNOWN
N1423634 RS92 2017-11-18 05:13:04 47.9559 15.1259 90 ° 15 km/h 1154 m -3.5 m/s 403.40 MHz Gaming (AT) 0.00 km UNKNOWN
N1423507 RS92 2017-11-17 04:36:55 48.1112 14.6875 69 ° 24 km/h 511 m -14.5 m/s 403.40 MHz Aschbach Markt (AT) 0.00 km FOUND
N1423600 RS92 2017-11-16 05:11:33 48.1762 14.3447 253 ° 13 km/h 444 m -3.3 m/s 403.40 MHz Markt Sankt Florian (AT) 0.00 km UNKNOWN
N1423373 RS92 2017-11-15 04:40:20 47.9739 14.3054 251 ° 2 km/h 626 m -8.1 m/s 403.40 MHz Gründberg (AT) 0.00 km UNKNOWN
N1423636 RS92 2017-11-14 04:53:41 47.9188 14.5632 126 ° 20 km/h 1092 m -4.2 m/s 403.40 MHz Grossraming (AT) 0.00 km UNKNOWN
N1423361 RS92 2017-11-13 05:07:27 48.6571 15.6853 111 ° 30 km/h 424 m -4.8 m/s 403.40 MHz Horn (AT) 0.00 km UNKNOWN
N1423350 RS92 2017-11-12 04:49:04 47.7123 16.108 243 ° 13 km/h 804 m -10.0 m/s 403.40 MHz Neunkirchen (AT) 0.00 km UNKNOWN
N1423570 RS92 2017-11-09 04:42:25 48.4095 14.5312 21 ° 9 km/h 777 m -6.8 m/s 403.40 MHz Neumarkt im Mühlkreis (AT) 0.00 km UNKNOWN
N1423363 RS92 2017-11-08 04:58:11 48.874 13.8765 354 ° 33 km/h 1698 m -4.7 m/s 403.40 MHz Prachatice (CZ) 0.00 km UNKNOWN
N1423626 RS92 2017-11-07 04:39:16 48.5269 13.7824 272 ° 35 km/h 996 m -4.6 m/s 403.40 MHz Sarleinsbach (AT) 0.00 km UNKNOWN
N1423360 RS92 2017-11-06 04:40:32 48.7803 14.6598 181 ° 22 km/h 1248 m -10.6 m/s 403.40 MHz Trhové Sviny (CZ) 0.00 km UNKNOWN
M1343662 RS92 2017-11-05 05:04:17 48.7595 15.3094 314 ° 19 km/h 1057 m -5.0 m/s 403.40 MHz Waidhofen an der Thaya (AT) 0.00 km UNKNOWN
M1343653 RS92 2017-11-04 05:11:09 48.3714 14.9614 347 ° 19 km/h 999 m -5.5 m/s 403.40 MHz Königswiesen (AT) 0.00 km UNKNOWN
M1324493 RS92 2017-11-03 04:38:57 47.5557 14.928 141 ° 57 km/h 2553 m -17.2 m/s 403.40 MHz Eisenerz (AT) 0.00 km UNKNOWN
M1333002 RS92 2017-11-02 04:51:13 47.7018 15.2445 109 ° 22 km/h 2161 m -5.4 m/s 403.40 MHz Mariazell (AT) 0.00 km UNKNOWN
N1423602 RS92 2017-11-01 04:36:56 47.5272 14.909 139 ° 48 km/h 2303 m -10.1 m/s 403.40 MHz Eisenerz (AT) 0.00 km UNKNOWN
M1343652 RS92 2017-10-31 04:39:00 47.355 15.411 159 ° 59 km/h 2669 m -19.1 m/s 403.40 MHz Pernegg an der Mur (AT) 0.00 km UNKNOWN
M1324492 RS92 2017-10-30 03:45:06 47.109 16.2293 159 ° 83 km/h 2042 m -6.9 m/s 403.40 MHz Stegersbach (AT) 0.00 km UNKNOWN
M1343709 RS92 2017-10-29 03:44:09 47.1621 15.6729 128 ° 120 km/h 3179 m -8.5 m/s 403.40 MHz Sankt Ruprecht an der Raab (AT) 0.00 km UNKNOWN
M1324500 RS92 2017-10-28 03:43:07 47.0686 14.4332 179 ° 85 km/h 4837 m -9.1 m/s 403.40 MHz Friesach (AT) 0.00 km UNKNOWN
M1343440 RS92 2017-10-27 04:00:22 47.475 16.536 16 ° 20 km/h 621 m -3.2 m/s 403.40 MHz Oberpullendorf (AT) 0.00 km NEED ATTENTION
N1423315 RS92 2017-10-26 03:53:30 47.5835 15.5676 122 ° 43 km/h 1961 m -4.4 m/s 403.40 MHz Krieglach (AT) 0.00 km UNKNOWN
N1423635 RS92 2017-10-25 03:44:57 47.3797 14.7224 174 ° 37 km/h 2741 m -15.3 m/s 403.40 MHz Spielberg bei Knittelfeld (AT) 0.00 km UNKNOWN
N1423639 RS92 2017-10-24 03:53:09 46.9709 14.2812 219 ° 94 km/h 4181 m -1.5 m/s 403.40 MHz Friesach (AT) 0.00 km UNKNOWN
N1423616 RS92 2017-10-23 04:01:47 48.098 14.8921 106 ° 61 km/h 685 m -4.5 m/s 403.40 MHz Amstetten (AT) 0.00 km FOUND
N1423325 RS92 2017-10-22 03:47:39 48.5085 15.6732 72 ° 28 km/h 947 m -5.2 m/s 403.40 MHz Langenlois (AT) 0.00 km UNKNOWN
N1423601 RS92 2017-10-21 04:04:45 47.5341 15.5249 106 ° 28 km/h 1743 m -4.3 m/s 403.40 MHz Mitterdorf im Mürztal (AT) 0.00 km UNKNOWN
N1423606 RS92 2017-10-20 04:02:43 48.1809 14.7441 316 ° 17 km/h 1698 m -5.0 m/s 403.40 MHz Ardagger Markt (AT) 0.00 km FOUND
M1343642 RS92 2017-10-19 03:42:44 48.2824 14.7596 166 ° 22 km/h 2149 m -6.9 m/s 403.40 MHz Grein (AT) 0.00 km FOUND
M1343661 RS92 2017-10-18 04:09:18 48.5137 14.6141 106 ° 20 km/h 1850 m -4.5 m/s 403.40 MHz Sankt Oswald bei Freistadt (AT) 0.00 km FOUND
M1343648 RS92 2017-10-17 04:10:17 48.1818 14.9847 61 ° 15 km/h 1994 m -4.9 m/s 403.40 MHz Blindenmarkt (AT) 0.00 km FOUND
M1343400 RS92 2017-10-16 04:07:48 48.4054 15.0056 156 ° 24 km/h 1175 m -4.9 m/s 403.40 MHz Königswiesen (AT) 0.00 km UNKNOWN
M1343660 RS92 2017-10-15 04:01:49 47.887 14.5471 30 ° 24 km/h 3147 m -5.9 m/s 403.40 MHz Grossraming (AT) 0.00 km LOST
M1343639 RS92 2017-10-14 03:45:58 47.7378 14.246 105 ° 43 km/h 2074 m -5.7 m/s 403.40 MHz Windischgarsten (AT) 0.00 km FOUND
M1343633 RS92 2017-10-13 03:53:07 47.4079 15.3047 168 ° 56 km/h 2769 m -4.8 m/s 403.40 MHz Bruck an der Mur (AT) 0.00 km UNKNOWN
M1343637 RS92 2017-10-12 04:04:16 48.1141 15.4989 85 ° 52 km/h 1094 m -4.6 m/s 403.40 MHz Obergrafendorf (AT) 0.00 km UNKNOWN
M1343636 RS92 2017-10-11 04:07:45 47.4078 14.8383 145 ° 35 km/h 3678 m -5.4 m/s 403.40 MHz Trofaiach (AT) 0.00 km UNKNOWN
M1343655 RS92 2017-10-10 03:52:44 47.5972 15.4177 125 ° 54 km/h 1919 m -6.4 m/s 403.40 MHz Mitterdorf im Mürztal (AT) 0.00 km UNKNOWN
M1343645 RS92 2017-10-09 03:46:12 47.6307 15.3248 138 ° 57 km/h 2312 m -7.6 m/s 403.40 MHz Thörl (AT) 0.00 km UNKNOWN
M1343638 RS92 2017-10-08 04:11:58 48.031 15.6624 89 ° 74 km/h 1173 m -5.7 m/s 403.40 MHz Sankt Veit an der Gölsen (AT) 0.00 km UNKNOWN
M1343429 RS92 2017-10-07 03:47:14 47.3003 14.539 186 ° 93 km/h 4001 m -6.1 m/s 403.40 MHz Pöls (AT) 0.00 km UNKNOWN
M1343431 RS92 2017-10-06 03:05:51 48.0498 15.7911 101 ° 57 km/h 983 m -4.7 m/s 403.40 MHz Hainfeld (AT) 0.00 km UNKNOWN
M1343654 RS92 2017-10-05 04:10:24 47.4827 16.0808 94 ° 37 km/h 1252 m -4.9 m/s 403.40 MHz Pinggau (AT) 0.00 km UNKNOWN
M1343626 RS92 2017-10-04 03:49:15 47.5617 15.1006 145 ° 35 km/h 3355 m -7.9 m/s 403.40 MHz Thörl (AT) 0.00 km UNKNOWN
M1343646 RS92 2017-10-03 04:02:13 47.9404 15.4646 85 ° 57 km/h 2593 m -5.6 m/s 403.40 MHz Kirchberg an der Pielach (AT) 0.00 km UNKNOWN
M1343659 RS92 2017-10-02 03:51:39 47.5577 14.0566 35 ° 15 km/h 2663 m -4.8 m/s 403.40 MHz Stainach (AT) 0.00 km LOST
M1343657 RS92 2017-10-01 03:48:58 48.0845 14.3132 121 ° 11 km/h 1644 m -7.1 m/s 403.40 MHz Sierning (AT) 0.00 km FOUND
M1343656 RS92 2017-09-30 03:45:59 47.7499 14.1877 103 ° 7 km/h 1910 m -13.1 m/s 403.40 MHz Windischgarsten (AT) 0.00 km UNKNOWN
M1343419 RS92 2017-09-29 04:08:43 47.825 14.2615 151 ° 13 km/h 1775 m -3.7 m/s 403.40 MHz Molln (AT) 0.00 km UNKNOWN
M1343632 RS92 2017-09-28 04:15:43 48.0964 14.2288 353 ° 13 km/h 1438 m -4.9 m/s 403.40 MHz Kematen an der Krems (AT) 0.00 km UNKNOWN
M1343707 RS92 2017-09-27 04:17:32 48.5454 14.048 294 ° 33 km/h 953 m -2.5 m/s 403.40 MHz Haslach an der Mühl (AT) 0.00 km UNKNOWN
M1343658 RS92 2017-09-26 04:10:11 48.4417 14.3612 309 ° 41 km/h 1201 m -4.7 m/s 403.40 MHz Hellmonsödt (AT) 0.00 km UNKNOWN
M1343628 RS92 2017-09-24 04:14:20 48.1399 14.4272 74 ° 13 km/h 1406 m -3.5 m/s 403.40 MHz Kronstorf (AT) 0.00 km UNKNOWN
M1343717 RS92 2017-09-23 04:32:56 47.8086 15.0111 151 ° 37 km/h 1976 m -4.4 m/s 403.40 MHz Gaming (AT) 0.00 km UNKNOWN
M1343624 RS92 2017-09-22 04:32:09 47.3338 14.6457 162 ° 67 km/h 3873 m -5.5 m/s 403.40 MHz Pöls (AT) 0.00 km UNKNOWN
M1343719 RS92 2017-09-21 04:20:34 47.4847 14.1458 170 ° 44 km/h 2951 m -4.7 m/s 403.40 MHz Irdning (AT) 0.00 km UNKNOWN
M1343627 RS92 2017-09-20 04:25:36 47.9513 14.1244 158 ° 28 km/h 1404 m -5.2 m/s 403.40 MHz Schlierbach (AT) 0.00 km UNKNOWN
M1343399 RS92 2017-09-19 04:22:57 48.9293 14.8808 175 ° 6 km/h 2237 m -5.5 m/s 403.40 MHz Třeboň (CZ) 0.00 km UNKNOWN
M1343421 RS92 2017-09-18 11:51:15 48.8862 16.0361 108 ° 13 km/h 596 m -3.8 m/s 403.40 MHz Znojmo (CZ) 0.00 km FOUND
M1343394 RS92 2017-09-17 09:11:17 49.3981 14.9681 138 ° 9 km/h 1987 m -7.2 m/s 403.40 MHz Pelhřimov (CZ) 0.00 km UNKNOWN
M1343635 RS92 2017-09-16 09:52:16 49.2808 15.5891 306 ° 26 km/h 1156 m -9.6 m/s 403.40 MHz Třešť (CZ) 0.00 km UNKNOWN
M1343393 RS92 2017-09-15 04:13:55 48.6751 16.7599 106 ° 39 km/h 547 m -4.9 m/s 403.40 MHz Poysdorf (AT) 0.00 km FOUND
M1343618 RS92 2017-09-14 04:27:34 48.4598 16.4476 313 ° 43 km/h 436 m -5.5 m/s 403.40 MHz Großrußbach (AT) 0.00 km FOUND
M1343634 RS92 2017-09-13 03:51:25 47.9369 15.4414 99 ° 39 km/h 1446 m -7.5 m/s 403.40 MHz Kirchberg an der Pielach (AT) 0.00 km UNKNOWN
M1343405 RS92 2017-09-12 03:57:08 48.8598 15.3078 101 ° 35 km/h 1358 m -5.8 m/s 403.40 MHz Waidhofen an der Thaya (AT) 0.00 km FOUND
M1343594 RS92 2017-09-11 02:43:20 48.6086 14.6419 30 ° 104 km/h 11653 m -41.7 m/s 403.40 MHz Sankt Oswald bei Freistadt (AT) 0.00 km UNKNOWN
M1343706 RS92 2017-09-10 04:16:31 49.1732 15.2031 359 ° 50 km/h 2754 m -5.0 m/s 403.40 MHz Jindřichŭv Hradec (CZ) 0.00 km UNKNOWN
M1343435 RS92 2017-09-09 04:19:22 48.8067 15.2196 20 ° 28 km/h 2213 m -6.2 m/s 403.40 MHz Waidhofen an der Thaya (AT) 0.00 km LOST
M1343411 RS92 2017-09-08 04:06:22 48.3622 15.639 259 ° 13 km/h 399 m -6.3 m/s 403.40 MHz Paudorf (AT) 0.00 km UNKNOWN
M1343625 RS92 2017-09-07 04:18:28 48.1237 16.0385 102 ° 56 km/h 742 m -3.2 m/s 403.40 MHz Eichgraben (AT) 0.00 km FOUND
M1343422 RS92 2017-09-06 04:08:39 47.6673 15.177 131 ° 74 km/h 3317 m -6.4 m/s 403.40 MHz Mariazell (AT) 0.00 km UNKNOWN
M1343715 RS92 2017-09-05 04:07:26 47.1162 14.259 196 ° 44 km/h 3833 m -5.4 m/s 403.40 MHz Murau (AT) 0.00 km UNKNOWN
M1343418 RS92 2017-09-04 04:03:24 47.9727 14.8332 169 ° 28 km/h 2104 m -5.6 m/s 403.40 MHz Waidhofen an der Ybbs (AT) 0.00 km UNKNOWN
M1343402 RS92 2017-09-03 04:11:21 48.3666 14.2189 158 ° 9 km/h 832 m -3.9 m/s 403.40 MHz Gramastetten (AT) 0.00 km UNKNOWN
M1343406 RS92 2017-09-02 04:02:44 49.0644 15.2609 58 ° 22 km/h 3164 m -4.6 m/s 403.40 MHz Dačice (CZ) 0.00 km UNKNOWN
M1343432 RS92 2017-09-01 03:58:48 48.9518 14.9162 335 ° 20 km/h 2559 m -6.4 m/s 403.40 MHz Litschau (AT) 0.00 km UNKNOWN
M1343607 2017-08-31 03:50:22 48.4133 14.5045 16 ° 28 km/h 11767 m -21.0 m/s 403.40 MHz Neumarkt im Mühlkreis (AT) 0.00 km UNKNOWN
M1343401 RS92 2017-08-28 03:59:06 47.916 15.685 127 ° 39 km/h 3154 m -8.0 m/s 403.40 MHz Lilienfeld (AT) 0.00 km UNKNOWN
M1343614 RS92 2017-08-27 03:53:03 48.1861 15.1155 78 ° 52 km/h 6069 m -5.4 m/s 403.40 MHz Ybbs an der Donau (AT) 0.00 km UNKNOWN
M1343708 RS92 2017-08-26 03:53:36 48.2371 14.9006 73 ° 46 km/h 6786 m -16.1 m/s 403.40 MHz Grein (AT) 0.00 km UNKNOWN
M1343716 RS92 2017-08-25 03:41:55 48.1778 14.9376 78 ° 57 km/h 6918 m -15.8 m/s 403.40 MHz Sankt Georgen am Ybbsfelde (AT) 0.00 km UNKNOWN
M1343414 RS92 2017-08-23 04:05:31 47.4603 15.6261 141 ° 94 km/h 5335 m -5.2 m/s 403.40 MHz Krieglach (AT) 0.00 km UNKNOWN
M1343413 RS92 2017-08-21 03:55:40 47.5296 15.734 126 ° 39 km/h 4270 m -5.9 m/s 403.40 MHz Langenwang (AT) 0.00 km UNKNOWN
M1343427 RS92 2017-08-20 04:00:02 48.7783 14.7057 11 ° 94 km/h 8441 m -6.7 m/s 403.40 MHz Trhové Sviny (CZ) 0.00 km UNKNOWN
M1343403 RS92 2017-08-19 04:15:05 49.0078 15.578 19 ° 52 km/h 4051 m -6.3 m/s 403.40 MHz Dačice (CZ) 0.00 km UNKNOWN
M1343423 RS92 2017-08-18 04:12:05 47.9684 14.9712 98 ° 24 km/h 2464 m -6.5 m/s 403.40 MHz Ybbsitz (AT) 0.00 km UNKNOWN
M1344106 RS92 2017-08-17 04:27:12 48.1605 14.6491 64 ° 19 km/h 1569 m -4.6 m/s 403.40 MHz Sankt Pantaleon (AT) 0.00 km UNKNOWN
M1344110 RS92 2017-08-16 04:13:18 48.4008 14.7595 140 ° 17 km/h 1649 m -2.2 m/s 403.40 MHz Unterweissenbach (AT) 0.00 km UNKNOWN
M1344096 RS92 2017-08-15 04:28:31 48.319 14.7159 96 ° 7 km/h 1597 m -5.6 m/s 403.40 MHz Tragwein (AT) 0.00 km UNKNOWN
M1344089 RS92 2017-08-14 04:15:40 48.3524 14.6536 109 ° 6 km/h 1875 m -5.4 m/s 403.40 MHz Tragwein (AT) 0.00 km UNKNOWN
M1344132 RS92 2017-08-13 04:22:03 48.0576 14.7475 123 ° 44 km/h 1915 m -3.5 m/s 403.40 MHz Aschbach Markt (AT) 0.00 km UNKNOWN
M1344137 RS92 2017-08-12 04:12:20 49.0574 14.3548 168 ° 24 km/h 2693 m -5.3 m/s 403.40 MHz Hluboká nad Vltavou (CZ) 0.00 km UNKNOWN
M1344134 RS92 2017-08-11 04:00:14 49.2693 14.1342 359 ° 70 km/h 4169 m -6.0 m/s 403.40 MHz Písek (CZ) 0.00 km UNKNOWN
M1344128 RS92 2017-08-10 03:53:36 49.0236 14.8222 43 ° 48 km/h 2637 m -14.5 m/s 403.40 MHz Třeboň (CZ) 0.00 km UNKNOWN
M1344133 RS92 2017-08-09 04:10:23 49.2275 15.1054 55 ° 89 km/h 3862 m -7.4 m/s 403.40 MHz Jindřichŭv Hradec (CZ) 0.00 km UNKNOWN
M1344125 RS92 2017-08-08 08:22:34 48.5792 14.7199 142 ° 20 km/h 1627 m -5.6 m/s 403.40 MHz Sankt Oswald bei Freistadt (AT) 0.00 km UNKNOWN
M1344115 RS92 2017-08-08 06:28:39 48.4767 14.6516 345 ° 19 km/h 1385 m -5.6 m/s 405.10 MHz Sankt Oswald bei Freistadt (AT) 0.00 km UNKNOWN
M1344113 RS92 2017-08-08 04:40:24 48.467 14.7634 76 ° 15 km/h 1724 m -5.5 m/s 403.40 MHz Unterweissenbach (AT) 0.00 km UNKNOWN
M1344119 RS92 2017-08-07 04:24:54 48.2458 15.0824 200 ° 17 km/h 2366 m -6.0 m/s 403.40 MHz Ybbs an der Donau (AT) 0.00 km UNKNOWN
M1344129 RS92 2017-08-06 04:04:34 48.8522 15.5001 98 ° 46 km/h 3217 m -6.6 m/s 403.40 MHz Raabs an der Thaya (AT) 0.00 km UNKNOWN
M1343604 RS92 2017-08-04 03:57:21 48.2127 15.1931 24 ° 17 km/h 2449 m -6.0 m/s 403.40 MHz Pöchlarn (AT) 0.00 km UNKNOWN
M1344123 RS92 2017-08-03 04:14:01 48.1813 15.0336 117 ° 26 km/h 2308 m -7.9 m/s 403.40 MHz Ybbs an der Donau (AT) 0.00 km UNKNOWN
M1343412 RS92 2017-08-02 03:40:34 48.4833 15.2512 113 ° 48 km/h 2425 m -6.3 m/s 403.40 MHz Zwettl (AT) 0.00 km UNKNOWN
M1343608 RS92 2017-08-01 04:07:30 48.6664 14.8942 97 ° 39 km/h 1662 m -3.8 m/s 403.40 MHz Weitra (AT) 0.00 km UNKNOWN
M1343603 RS92 2017-07-31 03:52:54 48.392 15.1044 127 ° 17 km/h 2477 m -5.0 m/s 403.40 MHz Pöggstall (AT) 0.00 km UNKNOWN
M1344107 RS92 2017-07-30 04:01:55 48.4422 14.8194 18 ° 19 km/h 1711 m -4.8 m/s 403.40 MHz Unterweissenbach (AT) 0.00 km UNKNOWN
M1344091 RS92 2017-07-29 03:54:53 47.8436 15.5384 113 ° 57 km/h 3919 m -5.3 m/s 403.40 MHz Mariazell (AT) 0.00 km UNKNOWN
M1344097 RS92 2017-07-27 04:17:17 47.2865 14.5662 144 ° 83 km/h 4008 m -5.2 m/s 403.40 MHz Pöls (AT) 0.00 km UNKNOWN
M1344108 RS92 2017-07-26 04:00:00 48.3287 14.9584 74 ° 87 km/h 2284 m -4.2 m/s 403.40 MHz Waldhausen im Strudengau (AT) 0.00 km UNKNOWN
M1224103 RS92 2017-07-25 03:51:14 48.6708 14.694 98 ° 52 km/h 1767 m -6.7 m/s 403.40 MHz Weitra (AT) 0.00 km UNKNOWN
M1344116 RS92 2017-07-24 04:18:02 48.6788 15.2843 28 ° 30 km/h 2477 m -4.7 m/s 403.40 MHz Vitis (AT) 0.00 km UNKNOWN
M1344092 RS92 2017-07-23 04:01:06 48.5914 14.9104 95 ° 24 km/h 1997 m -4.8 m/s 403.40 MHz Grossgerungs (AT) 0.00 km UNKNOWN
M1344122 RS92 2017-07-22 04:02:04 48.5452 14.7923 70 ° 35 km/h 1746 m -3.6 m/s 403.40 MHz Unterweissenbach (AT) 0.00 km UNKNOWN
M1344099 RS92 2017-07-21 04:03:42 48.5114 14.7408 149 ° 35 km/h 1844 m -4.7 m/s 403.40 MHz Unterweissenbach (AT) 0.00 km UNKNOWN
M1344112 RS92 2017-07-20 04:15:41 48.2021 14.5414 142 ° 20 km/h 1772 m -5.3 m/s 403.40 MHz Sankt Pantaleon (AT) 0.00 km UNKNOWN
M1343176 RS92 2017-07-19 04:09:27 48.347 14.8791 108 ° 20 km/h 1967 m -5.1 m/s 403.40 MHz Königswiesen (AT) 0.00 km UNKNOWN
M1344118 RS92 2017-07-18 04:24:46 48.0499 14.8663 351 ° 17 km/h 2163 m -5.8 m/s 403.40 MHz Neuhofen an der Ybbs (AT) 0.00 km UNKNOWN
M1344117 RS92 2017-07-17 03:51:10 47.6719 14.4144 153 ° 28 km/h 2578 m -8.6 m/s 403.40 MHz Spital am Pyhrn (AT) 0.00 km UNKNOWN
M1323168 RS92 2017-07-16 03:58:37 46.9114 13.9827 191 ° 54 km/h 5473 m -4.5 m/s 403.40 MHz Himmelberg (AT) 0.00 km UNKNOWN
M1344095 RS92 2017-07-15 03:41:04 47.7481 15.616 146 ° 46 km/h 4120 m -6.1 m/s 403.40 MHz Neuberg an der Mürz (AT) 0.00 km UNKNOWN
M1234428 RS92 2017-07-14 04:07:08 48.2319 15.6286 63 ° 35 km/h 3740 m -5.8 m/s 403.40 MHz Sankt Pölten (AT) 0.00 km UNKNOWN
M1323281 RS92 2017-07-13 02:48:54 47.9938 15.3563 105 ° 113 km/h 7435 m -35.9 m/s 403.40 MHz Kirchberg an der Pielach (AT) 0.00 km UNKNOWN
M1343174 RS92 2017-07-12 04:07:05 48.0215 15.7264 115 ° 67 km/h 3486 m -5.3 m/s 403.40 MHz Hainfeld (AT) 0.00 km UNKNOWN
M1323282 RS92 2017-07-11 04:18:11 48.953 15.5241 60 ° 48 km/h 3113 m -6.2 m/s 403.40 MHz Raabs an der Thaya (AT) 0.00 km UNKNOWN
M1344059 RS92 2017-07-09 04:16:34 47.9276 15.2653 116 ° 35 km/h 3037 m -7.5 m/s 403.40 MHz Scheibbs (AT) 0.00 km UNKNOWN
M1224334 RS92 2017-07-08 02:39:39 48.032 14.7247 124 ° 67 km/h 5034 m -31.3 m/s 403.40 MHz Biberbach (AT) 0.00 km UNKNOWN
M1344103 RS92 2017-07-07 03:56:53 47.8435 15.4726 117 ° 39 km/h 3931 m -5.4 m/s 403.40 MHz Mariazell (AT) 0.00 km UNKNOWN
M1224330 RS92 2017-07-06 03:51:26 47.8932 15.6014 136 ° 76 km/h 4177 m -10.1 m/s 403.40 MHz Lilienfeld (AT) 0.00 km UNKNOWN
M1344061 RS92 2017-07-05 04:14:15 47.9907 15.2929 113 ° 37 km/h 2900 m -6.4 m/s 403.40 MHz Scheibbs (AT) 0.00 km UNKNOWN
M1343666 RS92 2017-07-04 04:00:49 47.8369 15.4381 119 ° 48 km/h 3738 m -4.6 m/s 403.40 MHz Mariazell (AT) 0.00 km UNKNOWN
M1343664 RS92 2017-07-03 03:53:44 47.9499 14.747 134 ° 41 km/h 2316 m -11.4 m/s 403.40 MHz Waidhofen an der Ybbs (AT) 0.00 km UNKNOWN
M1243342 RS92 2017-07-02 04:08:15 47.9355 14.4484 97 ° 57 km/h 1822 m -4.7 m/s 403.40 MHz Ternberg (AT) 0.00 km UNKNOWN
M1343668 RS92 2017-07-01 04:12:44 48.6409 14.8331 160 ° 24 km/h 1931 m -3.8 m/s 403.40 MHz Weitra (AT) 0.00 km UNKNOWN
M1343166 RS92 2017-06-30 03:38:14 48.7987 15.2019 98 ° 46 km/h 2462 m -6.4 m/s 403.40 MHz Vitis (AT) 0.00 km UNKNOWN
M1324507 RS92 2017-06-28 04:11:06 48.552 14.8334 323 ° 17 km/h 1253 m -7.4 m/s 403.40 MHz Grossgerungs (AT) 0.00 km UNKNOWN
M1333001 RS92 2017-06-27 04:04:27 48.5663 14.7729 286 ° 6 km/h 1673 m -7.3 m/s 403.40 MHz Grossgerungs (AT) 0.00 km UNKNOWN
M1343196 RS92 2017-06-26 04:12:31 47.8283 15.0039 108 ° 57 km/h 2970 m -10.4 m/s 403.40 MHz Gaming (AT) 0.00 km UNKNOWN
M1324515 RS92 2017-06-25 03:43:51 48.2705 14.9513 80 ° 54 km/h 2112 m -8.8 m/s 403.40 MHz Waldhausen im Strudengau (AT) 0.00 km UNKNOWN
M1343630 RS92 2017-06-24 04:10:27 47.9146 15.0293 100 ° 76 km/h 2705 m -7.7 m/s 403.40 MHz Gaming (AT) 0.00 km UNKNOWN
M1343620 2017-06-23 04:31:15 47.963 15.2132 112 ° 87 km/h 3426 m -17.3 m/s 403.40 MHz Scheibbs (AT) 0.00 km UNKNOWN
M1343619 2017-06-22 03:59:34 47.5999 14.9159 136 ° 37 km/h 3330 m -4.6 m/s 403.40 MHz Eisenerz (AT) 0.00 km UNKNOWN
M1343433 2017-06-21 04:12:32 47.7791 15.0572 128 ° 43 km/h 2732 m -4.7 m/s 403.40 MHz Gaming (AT) 0.00 km UNKNOWN
M1343711 2017-06-20 03:47:06 47.7766 14.5145 160 ° 50 km/h 8836 m -5.0 m/s 403.40 MHz Grossraming (AT) 0.00 km UNKNOWN
M1324528 2017-06-16 03:34:32 47.9574 15.0346 139 ° 33 km/h 15307 m -9.9 m/s 403.40 MHz Gaming (AT) 0.00 km UNKNOWN
M1324490 2017-06-10 03:35:41 47.9404 14.878 143 ° 44 km/h 16559 m -21.2 m/s 403.40 MHz Ybbsitz (AT) 0.00 km UNKNOWN